[[{"header":{"parameterUnit":"m.s-1","parameterCategory":1,"la1":31.0,"la2":29.5877,"lo1":-88.7671,"lo2":-86.6584,"dy":0.0162,"dx":0.0185,"nx":115,"ny":88,"refTime":"2023-04-22T12:00:00:Z","depth":0,"parameterNumber":2,"parameterNumberName":"U-component_of_WINDS"},"data":[0.0,0.0,0.0,0.0,0.0,0.0,0.0,0.0,0.0,0.0,0.0,0.0,0.0,0.0,0.0,0.0,0.0,0.0,0.0,0.0,0.0,0.0,0.0,0.0,0.0,0.0,0.0,0.0,0.0,0.0,0.0,0.0,0.0,0.0,0.0,0.0,0.0,0.0,0.0,0.0,0.0,0.0,0.0,0.0,0.0,0.0,0.0,0.0,0.0,0.0,0.0,0.0,0.0,0.0,0.0,0.0,0.0,0.0,0.0,0.0,0.0,0.0,0.0,0.0,0.0,0.0,0.0,0.0,0.0,0.0,0.0,0.0,0.0,0.0,0.0,0.0,0.0,0.0,0.0,0.0,0.0,0.0,0.0,0.0,0.0,0.0,0.0,0.0,0.0,0.0,0.0,0.0,0.0,0.0,0.0,0.0,0.0,0.0,0.0,0.0,0.0,0.0,0.0,0.0,0.0,0.0,0.0,0.0,0.0,0.0,0.0,0.0,0.0,0.0,0.0,0.0,0.0,0.0,0.0,0.0,0.0,0.0,0.0,0.0,0.0,0.0,0.0,0.0,0.0,0.0,0.0,0.0,0.0,0.0,0.0,0.0,0.0,0.0,0.0,0.0,0.0,0.0,0.0,0.0,0.0,0.0,0.0,0.0,0.0,0.0,0.0,0.0,0.0,0.0,0.0,0.0,0.0,0.0,0.0,0.0,0.0,0.0,0.0,0.0,0.0,0.0,0.0,0.0,0.0,0.0,0.0,0.0,0.0,0.0,0.0,0.0,0.0,0.0,0.0,0.0,0.0,0.0,0.0,0.0,0.0,0.0,0.0,0.0,0.0,0.0,0.0,0.0,0.0,0.0,0.0,0.0,0.0,0.0,0.0,0.0,0.0,0.0,0.0,0.0,0.0,0.0,0.0,0.0,0.0,0.0,0.0,0.0,0.0,0.0,0.0,0.0,0.0,0.0,0.0,0.0,0.0,0.0,0.0,0.0,0.0,0.0,0.0,0.0,0.0,0.0,0.0,0.0,0.0,0.0,0.0,0.0,0.0,0.0,0.0,0.0,0.0,0.0,0.0,0.0,0.0,0.0,0.0,0.0,0.0,0.0,0.0,0.0,0.0,0.0,0.0,0.0,0.0,0.0,0.0,0.0,0.0,0.0,0.0,0.0,0.0,0.0,0.0,0.0,0.0,0.0,0.0,0.0,0.0,0.0,0.0,0.0,0.0,0.0,0.0,0.0,0.0,0.0,0.0,0.0,0.0,0.0,0.0,0.0,0.0,0.0,0.0,0.0,0.0,0.0,0.0,0.0,0.0,0.0,0.0,0.0,0.0,0.0,0.0,0.0,0.0,0.0,0.0,0.0,0.0,0.0,0.0,0.0,0.0,0.0,0.0,0.0,0.0,0.0,0.0,0.0,0.0,0.0,0.0,0.0,0.0,0.0,0.0,0.0,0.0,0.0,0.0,0.0,0.0,0.0,0.0,0.0,0.0,0.0,0.0,0.0,0.0,0.0,0.0,0.0,0.0,0.0,0.0,0.0,0.0,0.0,0.0,0.0,0.0,0.0,0.0,0.0,0.0,0.0,0.0,0.0,0.0,0.0,0.0,0.0,0.0,0.0,0.0,0.0,0.0,0.0,0.0,0.0,0.0,0.0,0.0,0.0,0.0,0.0,0.0,0.0,0.0,0.0,0.0,0.0,0.0,0.0,0.0,0.0,0.0,0.0,0.0,0.0,0.0,0.0,0.0,0.0,0.0,0.0,0.0,0.0,0.0,0.0,0.0,0.0,0.0,0.0,0.0,0.0,0.0,0.0,0.0,0.0,0.0,0.0,0.0,0.0,0.0,0.0,0.0,0.0,0.0,0.0,0.0,0.0,0.0,0.0,0.0,0.0,0.0,0.0,0.0,0.0,0.0,0.0,0.0,0.0,0.0,0.0,0.0,0.0,0.0,0.0,0.0,0.0,0.0,0.0,0.0,0.0,0.0,0.0,0.0,0.0,0.0,0.0,0.0,0.0,0.0,0.0,0.0,0.0,0.0,0.0,0.0,0.0,0.0,0.0,0.0,0.0,0.0,0.0,0.0,0.0,0.0,0.0,0.0,0.0,0.0,0.0,0.0,0.0,0.0,0.0,0.0,0.0,0.0,0.0,0.0,0.0,0.0,0.0,0.0,0.0,0.0,0.0,0.0,0.0,0.0,0.0,0.0,0.0,0.0,0.0,0.0,0.0,0.0,0.0,0.0,0.0,0.0,0.0,0.0,0.0,0.0,0.0,0.0,0.0,0.0,0.0,0.0,0.0,0.0,0.0,0.0,0.0,0.0,0.0,0.0,0.0,0.0,0.0,0.0,0.0,0.0,0.0,0.0,0.0,0.0,0.0,0.0,0.0,0.0,0.0,0.0,0.0,0.0,0.0,0.0,0.0,0.0,0.0,0.0,0.0,0.0,0.0,0.0,0.0,0.0,0.0,0.0,0.0,0.0,0.0,0.0,0.0,0.0,0.0,0.0,0.0,0.0,0.0,0.0,0.0,0.0,0.0,0.0,0.0,0.0,0.0,0.0,0.0,0.0,0.0,0.0,0.0,0.0,0.0,0.0,0.0,0.0,0.0,0.0,0.0,0.0,0.0,0.0,0.0,0.0,0.0,0.0,0.0,0.0,0.0,0.0,0.0,0.0,0.0,0.0,0.0,0.0,0.0,0.0,0.0,0.0,0.0,0.0,0.0,0.0,0.0,0.0,0.0,0.0,0.0,0.0,0.0,0.0,0.0,0.0,0.0,0.0,0.0,0.0,0.0,0.0,0.0,0.0,0.0,0.0,0.0,0.0,0.0,0.0,0.0,0.0,0.0,0.0,0.0,0.0,0.0,0.0,0.0,0.0,0.0,0.0,0.0,0.0,0.0,0.0,0.0,0.0,0.0,0.0,0.0,0.0,0.0,0.0,0.0,0.0,0.0,0.0,0.0,0.0,0.0,0.0,0.0,0.0,0.0,0.0,0.0,0.0,0.0,0.0,0.0,0.0,0.0,0.0,0.0,0.0,0.0,0.0,0.0,0.0,0.0,0.0,0.0,0.0,0.0,0.0,0.0,0.0,0.0,0.0,0.0,0.0,0.0,0.0,0.0,0.0,0.0,0.0,0.0,0.0,0.0,0.0,0.0,0.0,0.0,0.0,0.0,0.0,0.0,0.0,0.0,0.0,0.0,0.0,0.0,0.0,0.0,0.0,0.0,0.0,0.0,0.0,0.0,0.0,0.0,0.0,0.0,0.0,0.0,0.0,0.0,0.0,0.0,0.0,0.0,0.0,0.0,0.0,0.0,0.0,0.0,0.0,0.0,0.0,0.0,0.0,0.0,0.0,0.0,0.0,0.0,0.0,0.0,0.0,0.0,0.0,0.0,0.0,0.0,0.0,0.0,0.0,0.0,0.0,0.0,0.0,0.0,0.0,0.0,0.0,0.0,0.0,0.0,0.0,0.0,0.0,0.0,0.0,0.0,0.0,0.0,0.0,0.0,0.0,0.0,0.0,0.0,0.0,0.0,0.0,0.0,0.0,0.0,0.0,0.0,0.0,0.0,0.0,0.0,0.0,0.0,0.0,0.0,0.0,0.0,0.0,0.0,0.0,0.0,0.0,0.0,0.0,0.0,0.0,0.0,0.0,0.0,0.0,0.0,0.0,0.0,0.0,0.0,0.0,0.0,0.0,0.0,0.0,0.0,0.0,0.0,0.0,0.0,0.0,0.0,0.0,0.0,0.0,0.0,0.0,0.0,0.0,0.0,0.0,0.0,0.0,0.0,0.0,0.0,0.0,0.0,0.0,0.0,0.0,0.0,0.0,0.0,0.0,0.0,0.0,0.0,0.0,0.0,0.0,0.0,0.0,0.0,0.0,0.0,0.0,0.0,0.0,0.0,0.0,0.0,0.0,0.0,0.0,0.0,0.0,0.0,0.0,0.0,0.0,0.0,0.0,0.0,0.0,0.0,0.0,0.0,0.0,0.0,0.0,0.0,0.0,0.0,0.0,0.0,0.0,0.0,0.0,0.0,0.0,0.0,0.0,0.0,0.0,0.0,0.0,0.0,0.0,0.0,0.0,0.0,0.0,0.0,0.0,0.0,0.0,0.0,0.0,0.0,0.0,0.0,0.0,0.0,0.0,0.0,0.0,0.0,0.0,0.0,0.0,0.0,0.0,0.0,0.0,0.0,0.0,0.0,0.0,0.0,0.0,0.0,0.0,0.0,0.0,0.0,0.0,0.0,0.0,0.0,0.0,0.0,-0.5018,0.0,0.0,0.0,0.0,0.0,0.0,0.0,0.0,0.0,0.0,0.0,0.0,0.0,0.0,0.0,0.0,0.0,0.0,0.0,0.0,0.0,0.0,0.0,0.0,0.0,0.0,0.0,0.0,0.0,0.0,0.0,0.0,0.0,0.0,0.0,0.0,0.0,0.0,0.0,0.0,0.0,0.0,0.0,0.0,0.0,0.0,0.0,0.0,0.0,0.0,0.0,0.0,0.0,0.0,0.0,0.0,0.0,0.0,0.0,0.0,0.0,0.0,0.0,0.0,0.0,0.0,0.0,0.0,0.0,0.0,0.0,0.0,0.0,0.0,0.0,0.0,0.0,0.0,0.0,0.0,0.0,0.0,0.0,0.0,0.0,0.0,0.0,0.0,0.0,0.0,0.0,0.0,0.0,0.0,0.0,0.0,0.0,0.0,0.0,0.0,0.0,0.0,0.0,0.0,0.0,0.0,0.0,0.0,0.0,0.0,-0.5018,-0.5018,-0.5018,-0.5018,-0.5018,0.0,0.0,0.0,0.0,0.0,0.0,0.0,0.0,0.0,0.0,0.0,0.0,0.0,0.0,0.0,0.0,0.0,0.0,0.0,0.0,0.0,0.0,0.0,0.0,0.0,0.0,0.0,0.0,0.0,0.0,0.0,0.0,0.0,0.0,0.0,0.0,0.0,0.0,0.0,0.0,0.0,0.0,0.0,0.0,0.0,0.0,0.0,0.0,0.0,0.0,0.0,0.0,0.0,0.0,0.0,0.0,0.0,0.0,0.0,0.0,0.0,0.0,0.0,0.0,0.0,0.0,0.0,0.0,0.0,0.0,0.0,0.0,0.0,0.0,0.0,0.0,0.0,0.0,0.0,0.0,0.0,0.0,0.0,0.0,0.0,0.0,0.0,0.0,0.0,0.0,0.0,0.0,0.0,0.0,0.0,0.0,0.0,0.0,0.0,0.0,0.0,0.0,0.0,0.0,0.0,0.0,0.0,0.0,0.0,0.0,0.0,0.0,-0.4898,-0.4898,-0.474,0.0,0.0,0.0,0.0,0.0,0.0,0.0,0.0,0.0,0.0,0.0,0.0,0.0,0.0,0.0,0.0,0.0,0.0,0.0,0.0,0.0,0.0,0.0,0.0,0.0,0.0,0.0,0.0,0.0,0.0,0.0,0.0,0.0,0.0,0.0,0.0,0.0,0.0,0.0,0.0,0.0,0.0,0.0,0.0,0.0,0.0,0.0,0.0,0.0,0.0,0.0,0.0,0.0,0.0,0.0,0.0,0.0,0.0,0.0,0.0,0.0,0.0,0.0,0.0,0.0,0.0,0.0,0.0,0.0,0.0,0.0,0.0,0.0,0.0,0.0,0.0,0.0,0.0,0.0,0.0,0.0,0.0,0.0,0.0,0.0,0.0,0.0,0.0,0.0,0.0,0.0,0.0,0.0,0.0,0.0,0.0,0.0,0.0,0.0,0.0,0.0,0.0,0.0,0.0,0.0,0.0,0.0,0.0,0.0,0.0,-0.4662,-0.3949,-0.4621,0.0,-0.399,0.0,0.0,0.0,0.0,0.0,0.0,0.0,0.0,0.0,0.0,0.0,0.0,0.0,0.0,0.0,0.0,0.0,0.0,0.0,0.0,0.0,0.0,0.0,0.0,0.0,0.0,0.0,0.0,0.0,0.0,0.0,0.0,0.0,0.0,0.0,0.0,0.0,0.0,0.0,0.0,0.0,0.0,0.0,0.0,0.0,0.0,0.0,0.0,0.0,0.0,0.0,0.0,0.0,0.0,0.0,0.0,0.0,0.0,0.0,0.0,0.0,0.0,0.0,0.0,0.0,0.0,0.0,0.0,0.0,0.0,0.0,0.0,0.0,0.0,0.0,0.0,0.0,0.0,0.0,0.0,0.0,0.0,0.0,0.0,0.0,0.0,0.0,0.0,0.0,0.0,0.0,0.0,0.0,0.0,0.0,0.0,0.0,0.0,0.0,0.0,0.0,0.0,0.0,0.0,0.0,0.0,0.0,0.0,0.0,0.0,-0.4859,-0.4504,-0.482,-0.482,0.0,0.0,0.0,0.0,0.0,0.0,0.0,0.0,0.0,0.0,0.0,0.0,0.0,0.0,0.0,0.0,0.0,0.0,0.0,0.0,0.0,0.0,0.0,0.0,0.0,0.0,0.0,0.0,0.0,0.0,0.0,0.0,0.0,0.0,0.0,0.0,0.0,0.0,0.0,0.0,0.0,0.0,0.0,0.0,0.0,0.0,0.0,0.0,0.0,0.0,0.0,0.0,0.0,0.0,0.0,0.0,0.0,0.0,0.0,0.0,0.0,0.0,0.0,0.0,0.0,0.0,0.0,0.0,0.0,0.0,0.0,0.0,0.0,0.0,0.0,0.0,0.0,0.0,0.0,0.0,0.0,0.0,0.0,0.0,0.0,0.0,0.0,0.0,0.0,0.0,0.0,0.0,0.0,0.0,0.0,0.0,0.0,0.0,0.0,0.0,0.0,0.0,0.0,0.0,0.0,0.0,0.0,0.0,0.0,0.0,-0.5018,-0.5018,-0.4979,-0.4781,-0.4662,-0.4662,0.0,0.0,0.0,0.0,0.0,0.0,0.0,0.0,0.0,0.0,0.0,0.0,0.0,0.0,0.0,0.0,0.0,0.0,0.0,0.0,0.0,0.0,0.0,0.0,0.0,0.0,0.0,0.0,0.0,0.0,0.0,0.0,0.0,0.0,0.0,0.0,0.0,0.0,0.0,0.0,0.0,0.0,0.0,0.0,0.0,0.0,0.0,0.0,0.0,0.0,0.0,0.0,0.0,0.0,0.0,0.0,0.0,0.0,0.0,0.0,0.0,0.0,0.0,0.0,0.0,0.0,0.0,0.0,0.0,0.0,0.0,0.0,0.0,0.0,0.0,0.0,0.0,0.0,0.0,0.0,0.0,0.0,0.0,0.0,0.0,0.0,0.0,0.0,0.0,0.0,0.0,0.0,0.0,0.0,0.0,0.0,0.0,0.0,0.0,0.0,0.0,0.0,0.0,0.0,0.0,0.0,0.0,0.0,-0.5018,-0.5018,-0.5018,-0.4979,-0.4265,-0.3871,0.0,0.0,0.0,0.0,0.0,0.0,0.0,0.0,0.0,0.0,0.0,0.0,0.0,0.0,0.0,0.0,0.0,0.0,0.0,0.0,0.0,0.0,0.0,0.0,0.0,0.0,0.0,0.0,0.0,0.0,0.0,0.0,0.0,0.0,0.0,0.0,0.0,0.0,0.0,0.0,0.0,0.0,0.0,0.0,0.0,0.0,0.0,0.0,0.0,0.0,0.0,0.0,0.0,0.0,0.0,0.0,0.0,0.0,0.0,0.0,0.0,0.0,0.0,0.0,0.0,0.0,0.0,0.0,0.0,0.0,0.0,0.0,0.0,0.0,0.0,0.0,0.0,0.0,0.0,0.0,0.0,0.0,0.0,0.0,0.0,0.0,0.0,0.0,0.0,0.0,0.0,0.0,0.0,0.0,0.0,0.0,0.0,0.0,0.0,0.0,0.0,0.0,0.0,0.0,0.0,0.0,0.0,0.0,0.0,-0.5018,-0.5018,-0.5018,-0.4979,-0.4701,-0.4543,0.0,0.0,0.0,0.0,0.0,0.0,0.0,0.0,0.0,0.0,0.0,0.0,0.0,0.0,0.0,0.0,0.0,0.0,0.0,0.0,0.0,0.0,0.0,0.0,0.0,0.0,0.0,0.0,0.0,0.0,0.0,0.0,0.0,0.0,0.0,0.0,0.0,0.0,0.0,0.0,0.0,0.0,0.0,0.0,0.0,0.0,0.0,0.0,0.0,0.0,0.0,0.0,0.0,0.0,0.0,0.0,0.0,0.0,0.0,0.0,0.0,0.0,0.0,0.0,0.0,0.0,0.0,0.0,0.0,0.0,0.0,0.0,0.0,0.0,0.0,0.0,0.0,0.0,0.0,0.0,0.0,0.0,0.0,0.0,0.0,0.0,0.0,0.0,0.0,0.0,0.0,0.0,0.0,0.0,0.0,0.0,0.0,0.0,0.0,0.0,0.0,0.0,0.0,0.0,0.0,0.0,0.0,0.0,0.0,-0.5093,0.0,-0.5018,0.0,-0.5054,-0.5093,0.0,0.0,0.0,0.0,0.0,0.0,0.0,0.0,0.0,0.0,0.0,0.0,0.0,0.0,0.0,0.0,0.0,0.0,0.0,0.0,0.0,0.0,0.0,0.0,0.0,0.0,0.0,0.0,0.0,0.0,0.0,0.0,0.0,0.0,0.0,0.0,0.0,0.0,0.0,0.0,0.0,0.0,0.0,0.0,0.0,0.0,0.0,0.0,0.0,0.0,0.0,0.0,0.0,0.0,0.0,0.0,0.0,0.0,0.0,0.0,0.0,0.0,0.0,0.0,0.0,0.0,0.0,0.0,0.0,0.0,0.0,0.0,0.0,0.0,0.0,0.0,0.0,0.0,0.0,0.0,0.0,0.0,0.0,0.0,0.0,0.0,0.0,0.0,0.0,0.0,0.0,0.0,0.0,0.0,0.0,0.0,0.0,0.0,0.0,0.0,0.0,0.0,0.0,0.0,0.0,0.0,0.0,0.0,-0.5518,-0.5282,-0.5132,-0.5018,-0.5018,-0.5207,-0.5323,0.0,0.0,0.0,0.0,0.0,0.0,0.0,0.0,0.0,0.0,0.0,0.0,0.0,0.0,0.0,0.0,0.0,0.0,0.0,0.0,0.0,0.0,0.0,0.0,0.0,0.0,0.0,0.0,0.0,0.0,0.0,0.0,0.0,0.0,0.0,0.0,0.0,0.0,0.0,0.0,0.0,0.0,0.0,0.0,0.0,0.0,0.0,0.0,0.0,0.0,0.0,0.0,0.0,0.0,0.0,0.0,0.0,0.0,0.0,0.0,0.0,0.0,0.0,0.0,0.0,0.0,0.0,0.0,0.0,0.0,0.0,0.0,0.0,0.0,0.0,0.0,0.0,0.0,0.0,0.0,0.0,0.0,0.0,0.0,0.0,0.0,0.0,0.0,0.0,0.0,0.0,0.0,0.0,0.0,0.0,0.0,0.0,0.0,0.0,0.0,0.0,0.0,0.0,0.0,0.0,0.0,0.0,0.0,0.0,-0.5521,-0.5443,-0.5326,-0.5207,-0.5243,-0.5243,0.0,0.0,0.0,0.0,0.0,0.0,0.0,0.0,0.0,0.0,0.0,0.0,0.0,0.0,0.0,0.0,0.0,0.0,0.0,0.0,0.0,0.0,0.0,0.0,0.0,0.0,0.0,0.0,0.0,0.0,0.0,0.0,0.0,0.0,0.0,0.0,0.0,0.0,0.0,0.0,0.0,0.0,0.0,0.0,0.0,0.0,0.0,0.0,0.0,0.0,0.0,0.0,0.0,0.0,0.0,0.0,0.0,0.0,0.0,0.0,0.0,0.0,0.0,0.0,0.0,0.0,0.0,0.0,0.0,0.0,0.0,0.0,0.0,0.0,0.0,0.0,0.0,0.0,0.0,0.0,0.0,0.0,0.0,0.0,0.0,0.0,0.0,0.0,0.0,0.0,0.0,0.0,0.0,0.0,0.0,0.0,0.0,0.0,0.0,0.0,0.0,0.0,0.0,0.0,0.0,0.0,0.0,0.0,0.0,-0.587,-0.5676,-0.5559,-0.5401,-0.5479,-0.5476,-0.5323,0.0,0.0,0.0,0.0,0.0,0.0,0.0,0.0,0.0,0.0,0.0,0.0,0.0,0.0,0.0,0.0,0.0,0.0,0.0,0.0,0.0,0.0,0.0,0.0,0.0,0.0,0.0,0.0,0.0,0.0,0.0,0.0,0.0,0.0,0.0,0.0,0.0,0.0,0.0,0.0,0.0,0.0,0.0,0.0,0.0,0.0,0.0,0.0,0.0,0.0,0.0,0.0,0.0,0.0,0.0,0.0,0.0,0.0,0.0,0.0,0.0,0.0,0.0,0.0,0.0,0.0,0.0,0.0,0.0,0.0,0.0,0.0,0.0,0.0,0.0,0.0,0.0,0.0,0.0,0.0,0.0,0.0,0.0,0.0,0.0,0.0,0.0,0.0,0.0,0.0,0.0,0.0,0.0,0.0,0.0,0.0,0.0,0.0,0.0,0.0,0.0,0.0,0.0,0.0,0.0,0.0,0.0,0.0,-0.63,-0.587,-0.5637,-0.5598,-0.5786,-0.5899,0.0,0.0,0.0,0.0,0.0,0.0,0.0,0.0,0.0,0.0,0.0,0.0,0.0,0.0,0.0,0.0,0.0,0.0,0.0,0.0,0.0,0.0,0.0,0.0,0.0,0.0,0.0,0.0,0.0,0.0,0.0,0.0,0.0,0.0,0.0,0.0,0.0,0.0,0.0,0.0,0.0,0.0,0.0,0.0,0.0,0.0,0.0,0.0,0.0,0.0,0.0,0.0,0.0,0.0,0.0,0.0,0.0,0.0,0.0,0.0,0.0,0.0,0.0,0.0,0.0,0.0,0.0,0.0,0.0,0.0,0.0,0.0,0.0,0.0,0.0,0.0,0.0,0.0,0.0,0.0,0.0,0.0,0.0,0.0,0.0,0.0,0.0,0.0,0.0,0.0,0.0,0.0,0.0,0.0,0.0,0.0,0.0,0.0,0.0,0.0,0.0,0.0,0.0,0.0,0.0,0.0,0.0,0.0,0.0,-0.63,-0.6183,-0.6025,-0.5825,-0.5899,-0.5825,0.0,0.0,0.0,0.0,0.0,0.0,0.0,0.0,0.0,0.0,0.0,0.0,0.0,0.0,0.0,0.0,0.0,0.0,0.0,0.0,0.0,0.0,0.0,0.0,0.0,0.0,0.0,0.0,0.0,0.0,0.0,0.0,0.0,0.0,0.0,0.0,0.0,0.0,0.0,0.0,0.0,0.0,0.0,0.0,0.0,0.0,0.0,0.0,0.0,0.0,0.0,0.0,0.0,0.0,0.0,0.0,0.0,0.0,0.0,0.0,0.0,0.0,0.0,0.0,0.0,0.0,0.0,0.0,0.0,0.0,0.0,0.0,0.0,0.0,0.0,0.0,0.0,0.0,0.0,0.0,0.0,0.0,0.0,0.0,0.0,0.0,0.0,0.0,0.0,0.0,0.0,0.0,0.0,0.0,0.0,0.0,0.0,0.0,0.0,0.0,0.0,0.0,0.0,0.0,0.0,0.0,0.0,0.0,-0.63,-0.63,-0.63,-0.6219,-0.6099,-0.606,-0.6025,0.0,0.0,0.0,0.0,0.0,0.0,0.0,0.0,0.0,0.0,0.0,0.0,0.0,0.0,0.0,0.0,0.0,0.0,0.0,0.0,0.0,0.0,0.0,0.0,0.0,0.0,0.0,0.0,0.0,0.0,0.0,0.0,0.0,0.0,0.0,0.0,0.0,0.0,0.0,0.0,0.0,0.0,0.0,0.0,0.0,0.0,0.0,0.0,0.0,0.0,0.0,0.0,0.0,0.0,0.0,0.0,0.0,0.0,0.0,0.0,0.0,0.0,0.0,0.0,0.0,0.0,0.0,0.0,0.0,0.0,0.0,0.0,0.0,0.0,0.0,0.0,0.0,0.0,0.0,0.0,0.0,0.0,0.0,0.0,0.0,0.0,0.0,0.0,0.0,0.0,0.0,0.0,0.0,0.0,0.0,0.0,0.0,0.0,0.0,0.0,0.0,0.0,0.0,0.0,0.0,0.0,0.0,0.0,-0.6606,-0.6606,-0.6528,-0.6454,-0.6451,-0.6338,-0.63,0.0,0.0,0.0,0.0,0.0,0.0,0.0,0.0,0.0,0.0,0.0,0.0,0.0,0.0,0.0,0.0,0.0,0.0,0.0,0.0,0.0,0.0,0.0,0.0,0.0,0.0,0.0,0.0,0.0,0.0,0.0,0.0,0.0,0.0,0.0,0.0,0.0,0.0,0.0,0.0,0.0,0.0,0.0,0.0,0.0,0.0,0.0,0.0,0.0,0.0,0.0,0.0,0.0,0.0,0.0,0.0,0.0,0.0,0.0,0.0,0.0,0.0,0.0,0.0,0.0,0.0,0.0,0.0,0.0,0.0,0.0,0.0,0.0,0.0,0.0,0.0,0.0,0.0,0.0,0.0,0.0,0.0,0.0,0.0,0.0,0.0,0.0,0.0,0.0,0.0,0.0,0.0,0.0,0.0,0.0,0.0,0.0,0.0,0.0,0.0,0.0,0.0,0.0,0.0,0.0,0.0,0.0,0.0,-0.8508,-0.8618,-0.7897,-0.748,-0.748,-0.6718,-0.63,0.0,0.0,0.0,0.0,0.0,0.0,0.0,0.0,0.0,0.0,0.0,0.0,0.0,0.0,0.0,0.0,0.0,0.0,0.0,0.0,0.0,0.0,0.0,0.0,0.0,0.0,0.0,0.0,0.0,0.0,0.0,0.0,0.0,0.0,0.0,0.0,0.0,0.0,0.0,0.0,0.0,0.0,0.0,0.0,0.0,0.0,0.0,0.0,-0.5204,0.0,0.0,0.0,0.0,0.0,0.0,0.0,0.0,0.0,0.0,0.0,0.0,0.0,0.0,0.0,0.0,0.0,0.0,0.0,0.0,0.0,0.0,0.0,0.0,0.0,0.0,0.0,0.0,0.0,0.0,0.0,0.0,0.0,0.0,0.0,0.0,0.0,0.0,0.0,0.0,0.0,0.0,0.0,0.0,0.0,0.0,0.0,0.0,0.0,0.0,0.0,0.0,0.0,0.0,0.0,0.0,0.0,0.0,0.0,-0.9183,-0.9296,-0.8765,-0.8504,-0.8461,-0.7514,-0.6795,0.0,0.0,0.0,0.0,0.0,0.0,0.0,0.0,0.0,0.0,0.0,0.0,0.0,0.0,0.0,0.0,0.0,0.0,0.0,0.0,0.0,0.0,0.0,0.0,0.0,0.0,0.0,0.0,0.0,0.0,0.0,0.0,0.0,0.0,0.0,0.0,0.0,0.0,0.0,0.0,0.0,0.0,0.0,0.0,0.0,0.0,0.0,0.0,0.0,0.0,0.0,0.0,0.0,0.0,0.0,0.0,0.0,0.0,0.0,0.0,0.0,0.0,0.0,0.0,0.0,0.0,0.0,0.0,0.0,0.0,0.0,0.0,0.0,0.0,0.0,0.0,0.0,0.0,0.0,0.0,0.0,0.0,0.0,0.0,0.0,0.0,0.0,0.0,0.0,0.0,0.0,0.0,0.0,0.0,0.0,0.0,0.0,0.0,0.0,0.0,0.0,0.0,0.0,0.0,0.0,0.0,0.0,-0.9712,-0.9707,-0.975,-0.9599,-0.9518,-0.9518,-0.8537,-0.7557,-0.6567,0.0,0.0,0.0,0.0,0.0,0.0,0.0,0.0,0.0,0.0,0.0,0.0,0.0,0.0,0.0,0.0,0.0,0.0,0.0,0.0,0.0,0.0,0.0,0.0,0.0,0.0,0.0,0.0,0.0,0.0,0.0,0.0,0.0,0.0,0.0,0.0,0.0,0.0,-0.63,-0.63,0.0,0.0,0.0,0.0,0.0,0.0,0.0,0.0,-0.5828,0.0,0.0,0.0,0.0,0.0,0.0,0.0,0.0,0.0,0.0,0.0,0.0,0.0,0.0,0.0,0.0,0.0,0.0,0.0,0.0,0.0,0.0,0.0,0.0,0.0,0.0,0.0,0.0,0.0,0.0,0.0,0.0,0.0,0.0,0.0,0.0,0.0,0.0,0.0,0.0,0.0,0.0,0.0,0.0,0.0,0.0,0.0,0.0,0.0,0.0,0.0,0.0,0.0,0.0,0.0,0.0,-1.1558,-1.1552,-1.1632,-1.1781,-1.0981,-1.0559,-1.0527,-0.9588,-0.8575,-0.7591,0.0,0.0,0.0,0.0,0.0,0.0,0.0,0.0,0.0,0.0,0.0,0.0,0.0,0.0,0.0,0.0,0.0,0.0,0.0,0.0,0.0,0.0,0.0,0.0,0.0,0.0,0.0,0.0,0.0,0.0,0.0,0.0,0.0,0.0,0.0,0.0,0.0,0.0,0.0,-0.63,-0.63,0.0,0.0,0.0,0.0,0.0,0.0,0.0,0.0,-0.6745,0.0,0.0,0.0,0.0,0.0,0.0,0.0,0.0,0.0,0.0,0.0,0.0,0.0,0.0,0.0,0.0,0.0,0.0,0.0,0.0,0.0,0.0,0.0,0.0,0.0,0.0,0.0,0.0,0.0,0.0,0.0,0.0,0.0,0.0,0.0,0.0,0.0,0.0,0.0,0.0,0.0,0.0,0.0,0.0,0.0,0.0,0.0,0.0,0.0,0.0,0.0,0.0,0.0,0.0,0.0,-1.215,-1.215,-1.2194,-1.2305,-1.1842,-1.1583,-1.1583,-1.0602,-0.9664,0.0,0.0,0.0,0.0,0.0,0.0,0.0,0.0,0.0,0.0,0.0,0.0,0.0,0.0,0.0,0.0,0.0,0.0,0.0,0.0,0.0,0.0,0.0,0.0,0.0,0.0,0.0,0.0,0.0,0.0,0.0,0.0,0.0,0.0,0.0,0.0,0.0,0.0,0.0,0.0,-0.7061,-0.7211,-0.7633,0.0,0.0,0.0,0.0,0.0,0.0,-0.7897,-0.7859,0.0,0.0,0.0,0.0,0.0,0.0,0.0,0.0,0.0,0.0,0.0,0.0,0.0,0.0,0.0,0.0,0.0,0.0,0.0,0.0,0.0,0.0,0.0,0.0,0.0,0.0,0.0,0.0,0.0,0.0,0.0,0.0,0.0,0.0,0.0,0.0,0.0,0.0,0.0,0.0,0.0,0.0,0.0,0.0,0.0,0.0,0.0,0.0,0.0,0.0,0.0,0.0,0.0,0.0,0.0,-1.2305,-1.2305,-1.2305,-1.2305,-1.2305,-1.2305,-1.2268,-1.1545,-1.0714,0.0,0.0,0.0,0.0,0.0,0.0,0.0,0.0,0.0,0.0,0.0,0.0,0.0,0.0,0.0,0.0,0.0,0.0,0.0,0.0,0.0,0.0,0.0,0.0,0.0,0.0,0.0,0.0,0.0,0.0,0.0,0.0,0.0,0.0,0.0,0.0,0.0,0.0,0.0,0.0,0.0,-0.8046,-0.8694,-0.8428,0.0,0.0,0.0,0.0,-0.8985,-0.9066,0.0,0.0,0.0,0.0,0.0,0.0,0.0,0.0,0.0,0.0,0.0,0.0,0.0,0.0,0.0,0.0,0.0,0.0,0.0,0.0,0.0,0.0,0.0,0.0,0.0,0.0,0.0,0.0,0.0,0.0,0.0,0.0,0.0,0.0,0.0,0.0,0.0,0.0,0.0,0.0,0.0,0.0,0.0,0.0,0.0,0.0,0.0,0.0,0.0,0.0,0.0,0.0,0.0,0.0,0.0,0.0,-1.2305,-1.2305,-1.2305,-1.2305,-1.2305,-1.2305,-1.2305,-1.2187,-1.1657,0.0,0.0,0.0,0.0,0.0,0.0,0.0,0.0,0.0,0.0,0.0,0.0,0.0,0.0,0.0,0.0,0.0,0.0,0.0,0.0,0.0,0.0,0.0,0.0,0.0,0.0,0.0,0.0,0.0,0.0,0.0,0.0,0.0,0.0,0.0,0.0,0.0,0.0,0.0,0.0,0.0,-0.7897,-0.8161,-0.8732,-0.915,0.0,0.0,-1.0198,-1.0346,-1.0379,0.0,0.0,0.0,0.0,0.0,0.0,0.0,0.0,0.0,0.0,0.0,0.0,0.0,0.0,0.0,0.0,0.0,0.0,0.0,0.0,0.0,0.0,0.0,0.0,0.0,0.0,0.0,0.0,0.0,0.0,0.0,0.0,0.0,0.0,0.0,0.0,0.0,0.0,0.0,0.0,0.0,0.0,0.0,0.0,0.0,0.0,0.0,0.0,0.0,0.0,0.0,0.0,0.0,0.0,0.0,-1.3955,-1.3933,-1.369,-1.3563,-1.3525,-1.3042,-1.2812,-1.2819,-1.2819,-1.2305,0.0,0.0,0.0,0.0,0.0,0.0,0.0,0.0,0.0,0.0,0.0,0.0,0.0,0.0,0.0,0.0,0.0,0.0,0.0,0.0,0.0,0.0,0.0,0.0,0.0,0.0,0.0,0.0,0.0,0.0,0.0,0.0,0.0,0.0,0.0,0.0,0.0,0.0,0.0,0.0,0.0,0.0,-1.0228,-1.0233,0.0,0.0,0.0,-1.0964,-1.1624,0.0,0.0,0.0,0.0,0.0,0.0,0.0,0.0,0.0,0.0,0.0,0.0,0.0,0.0,0.0,0.0,0.0,0.0,0.0,0.0,0.0,0.0,0.0,0.0,0.0,0.0,0.0,0.0,0.0,0.0,0.0,0.0,0.0,0.0,0.0,0.0,0.0,0.0,0.0,0.0,0.0,0.0,0.0,0.0,0.0,0.0,0.0,0.0,0.0,0.0,0.0,0.0,0.0,0.0,0.0,0.0,0.0,-1.5359,-1.4996,-1.4817,-1.4817,-1.4209,-1.3745,-1.3555,-1.3516,0.0,0.0,0.0,0.0,0.0,0.0,0.0,0.0,0.0,0.0,0.0,0.0,0.0,0.0,0.0,0.0,0.0,0.0,0.0,0.0,0.0,0.0,0.0,0.0,0.0,0.0,0.0,-0.941,0.0,0.0,0.0,0.0,0.0,0.0,0.0,0.0,0.0,0.0,0.0,0.0,0.0,0.0,-1.1176,-1.1904,-1.1645,-1.1644,0.0,0.0,-1.1787,-1.2628,-1.28,-1.2779,0.0,0.0,0.0,0.0,0.0,0.0,0.0,0.0,0.0,0.0,0.0,0.0,0.0,0.0,0.0,0.0,0.0,0.0,0.0,0.0,0.0,0.0,0.0,0.0,0.0,0.0,0.0,0.0,0.0,0.0,0.0,0.0,0.0,0.0,0.0,0.0,0.0,0.0,0.0,0.0,0.0,0.0,0.0,0.0,0.0,0.0,0.0,0.0,0.0,0.0,0.0,0.0,0.0,0.0,0.0,-1.5779,-1.5718,-1.5742,-1.5696,-1.565,-1.5235,-1.4443,-1.4397,-1.4013,0.0,0.0,0.0,0.0,0.0,0.0,0.0,0.0,0.0,0.0,0.0,0.0,0.0,0.0,0.0,0.0,0.0,0.0,0.0,0.0,0.0,0.0,0.0,0.0,0.0,0.0,0.0,0.0,0.0,0.0,0.0,0.0,0.0,0.0,0.0,0.0,0.0,0.0,0.0,0.0,0.0,-1.137,-1.1936,-1.258,-1.3074,0.0,0.0,-1.3081,-1.3241,-1.324,-1.3289,-1.3338,0.0,0.0,0.0,0.0,0.0,0.0,0.0,0.0,0.0,0.0,0.0,0.0,0.0,0.0,0.0,0.0,0.0,0.0,0.0,0.0,0.0,0.0,0.0,0.0,0.0,0.0,0.0,0.0,0.0,0.0,0.0,0.0,0.0,0.0,0.0,0.0,0.0,0.0,0.0,0.0,0.0,0.0,0.0,0.0,0.0,0.0,0.0,0.0,0.0,0.0,0.0,0.0,0.0,-1.7964,-1.7964,-1.7683,-1.7521,-1.7482,-1.6882,-1.6405,-1.6046,-1.5893,-1.5608,0.0,0.0,0.0,0.0,0.0,0.0,0.0,0.0,0.0,0.0,0.0,0.0,0.0,0.0,0.0,0.0,0.0,0.0,0.0,0.0,0.0,0.0,0.0,0.0,0.0,0.0,0.0,0.0,-1.1248,-1.1248,-1.1248,0.0,0.0,0.0,0.0,0.0,0.0,0.0,0.0,0.0,0.0,-1.2516,-1.2705,-1.3008,0.0,0.0,-1.3433,-1.354,-1.3785,-1.3789,-1.3781,-1.3808,-1.3828,0.0,0.0,0.0,0.0,0.0,0.0,0.0,0.0,0.0,0.0,0.0,0.0,0.0,0.0,0.0,0.0,0.0,0.0,0.0,0.0,0.0,0.0,0.0,0.0,0.0,0.0,0.0,0.0,0.0,0.0,0.0,0.0,0.0,0.0,0.0,0.0,0.0,0.0,0.0,0.0,0.0,0.0,0.0,0.0,0.0,0.0,0.0,0.0,0.0,0.0,0.0,0.0,-1.9486,-1.9486,-1.9146,-1.9006,-1.9006,-1.827,-1.7738,-1.7496,-1.7342,-1.7025,0.0,0.0,0.0,0.0,0.0,0.0,0.0,0.0,0.0,0.0,0.0,0.0,0.0,0.0,0.0,0.0,0.0,0.0,0.0,0.0,0.0,0.0,0.0,0.0,0.0,0.0,0.0,0.0,-1.2644,-1.2841,-1.2841,0.0,0.0,0.0,0.0,0.0,0.0,0.0,0.0,0.0,0.0,-1.3992,-1.4355,-1.417,-1.4012,-1.4179,-1.3974,-1.3931,-1.442,-1.4503,-1.458,-1.4824,0.0,0.0,0.0,0.0,0.0,0.0,0.0,0.0,0.0,0.0,0.0,0.0,0.0,0.0,0.0,0.0,0.0,0.0,0.0,0.0,0.0,0.0,0.0,0.0,0.0,0.0,0.0,0.0,0.0,0.0,0.0,0.0,0.0,0.0,0.0,0.0,0.0,0.0,0.0,0.0,0.0,0.0,0.0,0.0,0.0,0.0,0.0,0.0,0.0,0.0,0.0,0.0,0.0,-1.9923,-1.9893,-1.9893,-1.9902,-1.9854,-1.9814,-1.942,-1.8598,-1.8559,-1.806,-1.7058,0.0,0.0,0.0,0.0,0.0,0.0,0.0,0.0,0.0,0.0,0.0,0.0,0.0,0.0,0.0,0.0,0.0,0.0,0.0,0.0,0.0,0.0,0.0,0.0,0.0,0.0,-1.2388,-1.3346,-1.4066,0.0,0.0,0.0,0.0,0.0,0.0,0.0,0.0,0.0,0.0,-1.5793,-1.5717,-1.696,-1.6283,-1.5617,-1.564,-1.4796,-1.4405,-1.5269,-1.5401,-1.5677,0.0,0.0,0.0,0.0,0.0,0.0,0.0,0.0,0.0,0.0,0.0,0.0,0.0,0.0,0.0,0.0,0.0,0.0,0.0,0.0,0.0,0.0,0.0,0.0,0.0,0.0,0.0,-2.1385,-2.1395,0.0,0.0,0.0,0.0,0.0,0.0,0.0,0.0,0.0,0.0,0.0,-2.2995,-2.2995,0.0,0.0,0.0,0.0,0.0,0.0,0.0,0.0,0.0,0.0,0.0,0.0,-2.0895,-2.0401,-2.0885,-2.0885,-2.0372,-2.0225,-2.002,-1.9736,-1.9539,-1.9045,-1.8101,0.0,0.0,0.0,0.0,0.0,0.0,0.0,0.0,0.0,0.0,0.0,0.0,0.0,0.0,0.0,0.0,0.0,0.0,0.0,0.0,0.0,0.0,0.0,0.0,0.0,-1.324,0.0,0.0,0.0,0.0,0.0,0.0,0.0,0.0,0.0,0.0,0.0,-1.5937,-1.6725,-1.6717,-1.679,-1.7245,-1.7017,-1.6764,0.0,0.0,0.0,0.0,0.0,0.0,0.0,0.0,0.0,0.0,0.0,0.0,0.0,0.0,-1.812,-1.7573,-1.7438,-1.7369,-1.7049,0.0,0.0,0.0,0.0,0.0,0.0,0.0,0.0,0.0,0.0,0.0,0.0,0.0,0.0,0.0,0.0,-2.2209,0.0,0.0,0.0,0.0,0.0,0.0,0.0,0.0,-2.3155,-2.3574,-2.4336,-2.4374,-2.4374,0.0,-2.4374,-2.3861,0.0,0.0,0.0,0.0,0.0,0.0,0.0,0.0,-2.1945,-2.1499,-2.1945,-2.1945,-2.1423,-2.1021,-2.0828,-2.0789,-2.0333,-1.9784,-1.9204,-1.8669,-1.8141,0.0,0.0,0.0,0.0,0.0,0.0,0.0,0.0,0.0,0.0,0.0,0.0,0.0,0.0,0.0,0.0,0.0,0.0,0.0,0.0,0.0,0.0,0.0,-1.4472,0.0,0.0,0.0,0.0,0.0,0.0,0.0,0.0,0.0,-1.6136,-1.6591,-1.7288,-1.7996,-1.7977,-1.8029,-1.8381,0.0,0.0,0.0,0.0,0.0,0.0,0.0,-1.8499,-1.8793,-1.8956,-1.9076,-1.9221,-1.9384,-1.973,-2.0554,0.0,0.0,-1.9213,-1.9001,-1.8889,-1.8595,-1.8385,-1.8328,-1.8494,-1.827,-1.8176,0.0,0.0,0.0,0.0,0.0,0.0,0.0,0.0,-2.3097,-2.3097,0.0,-2.3108,0.0,0.0,0.0,0.0,0.0,0.0,0.0,0.0,-2.5635,-2.613,-2.6836,-2.6824,-2.6885,-2.6885,-2.6836,-2.62,-2.4952,-2.3743,0.0,0.0,0.0,0.0,0.0,0.0,-2.3032,-2.299,-2.3016,-2.3054,-2.3023,-2.23,-2.1894,-2.1828,-2.0926,-2.04,-2.0293,-1.9271,-1.8696,-1.8638,-1.7698,0.0,0.0,0.0,0.0,0.0,0.0,0.0,0.0,0.0,0.0,0.0,0.0,0.0,0.0,0.0,0.0,0.0,0.0,0.0,0.0,-1.5666,0.0,0.0,0.0,0.0,0.0,0.0,0.0,0.0,0.0,0.0,-1.8404,-1.7797,-1.8109,-2.001,0.0,0.0,0.0,0.0,-1.9217,-1.963,-1.882,-1.8565,-1.9771,-1.9969,-2.0241,-2.1066,0.0,0.0,-2.1736,-2.2133,-2.2325,-2.2388,-2.2325,-2.2264,-2.1758,-2.0908,-2.0367,-2.0277,-1.9588,-1.8972,-1.8926,-1.9072,-1.9042,-2.4255,0.0,0.0,0.0,0.0,-2.3723,-2.4178,-2.4918,-2.4918,-2.4956,-2.4907,-2.4918,0.0,0.0,0.0,0.0,0.0,0.0,-2.5105,-2.6156,-2.5992,-2.6335,-2.7099,-2.7099,-2.7099,-2.7136,-2.7099,-2.7002,-2.6734,-2.6231,-2.5004,-2.3043,0.0,0.0,0.0,0.0,-2.3694,-2.353,-2.4052,-2.4269,-2.4062,-2.3818,-2.3399,-2.2829,-2.251,-2.194,-2.0975,-2.0507,-2.0116,-1.9843,-1.9332,0.0,0.0,0.0,0.0,0.0,0.0,0.0,0.0,0.0,0.0,0.0,0.0,0.0,0.0,0.0,0.0,0.0,0.0,0.0,-1.6629,-1.7948,-1.859,0.0,0.0,0.0,0.0,0.0,0.0,0.0,0.0,0.0,-1.9965,-1.9759,-1.9883,0.0,0.0,-2.0676,-2.0965,-2.1047,-2.1084,-2.1199,0.0,0.0,0.0,-2.1438,-2.1636,-2.1859,-2.1969,-2.2076,-2.2199,-2.2312,-2.2397,-2.2397,-2.2397,-2.2353,-2.222,-2.1856,-2.1553,-2.1311,-2.1042,-2.0862,-2.0871,-2.1065,-2.1313,-2.6765,-2.6209,-2.4987,-2.4742,-2.5093,-2.5027,-2.5492,-2.6282,-2.6282,-2.6358,-2.6411,-2.6422,-2.6262,-2.6035,-2.623,0.0,0.0,0.0,-2.6765,-2.7447,-2.7308,-2.7474,-2.7919,-2.7957,-2.7957,-2.7957,-2.7957,-2.7911,-2.7815,-2.7715,-2.6617,-2.4714,0.0,0.0,-2.4554,-2.5011,-2.515,-2.5013,-2.5451,-2.5625,-2.5454,-2.5144,-2.4568,-2.3724,-2.3735,-2.3328,-2.255,-2.24,-2.2039,-2.1481,-2.1214,-2.0935,0.0,0.0,0.0,0.0,0.0,0.0,0.0,0.0,0.0,0.0,0.0,-1.7009,0.0,0.0,0.0,0.0,-1.7658,-1.8149,-1.859,-1.949,0.0,0.0,0.0,0.0,0.0,0.0,0.0,-2.0771,-2.1066,-2.1321,-2.1599,-2.1963,-2.1813,-2.0968,-2.1211,-2.1494,-2.1494,0.0,-2.2099,-2.2579,-2.265,-2.271,-2.289,-2.3046,-2.2978,-2.2591,-2.2809,-2.2945,-2.2955,-2.3079,-2.3194,-2.3194,-2.3204,-2.3149,-2.3069,-2.2979,-2.2751,-2.2376,-2.237,-2.2472,-2.2481,-2.2667,-2.2843,-2.9131,-2.8888,-2.6085,-2.5412,-2.6223,-2.6055,-2.6488,-2.7332,-2.7332,-2.747,-2.7644,-2.7644,-2.7901,-2.8379,-2.8858,0.0,-2.9131,-2.9131,-2.9079,-2.9182,-2.9131,-2.9131,-2.9131,-2.9118,-2.9131,-2.9118,-2.9131,-2.8885,-2.8444,-2.8393,-2.8059,-2.737,-2.7156,-2.7019,-2.6947,-2.6911,-2.6947,-2.6995,-2.6958,-2.697,-2.7018,-2.6297,-2.554,-2.4768,-2.4706,-2.4656,-2.4572,-2.4533,-2.4165,-2.3344,-2.3122,-2.2625,-2.1775,0.0,0.0,0.0,0.0,0.0,0.0,0.0,0.0,0.0,0.0,0.0,0.0,0.0,0.0,0.0,-1.855,0.0,-2.0644,-2.0654,0.0,0.0,0.0,-2.0635,-2.0635,-2.082,-2.1056,-2.1431,0.0,0.0,0.0,0.0,-2.3816,-2.178,-2.1874,-2.2172,-2.2182,-2.2263,-2.264,-2.3815,-2.3981,-2.4106,-2.4554,-2.471,-2.4514,-2.3797,-2.3797,-2.4167,-2.4207,-2.442,-2.4641,-2.4667,-2.467,-2.4615,-2.4404,-2.4394,-2.4125,-2.3566,-2.3518,-2.3653,-2.3625,-2.3672,-2.3682,-2.93,-2.9534,-2.8445,-2.8129,-2.8375,-2.8309,-2.8426,-2.8633,-2.866,-2.866,-2.8737,-2.8725,-2.8772,-2.8907,-2.903,-2.9197,-2.9314,-2.9157,-2.93,-2.9624,-2.9431,-2.9302,-2.9341,-2.9302,-2.9341,-2.9341,-2.9314,-2.9369,-2.9437,-2.9245,-2.9054,-2.8879,-2.866,-2.8102,-2.7172,-2.7124,-2.733,-2.7742,-2.7563,-2.769,-2.8086,-2.7929,-2.743,-2.6575,-2.6575,-2.606,-2.5099,-2.5037,-2.4781,-2.4234,-2.4151,-2.4032,-2.3793,-2.3122,0.0,0.0,0.0,0.0,0.0,0.0,0.0,0.0,0.0,-1.9944,-1.9832,0.0,-1.9962,0.0,-2.0527,-2.1401,-2.2039,-2.2583,0.0,0.0,-2.3502,-2.3502,-2.3513,-2.3542,-2.3624,-2.3702,-2.3921,-2.4082,-2.4191,-2.4676,-2.4832,-2.432,-2.4365,-2.4429,-2.4399,-2.4708,-2.4943,-2.5248,-2.5333,-2.5495,-2.6033,-2.6476,-2.6573,-2.643,-2.6439,-2.6558,-2.6514,-2.6599,-2.6674,-2.6674,-2.6674,-2.6674,-2.6562,-2.6285,-2.5998,-2.5701,-2.47,-2.3728,-2.3728,-2.3937,-2.4174,-2.9546,-2.9792,-2.9495,-2.9417,-2.9417,-2.9182,-2.9131,-2.9236,-2.9236,-2.9287,-2.9429,-2.9417,-2.9429,-2.9417,-2.9417,-2.9456,-2.956,-2.9456,-2.9546,-2.9792,-2.9663,-2.9599,-2.956,-2.9573,-2.956,-2.9548,-2.9573,-2.965,-2.9792,-2.9663,-2.9509,-2.938,-2.9404,-2.8991,-2.8195,-2.8107,-2.8112,-2.821,-2.8105,-2.821,-2.8498,-2.851,-2.8259,-2.7805,-2.7805,-2.7411,-2.6691,-2.6668,-2.6371,-2.575,-2.5688,-2.5487,-2.5073,-2.4626,-2.4555,0.0,0.0,0.0,0.0,0.0,0.0,0.0,0.0,0.0,0.0,0.0,-2.2298,0.0,-2.2678,-2.3133,-2.3399,-2.379,-2.4171,-2.4445,-2.4517,-2.4517,-2.4517,-2.4517,-2.4605,-2.4774,-2.5165,-2.5481,-2.5705,-2.6256,-2.668,-2.668,-2.6863,-2.6635,-2.573,-2.5841,-2.6315,-2.6705,-2.6967,-2.7245,-2.7525,-2.7479,-2.7393,-2.7404,-2.7568,-2.7711,-2.7711,-2.7887,-2.7984,-2.7973,-2.7984,-2.7973,-2.7995,-2.7761,-2.7551,-2.738,-2.6703,-2.5675,-2.4811,-2.5138,-2.5533,-2.9779,-2.9779,-2.9779,-2.9779,-2.9753,-2.9378,-2.9275,-2.9457,-2.947,-2.956,-2.9779,-2.9779,-2.9779,-2.9779,-2.9779,-2.9779,-2.9779,-2.9779,-2.9779,-2.9779,-2.9779,-2.9779,-2.9779,-2.9779,-2.9779,-2.9779,-2.9779,-2.9856,-2.9934,-2.9921,-2.987,-2.9755,-2.9985,-2.9947,-2.9716,-2.9574,-2.9197,-2.859,-2.855,-2.855,-2.855,-2.8498,-2.851,-2.851,-2.851,-2.851,-2.851,-2.851,-2.8139,-2.7429,-2.7336,-2.701,-2.6205,-2.6027,-2.6038,0.0,-2.5955,0.0,0.0,0.0,0.0,0.0,0.0,0.0,0.0,-2.4511,-2.4517,-2.4517,-2.4585,-2.4657,-2.4752,-2.4842,-2.4943,-2.5009,-2.502,-2.502,-2.502,-2.502,-2.5147,-2.5569,-2.6308,-2.6903,-2.7285,-2.8106,-2.8567,-2.8522,-2.8918,-2.8557,-2.6914,-2.6886,-2.7451,-2.8161,-2.8657,-2.8842,-2.8846,-2.8298,-2.7831,-2.7876,-2.8176,-2.8332,-2.8422,-2.8655,-2.8886,-2.8976,-2.9034,-2.9044,-2.9063,-2.9028,-2.889,-2.8868,-2.8604,-2.7964,-2.6635,-2.672,-2.7057,-2.9779,-2.9779,-2.9779,-2.9779,-2.9792,-2.9714,-2.9702,-2.974,-2.974,-2.974,-2.9779,-2.9779,-2.9779,-2.9779,-2.9779,-2.9779,-2.9779,-2.9779,-2.9779,-2.9779,-2.9779,-2.9779,-2.9779,-2.9779,-2.9779,-2.9779,-2.9779,-3.0101,-3.0683,-3.0683,-3.102,-3.1599,-3.1663,-3.1576,-3.1341,0.0,0.0,0.0,-2.8803,-2.8764,-2.8764,-2.8578,-2.851,-2.851,-2.851,0.0,-2.851,-2.851,-2.8431,-2.8271,-2.8259,0.0,0.0,0.0,0.0,0.0,0.0,0.0,0.0,0.0,0.0,0.0,-2.6944,-2.6017,-2.5143,-2.4697,-2.4517,-2.4517,-2.5105,-2.5675,-2.6074,-2.671,-2.725,-2.7703,-2.7751,-2.7751,-2.7751,-2.7711,-2.781,-2.7853,-2.8024,-2.814,-2.8231,-2.879,-2.9148,-2.9172,-2.9605,-2.9744,-2.9314,-2.9235,-2.9474,-2.969,-2.9755,-2.9833,-2.9863,-2.9687,-2.9522,-2.9621,-2.9645,-2.9702,-2.9718,-2.9742,-3.0009,-3.0319,-3.0477,-3.0599,-3.0977,-3.0498,-2.9932,-2.9932,-2.9292,-2.8577,-2.8215,-2.8272,-2.8355,-2.9779,0.0,-2.9779,-2.9779,0.0,-2.9779,-2.9779,-2.9779,-2.9779,-2.9779,-2.9779,-2.9779,-2.9779,-2.9779,-2.9779,-2.9779,-2.9779,-2.9779,-2.9779,-2.9779,-2.9779,-2.9779,-2.9779,-2.9779,-2.9942,-3.0193,-3.0206,-3.0725,-3.1744,-3.1783,-3.2203,-3.3016,-3.303,-3.2979,-3.2881,-3.2993,-3.2174,-3.0431,-2.9858,-2.9484,-2.9394,-2.8922,-2.8578,-2.851,0.0,0.0,0.0,0.0,0.0,0.0,0.0,0.0,0.0,0.0,0.0,-2.8471,-2.762,-2.7539,-2.8391,-2.762,-2.7539,-2.8419,-2.8099,-2.7579,-2.6846,-2.6593,-2.6484,-2.6495,-2.685,-2.7203,-2.745,-2.7866,-2.8222,-2.8474,-2.851,-2.851,-2.851,-2.851,-2.851,-2.8546,-2.8739,-2.8895,-2.8907,-2.9364,-2.9677,-2.9713,-3.0134,-3.0482,-3.0446,-3.0242,-3.017,-3.0422,-3.0525,-3.0579,-3.0807,-3.091,-3.0886,-3.091,-3.091,-3.091,-3.091,-3.091,-3.1019,-3.1259,-3.1308,-3.1416,-3.1577,-3.1282,-3.0958,-3.0949,-3.0763,-3.0606,-3.0549,-2.9976,-2.928,-3.0302,-3.0302,-3.0146,-3.008,-3.008,-3.0068,-3.008,-3.0068,0.0,0.0,0.0,-2.9779,-2.9779,-2.9779,-2.9779,-2.9779,-2.9792,-2.9892,-2.9942,-2.9942,-3.0043,-3.008,-3.0068,-3.008,-3.0306,-3.0746,-3.0905,-3.1625,-3.2896,-3.3066,-3.3557,-3.4345,-3.4382,-3.4434,-3.442,-3.442,-3.3826,-3.26,-3.1459,-3.0829,-3.0663,-2.998,-2.9455,-2.9135,-2.9026,-2.891,-2.8683,-2.8598,-2.8538,-2.851,-2.851,-2.851,-2.851,-2.851,-2.851,-2.851,-2.851,-2.851,-2.851,-2.851,-2.851,-2.851,-2.851,-2.851,-2.851,-2.851,-2.851,-2.851,-2.851,-2.851,-2.851,-2.851,-2.851,-2.851,-2.851,-2.8546,-2.8643,-2.8643,-2.8715,-2.8811,-2.9196,-2.9436,-2.946,-2.9893,-3.023,-3.029,-3.0718,-3.0995,-3.091,-3.0627,-3.0603,-3.0983,-3.0958,-3.1043,-3.1392,-3.1344,-3.144,-3.1247,-3.132,-3.1428,-3.1428,-3.1428,-3.1464,-3.1464,-3.1621,-3.1741,-3.1837,-3.1949,-3.1982,-3.1994,-3.231,-3.2635,-3.2541,-3.1661,-3.0606,-3.228,-3.2214,-3.1483,-3.1173,-3.116,-3.116,-3.116,-3.1085,-3.0193,-2.9792,-2.9779,-2.9779,-2.9779,-2.9779,-2.9779,-2.9779,-2.9817,-3.0294,-3.0495,0.0,-3.0947,-3.1173,-3.1173,-3.1173,-3.121,-3.1354,-3.2066,-3.2843,-3.3725,-3.4461,-3.5243,-3.5906,-3.5964,-3.5978,-3.5985,-3.5964,-3.5877,-3.5633,-3.4046,-3.3212,-3.3173,-3.2917,-3.2372,-3.162,-3.1056,-3.0355,-2.9472,-2.9059,-2.8697,-2.851,-2.851,-2.851,-2.851,-2.8522,-2.851,-2.851,-2.851,-2.851,-2.851,-2.851,-2.851,-2.851,-2.851,-2.851,-2.851,-2.851,-2.851,-2.851,-2.851,-2.851,-2.851,-2.8522,-2.8546,-2.8534,-2.8522,-2.8679,-2.9124,-2.9196,-2.9381,-2.982,-2.9917,-3.0019,-3.0097,-3.0519,-3.0888,-3.0874,-3.1317,-3.1472,-3.1202,-3.1259,-3.1488,-3.1512,-3.1199,-3.0951,-3.1048,-3.0603,-3.0543,-3.0302,-3.0446,-3.0591,-3.0651,-3.0651,-3.0783,-3.1031,-3.156,-3.1934,-3.2298,-3.2767,-3.2911,-3.2947,-3.308,-3.3176,-3.3176,-3.2895,-3.2708,-3.3403,-3.335,-3.2974,-3.2554,-3.2102,-3.2089,-3.2089,-3.213,-3.2084,-3.1526,-3.0698,-3.0658,-3.0658,-3.0658,-3.0658,-3.0658,-3.067,-3.0922,-3.1035,-3.1087,-3.1745,-3.1873,-3.1508,-3.2355,-3.271,-3.262,-3.345,-3.4438,-3.5477,-3.5941,-3.6523,-3.7295,-3.7346,-3.7331,-3.7331,-3.7331,-3.7346,-3.728,-3.5456,-3.4434,-3.4307,-3.3813,-3.3312,-3.2804,-3.2528,-3.2124,-3.1519,-3.1263,-3.1018,-3.0846,-3.0341,-3.0047,-3.0047,-2.9359,-2.8931,-2.8931,-2.908,-2.8961,-2.851,-2.8922,-2.9328,-2.9768,-2.9819,-2.9819,-2.9807,-2.8988,-2.851,-2.851,-2.851,-2.851,-2.8522,-2.8763,-2.8931,-2.8943,-2.9172,-2.946,-2.9665,-2.9725,-3.0017,-3.0692,-3.1058,-3.123,-3.123,-3.1711,-3.2031,-3.2068,-3.229,-3.229,-3.2025,-3.1819,-3.1597,-3.1276,-3.1079,-3.1048,-3.1259,-3.1163,-3.1007,-3.0995,-3.0983,-3.1084,-3.13,-3.1396,-3.1601,-3.2058,-3.2394,-3.2656,-3.2911,-3.3104,-3.326,-3.332,-3.3549,-3.3657,-3.3705,-3.3897,-3.4018,-3.4629,-3.4643,-3.4476,-3.4012,-3.345,-3.3476,-3.3476,-3.3476,-3.4206,-3.3725,-3.2531,-3.2164,-3.2008,-3.2008,-3.1968,-3.1996,-3.1994,-3.1919,-3.197,-3.2213,-3.2813,-3.2825,-3.2502,-3.3791,-3.4215,-3.4085,-3.4857,-3.5864,-3.6802,-3.7092,-3.7529,-3.8165,-3.8202,-3.8202,-3.8202,-3.8202,-3.8202,-3.8107,-3.6662,-3.5778,-3.555,-3.5024,-3.4566,-3.4219,-3.4097,-3.3836,-3.3434,-3.3288,-3.313,-3.287,-3.2183,-3.1794,-3.1688,-3.0689,-3.0102,-3.0105,-3.0279,-3.0119,-2.9594,-3.0041,-3.065,-3.1274,-3.1325,-3.1325,-3.1224,-3.0185,-2.9374,-2.9275,-2.9354,-2.9352,-2.9616,-2.9884,-3.0102,-3.0126,-3.0458,-3.0811,-3.0864,-3.0859,-3.1158,-3.1959,-3.2409,-3.2675,-3.2751,-3.3043,-3.3229,-3.3242,-3.328,-3.3322,-3.3237,-3.2661,-3.213,-3.173,-3.1381,-3.1247,-3.1645,-3.1681,-3.1717,-3.1837,-3.1874,-3.2046,-3.2418,-3.2635,-3.2779,-3.3104,-3.3332,-3.3404,-3.3452,-3.3609,-3.3693,-3.3777,-3.4018,-3.4174,-3.4186,-3.4438,-3.4679,-3.6623,-3.6521,-3.6006,-3.5691,-3.5597,-3.5782,-3.5742,-3.5611,-3.5888,-3.5928,-3.5566,-3.4351,-3.3763,-3.3761,-3.3763,-3.3752,-3.3715,-3.3449,-3.3686,-3.4325,-3.4307,-3.4559,-3.5076,-3.5385,-3.5453,-3.548,-3.6249,-3.6746,-3.7014,-3.7682,-3.8113,-3.8202,-3.8202,-3.8202,-3.8202,-3.8202,-3.8202,-3.8202,-3.8011,-3.7916,-3.7901,-3.7826,-3.7382,-3.6584,-3.6091,-3.5377,-3.4495,-3.3917,-3.348,-3.3091,-3.3053,-3.2883,-3.2686,-3.2515,-3.2476,-3.2436,-3.245,-3.2476,-3.2384,-3.2476,-3.2502,-3.2633,-3.2659,-3.2646,-3.2659,-3.2476,-3.215,-3.1668,-3.1487,-3.1604,-3.2306,-3.2358,-3.2278,-3.2198,-3.2381,-3.2697,-3.299,-3.3216,-3.3398,-3.3986,-3.3986,-3.4103,-3.4051,-3.4129,-3.4181,-3.4194,-3.4181,-3.4194,-3.4181,-3.393,-3.3856,-3.3585,-3.2746,-3.1809,-3.1842,-3.1717,-3.2014,-3.2355,-3.243,-3.2671,-3.3032,-3.3212,-3.3272,-3.3549,-3.3729,-3.391,-3.4018,-3.427,-3.4595,-3.4463,-3.4583,-3.4667,-3.4691,-3.4727,-3.4703,-3.7848,-3.7834,-3.7691,-3.7319,-3.6894,-3.6944,-3.6905,-3.688,-3.7496,-3.7738,-3.7681,-3.708,-3.6273,-3.5299,-3.5157,-3.5131,-3.5106,-3.4834,-3.4942,-3.5315,-3.5667,-3.5776,-3.5709,-3.6699,-3.6908,-3.6478,-3.7246,-3.7682,-3.772,-3.8052,-3.8202,-3.8202,-3.8202,-3.8202,-3.8202,-3.8202,-3.8202,-3.8202,-3.8202,-3.8202,-3.8202,-3.8202,-3.8037,-3.7706,-3.7476,-3.712,-3.6581,-3.628,-3.6039,-3.577,-3.5276,-3.4883,-3.4685,-3.3927,-3.337,-3.3224,-3.2962,-3.3235,-3.4159,-3.3763,-3.37,-3.4159,-3.421,-3.421,-3.421,-3.421,-3.421,-3.4192,-3.3165,-3.2515,-3.2843,-3.304,-3.3197,-3.3236,-3.3498,-3.3786,-3.3955,-3.3994,-3.429,-3.4966,-3.5102,-3.5115,-3.5115,-3.5115,-3.5115,-3.5115,-3.5115,-3.5156,-3.5115,-3.4678,-3.4504,-3.4708,-3.4204,-3.3626,-3.3126,-3.2963,-3.3011,-3.2962,-3.2959,-3.3152,-3.3573,-3.3729,-3.3813,-3.4102,-3.4306,-3.4402,-3.445,-3.457,-3.4775,-3.4775,-3.4775,-3.4775,-3.4775,-3.4775,-3.4775,-3.859,-3.8627,-3.8797,-3.8509,-3.7942,-3.7994,-3.7994,-3.8032,-3.8671,-3.898,-3.8958,-3.898,-3.8294,-3.7175,-3.6788,-3.6685,-3.6646,-3.6292,-3.6253,-3.6489,-3.6855,-3.6766,-3.6543,-3.7591,-3.7886,-3.7453,-3.7886,-3.8202,-3.8202,-3.8202,-3.8202,-3.8202,-3.8202,-3.8202,-3.8202,-3.8202,-3.8202,-3.8202,-3.8202,-3.8202,-3.8202,-3.8202,-3.8202,-3.8202,-3.8202,-3.8142,-3.8005,-3.8005,-3.7877,-3.7649,-3.7081,-3.6624,-3.6413,-3.5447,-3.4806,-3.4553,-3.4244,-3.4483,-3.562,-3.5138,-3.51,-3.5681,-3.5733,-3.5695,-3.577,-3.5733,-3.5892,-3.6101,-3.4872,-3.4042,-3.3991,-3.4259,-3.4447,-3.4487,-3.4834,-3.502,-3.5088,-3.5047,-3.5332,-3.595,-3.603,-3.607,-3.607,-3.607,-3.603,-3.6044,-3.6044,-3.618,-3.6195,-3.5805,-3.5611,-3.6131,-3.6293,-3.5742,-3.4763,-3.4457,-3.4336,-3.4305,-3.4287,-3.4159,-3.4446,-3.446,-3.4222,-3.4499,-3.4691,-3.4751,-3.4667,-3.4727,-3.4775,-3.4775,-3.4787,-3.4799,-3.4775,-3.4859,-3.504,-3.8782,-3.8819,-3.9031,-3.9068,-3.9031,-3.9192,-3.9192,-3.8943,-3.9265,-3.9337,-3.9337,-3.9352,-3.9301,-3.9104,-3.8671,-3.8634,-3.8509,-3.7753,-3.7753,-3.8308,-3.7639,-3.7615,-3.8315,-3.8277,-3.8165,-3.8052,-3.8127,-3.8202,-3.8202,-3.8202,-3.8202,-3.8202,-3.8202,-3.8202,-3.8202,-3.8202,-3.8202,-3.8202,-3.8202,-3.8202,-3.8202,-3.8202,-3.8202,-3.8202,-3.8202,-3.8202,-3.8165,-3.8165,-3.8089,-3.7891,-3.7815,-3.7701,-3.7534,-3.7376,-3.7179,-3.7011,-3.6996,-3.693,-3.6863,-3.6757,-3.6849,-3.707,-3.6908,-3.693,-3.6957,-3.6841,-3.6806,-3.6908,-3.664,-3.6521,-3.6482,-3.635,-3.6526,-3.6579,-3.6727,-3.673,-3.6769,-3.6598,-3.6861,-3.6861,-3.6822,-3.6783,-3.6861,-3.6954,-3.6889,-3.6917,-3.6943,-3.71,-3.7538,-3.765,-3.7848,-3.8295,-3.8435,-3.8117,-3.6552,-3.6062,-3.6266,-3.6193,-3.5734,-3.5571,-3.5583,-3.5547,-3.5174,-3.4884,-3.4993,-3.5005,-3.486,-3.4775,-3.4775,-3.4799,-3.4919,-3.4931,-3.4967,-3.5328,-3.5509,-3.9053,-3.9177,-3.9265,-3.9301,-3.9301,-3.9373,-3.9352,-3.9301,-3.9373,-3.9388,-3.9388,-3.9388,-3.9388,-3.9388,-3.9265,-3.9104,-3.8943,-3.8546,-3.8494,-3.8745,-3.8383,-3.8323,-3.8427,-3.8441,-3.8329,-3.8202,-3.8202,-3.8202,-3.8202,-3.8202,-3.8202,-3.8202,-3.8202,-3.8202,-3.8202,-3.8202,-3.8202,-3.8202,-3.8202,-3.8202,-3.8202,-3.8202,-3.8202,-3.8202,-3.8202,-3.8202,-3.8202,-3.8202,-3.8165,-3.8118,-3.8104,-3.7991,-3.7815,-3.7663,-3.7586,-3.7495,-3.751,-3.7457,-3.7394,-3.738,-3.7341,-3.7303,-3.7226,-3.7148,-3.7109,-3.7017,-3.6978,-3.6978,-3.6978,-3.6978,-3.6978,-3.6978,-3.6978,-3.6978,-3.6978,-3.6978,-3.6978,-3.6978,-3.6978,-3.6978,-3.6978,-3.6978,-3.7021,-3.6993,-3.7147,-3.7484,-3.7569,-3.785,-3.8327,-3.8524,-3.8775,-3.9269,-3.9465,-3.9424,-3.9348,-3.8076,-3.7571,-3.74,-3.7156,-3.7064,-3.7031,-3.6917,-3.6624,-3.6424,-3.62,-3.58,-3.5764,-3.5126,-3.5066,-3.4967,-3.5088,-3.5316,-3.5279,-3.5773,-3.6014,-3.9265,-3.9388,-3.9388,-3.9388,-3.9388,-3.9388,-3.9388,-3.9388,-3.9388,-3.9388,-3.9388,-3.9388,-3.9388,-3.9388,-3.9388,-3.9337,-3.9192,-3.9053,-3.898,-3.8995,-3.8907,-3.8797,-3.8612,-3.8516,-3.8404,-3.824,-3.8202,-3.8202,-3.8202,-3.8202,-3.8202,-3.8202,-3.8202,-3.8202,-3.8202,-3.8202,-3.8202,-3.8202,-3.8202,-3.8202,-3.8202,-3.8202,-3.8202,-3.8202,-3.8202,-3.8202,-3.8202,-3.8202,-3.8202,-3.8202,-3.8202,-3.8142,-3.8005,-3.7877,-3.7763,-3.7701,-3.7701,-3.7663,-3.761,-3.761,-3.7572,-3.751,-3.738,-3.7264,-3.7187,-3.7056,-3.6978,-3.6978,-3.6978,-3.6978,-3.6978,-3.6978,-3.6978,-3.6978,-3.6978,-3.6978,-3.6978,-3.6978,-3.6978,-3.6978,-3.6978,-3.7063,-3.7231,-3.7288,-3.7597,-3.8131,-3.8215,-3.8468,-3.9029,-3.9226,-3.945,-4.0055,-4.0182,-4.0393,-4.0449,-3.9771,-3.9176,-3.8993,-3.8447,-3.8405,-3.8296,-3.8192,-3.8082,-3.7919,-3.7605,-3.7053,-3.6436,-3.5721,-3.5393,-3.5329,-3.5569,-3.5869,-3.6038,-3.6302,-3.6531,-3.9388,-3.9388,-3.9388,-3.9388,-3.9388,-3.9388,-3.9388,-3.9388,-3.9388,-3.9388,-3.9388,-3.9388,-3.9388,-3.9388,-3.9388,-3.9388,-3.9388,-3.9337,-3.9337,-3.9352,-3.9177,-3.8995,-3.8797,-3.8627,-3.8441,-3.824,-3.8202,-3.8202,-3.8202,-3.8202,-3.8202,-3.8202,-3.8202,-3.8202,-3.8202,-3.8202,-3.8202,-3.8202,-3.8202,-3.8202,-3.8202,-3.8202,-3.8202,-3.8202,-3.8202,-3.8202,-3.8202,-3.8202,-3.8202,-3.8202,-3.8202,-3.8202,-3.8165,-3.8165,-3.8104,-3.7929,-3.7891,-3.783,-3.7663,-3.7649,-3.7725,-3.7739,-3.7548,-3.7419,-3.7457,-3.7226,-3.7056,-3.7056,-3.7056,-3.7017,-3.7017,-3.7056,-3.7017,-3.6978,-3.6978,-3.6978,-3.6978,-3.7007,-3.7007,-3.7102,-3.7186,-3.7316,-3.7723,-3.7986,-3.8253,-3.876,-3.8957,-3.9209,-3.9773,-3.9928,-4.0224,-4.0717,-4.0859,-4.0944,-4.1212,-4.1339,-4.1015,-4.0674,-3.9984,-3.9604,-3.9445,-3.9356,-3.9257,-3.9105,-3.9034,-3.8503,-3.7253,-3.6578,-3.6159,-3.6068,-3.6307,-3.6437,-3.6567,-3.6783,-3.706,-3.9388,-3.9388,-3.9388,-3.9388,-3.9388,-3.9388,-3.9388,-3.9388,-3.9388,-3.9388,-3.9388,-3.9388,-3.9388,-3.9388,-3.9388,-3.9403,-3.9388,-3.9388,-3.9388,-3.9418,-3.9367,-3.9177,-3.9031,-3.8907,-3.8738,-3.8478,-3.8404,-3.8315,-3.824,-3.8217,-3.8202,-3.8202,-3.8217,-3.8202,-3.826,-3.8202,-3.8202,-3.8202,-3.8202,-3.8202,-3.8202,-3.8202,-3.8202,-3.8202,-3.8202,-3.8202,-3.8202,-3.8202,-3.8202,-3.8202,-3.8202,-3.8202,-3.8202,-3.8202,-3.8179,-3.8104,-3.8104,-3.8104,-3.8028,-3.7991,-3.7953,-3.7891,-3.7792,-3.7663,-3.761,-3.7495,-3.7419,-3.7419,-3.7419,-3.738,-3.7264,-3.7341,-3.7345,-3.7031,-3.6978,-3.706,-3.7172,-3.7425,-3.7583,-3.7707,-3.8124,-3.8517,-3.8617,-3.874,-3.9157,-3.9656,-3.988,-4.0204,-4.0687,-4.0773,-4.0957,-4.1226,-4.1297,-4.1382,-4.1609,-4.1737,-4.1638,-4.1497,-4.1084,-4.0698,-4.0598,-4.0623,-4.0533,-4.0421,-4.0336,-3.974,-3.847,-3.7739,-3.7432,-3.6927,-3.7032,-3.7037,-3.7027,-3.7204,-3.7533,-3.9783,-3.9813,-4.0038,-4.0142,-4.0157,-4.0157,-4.0157,-4.0157,-4.0157,-4.0142,-4.0157,-4.0157,-4.0157,-4.0142,-4.0142,-4.0157,-4.0142,-4.0157,-4.0277,-4.0307,-3.9634,-3.9316,-3.909,-3.9017,-3.887,-3.8664,-3.8567,-3.8441,-3.8329,-3.8487,-3.8565,-3.8594,-3.8783,-3.8928,-3.8913,-3.8913,-3.8899,-3.887,-3.8696,-3.858,-3.8522,-3.8318,-3.8202,-3.8202,-3.8202,-3.8202,-3.8202,-3.8202,-3.8202,-3.8202,-3.8202,-3.8202,-3.8202,-3.8202,-3.8202,-3.8202,-3.8202,-3.8202,-3.8202,-3.8165,-3.8179,-3.8043,-3.7929,-3.7868,-3.7739,-3.7663,-3.761,-3.761,-3.7572,-3.7634,-3.7794,-3.789,-3.7937,-3.7944,-3.776,-3.7731,-3.789,-3.8243,-3.8456,-3.8649,-3.8944,-3.9284,-3.9538,-3.9664,-4.0069,-4.0473,-4.0727,-4.0923,-4.1296,-4.1381,-4.1452,-4.148,-4.1493,-4.1664,-4.1978,-4.2106,-4.2178,-4.2137,-4.2024,-4.1825,-4.1696,-4.1995,-4.2063,-4.2016,-4.1959,-4.1503,-4.0408,-3.9694,-3.9254,-3.8642,-3.8172,-3.8306,-3.8479,-3.7835,-3.7947,-4.0442,-4.0531,-4.11,-4.1317,-4.1317,-4.1302,-4.1272,-4.1347,-4.1332,-4.1235,-4.1317,-4.1227,-4.1309,-4.1384,-4.1324,-4.1369,-4.1489,-4.1504,-4.1743,-4.1737,-4.0801,-3.9898,-3.9698,-3.9432,-3.9262,-3.9077,-3.8876,-3.8735,-3.8806,-3.9092,-3.9247,-3.9291,-3.9683,-4.0046,-3.9915,-4.0046,-3.9944,-3.9828,-3.9479,-3.9247,-3.9218,-3.8725,-3.8405,-3.842,-3.8449,-3.8478,-3.8507,-3.842,-3.8289,-3.8217,-3.8202,-3.8202,-3.8202,-3.8202,-3.8202,-3.8202,-3.8202,-3.8202,-3.8202,-3.8202,-3.8202,-3.8179,-3.8028,-3.7929,-3.7891,-3.7801,-3.7797,-3.7844,-3.7844,-3.802,-3.8531,-3.8714,-3.8946,-3.9404,-3.8953,-3.8828,-3.9339,-3.9467,-3.9458,-3.9513,-3.9636,-3.9865,-4.0453,-4.0551,-4.0864,-4.1152,-4.138,-4.1464,-4.1479,-4.1578,-4.1592,-4.1734,-4.1974,-4.2334,-4.2708,-4.2867,-4.2939,-4.2983,-4.2941,-4.2912,-4.2797,-4.3113,-4.3313,-4.3311,-4.332,-4.2932,-4.238,-4.1544,-4.1011,-4.0647,-4.0371,-4.0236,-3.9623,-3.8923,-3.8319,-4.113,-4.113,-4.1309,-4.1422,-4.1422,-4.1422,-4.1437,-4.1422,-4.1452,-4.1527,-4.1467,-4.1422,-4.1796,-4.2111,-4.2186,-4.2342,-4.2731,-4.2821,-4.2895,-4.3069,-4.2686,-4.2028,-4.1511,-4.0957,-4.0635,-4.0484,-4.0279,-4.0118,-3.9978,-3.996,-3.9915,-3.9871,-4.0089,-4.0162,-4.0104,-4.0176,-4.0104,-4.0104,-3.9987,-3.9857,-3.9842,-3.9668,-3.961,-3.9596,-3.9552,-3.9552,-3.9538,-3.916,-3.8681,-3.8246,-3.8202,-3.8202,-3.8202,-3.8202,-3.8202,-3.8202,-3.8202,-3.8202,-3.8202,-3.8202,-3.8202,-3.8202,-3.8142,-3.8104,-3.8142,-3.8066,-3.826,-3.8616,-3.8804,-3.8972,-3.9413,-3.961,-3.9993,-4.0426,-3.9909,-3.9447,-3.9622,-3.991,-4.0251,-4.028,-4.0732,-4.1019,-4.1176,-4.1416,-4.1598,-4.1659,-4.1773,-4.1885,-4.1829,-4.1944,-4.2058,-4.2461,-4.2763,-4.3138,-4.3428,-4.3645,-4.3747,-4.3806,-4.3864,-4.3993,-4.3906,-4.3993,-4.4047,-4.4042,-4.4359,-4.4149,-4.3585,-4.2896,-4.2683,-4.2517,-4.1834,-4.1303,-4.0426,-3.9623,-3.9028,-4.1826,-4.1856,-4.2087,-4.2192,-4.2207,-4.2192,-4.2192,-4.2207,-4.2207,-4.2372,-4.2566,-4.2611,-4.2985,-4.3609,-4.3653,-4.3793,-4.4122,-4.4167,-4.4332,-4.4616,-4.4616,-4.3913,-4.2955,-4.2327,-4.2145,-4.2028,-4.1857,-4.1637,-4.1425,-4.1171,-4.1051,-4.0974,-4.0931,-4.0931,-4.1004,-4.0931,-4.0931,-4.0902,-4.0699,-4.0525,-4.051,-4.022,-4.0089,-4.0089,-4.0104,-4.0104,-4.0031,-3.9741,-3.9175,-3.8449,-3.8202,-3.8202,-3.8202,-3.8202,-3.8202,-3.8202,-3.8202,-3.8202,-3.8202,-3.8202,-3.8202,-3.8202,-3.8202,-3.8376,-3.8565,-3.8638,-3.8884,-3.9465,-3.9552,-3.9822,-4.0304,-4.0677,-4.1105,-4.1355,-4.096,-4.0582,-4.0582,-4.0997,-4.1128,-4.1285,-4.1528,-4.18,-4.1704,-4.1912,-4.1953,-4.1939,-4.1995,-4.2051,-4.2065,-4.2295,-4.2586,-4.2992,-4.3413,-4.3761,-4.4095,-4.4313,-4.456,-4.4661,-4.4675,-4.4819,-4.4789,-4.4819,-4.4889,-4.4971,-4.5257,-4.5247,-4.4652,-4.4298,-4.4406,-4.4003,-4.317,-4.2434,-4.1686,-4.0679,-4.0045,-4.2515,-4.256,-4.309,-4.3305,-4.3245,-4.329,-4.323,-4.3364,-4.3334,-4.3733,-4.4197,-4.4377,-4.4601,-4.5394,-4.5155,-4.5394,-4.5499,-4.5514,-4.5843,-4.6127,-4.6142,-4.5454,-4.4182,-4.3648,-4.3514,-4.3459,-4.3354,-4.3152,-4.2935,-4.2705,-4.2514,-4.2306,-4.2235,-4.215,-4.202,-4.2034,-4.2063,-4.1845,-4.1424,-4.1207,-4.1134,-4.0786,-4.0597,-4.0554,-4.0554,-4.0437,-4.0336,-4.0147,-3.9683,-3.8463,-3.8405,-3.8522,-3.8492,-3.8449,-3.8463,-3.8536,-3.8594,-3.8565,-3.8463,-3.858,-3.8492,-3.8551,-3.8522,-3.8623,-3.9146,-3.9291,-3.9538,-4.0162,-4.0205,-4.0539,-4.1105,-4.17,-4.1903,-4.1961,-4.199,-4.2063,-4.2092,-4.2092,-4.2092,-4.2092,-4.2092,-4.2092,-4.2092,-4.2092,-4.2092,-4.208,-4.2194,-4.2397,-4.2557,-4.2847,-4.3137,-4.3471,-4.3892,-4.4342,-4.4676,-4.4995,-4.5271,-4.5488,-4.5474,-4.5516,-4.5412,-4.55,-4.5676,-4.5835,-4.5685,-4.5685,-4.5595,-4.5535,-4.5595,-4.5201,-4.4158,-4.3801,-4.3409,-4.2168,-4.1293,-4.312,-4.3095,-4.3245,-4.3305,-4.3305,-4.3305,-4.3604,-4.4092,-4.4107,-4.4466,-4.4975,-4.5095,-4.5484,-4.6112,-4.6127,-4.6367,-4.6726,-4.6756,-4.6995,-4.704,-4.71,-4.6935,-4.6142,-4.5379,-4.4885,-4.4844,-4.4679,-4.4555,-4.443,-4.4108,-4.3842,-4.3741,-4.3091,-4.2803,-4.2716,-4.2339,-4.2092,-4.2063,-4.1918,-4.1831,-4.1816,-4.1671,-4.1541,-4.1541,-4.157,-4.1337,-4.0974,-4.0873,-4.0495,-3.9915,-3.9697,-3.9683,-3.9581,-3.9596,-3.9567,-3.9552,-3.9596,-3.9639,-3.9654,-3.9581,-3.9668,-3.9567,-3.9523,-3.9741,-3.9842,-3.99,-4.022,-4.0728,-4.0902,-4.1178,-4.17,-4.1976,-4.2078,-4.2092,-4.2092,-4.2092,-4.2092,-4.2092,-4.2092,-4.2092,-4.2092,-4.2092,-4.2092,-4.2092,-4.2107,-4.2165,-4.2411,-4.2731,-4.3065,-4.3384,-4.3718,-4.4052,-4.4472,-4.4893,-4.5169,-4.5416,-4.5561,-4.5779,-4.5837,-4.588,-4.5835,-4.579,-4.588,-4.588,-4.588,-4.588,-4.588,-4.5745,-4.5549,-4.5353,-4.511,-4.4559,-4.3923,-4.3067,-4.2647,-4.3305,-4.3305,-4.3305,-4.3469,-4.3708,-4.3808,-4.4127,-4.4691,-4.4781,-4.514,-4.5663,-4.5768,-4.6157,-4.6756,-4.68,-4.701,-4.7234,-4.7309,-4.7294,-4.7294,-4.7294,-4.7294,-4.7249,-4.6681,-4.6232,-4.6232,-4.6162,-4.602,-4.5789,-4.5381,-4.4976,-4.4746,-4.3961,-4.338,-4.3063,-4.2673,-4.2382,-4.2136,-4.2092,-4.2092,-4.2092,-4.2092,-4.2092,-4.2092,-4.2078,-4.1889,-4.1599,-4.1555,-4.1381,-4.1134,-4.1004,-4.0699,-4.0205,-4.0104,-4.0104,-4.0104,-4.0104,-4.0104,-4.0089,-4.0104,-4.006,-4.0133,-4.0104,-4.0307,-4.0452,-4.0554,-4.0887,-4.1381,-4.1599,-4.1744,-4.2049,-4.2092,-4.2092,-4.2092,-4.2092,-4.2092,-4.2092,-4.2092,-4.2092,-4.2092,-4.2092,-4.2092,-4.2092,-4.2179,-4.2397,-4.2557,-4.2716,-4.3036,-4.3616,-4.3964,-4.4342,-4.469,-4.5097,-4.5445,-4.5677,-4.5793,-4.575,-4.5851,-4.5866,-4.588,-4.588,-4.588,-4.588,-4.588,-4.588,-4.588,-4.588,-4.5685,-4.564,-4.5549,-4.5307,-4.4865,-4.4448,-4.3932,-4.3743,-4.3305,-4.3305,-4.3409,-4.3768,-4.4287,-4.4421,-4.484,-4.5394,-4.5454,-4.5828,-4.6339,-4.6429,-4.6756,-4.7189,-4.7264,-4.7294,-4.7309,-4.7309,-4.7309,-4.7309,-4.7309,-4.7309,-4.7249,-4.7174,-4.7115,-4.7294,-4.7116,-4.7015,-4.6736,-4.6411,-4.5899,-4.5477,-4.4762,-4.4193,-4.357,-4.3194,-4.2876,-4.2411,-4.2339,-4.2194,-4.2107,-4.2092,-4.2092,-4.2092,-4.2092,-4.2078,-4.199,-4.2005,-4.202,-4.2092,-4.2092,-4.1482,-4.0771,-4.0408,-4.0394,-4.0452,-4.0568,-4.0626,-4.0655,-4.0554,-4.0525,-4.0408,-4.0452,-4.0684,-4.1105,-4.1265,-4.1497,-4.1787,-4.202,-4.202,-4.2092,-4.2092,-4.2092,-4.2092,-4.2092,-4.2092,-4.2107,-4.215,-4.2266,-4.2092,-4.2107,-4.2136,-4.2281,-4.2411,-4.2702,-4.2992,-4.3152,-4.3442,-4.4037,-4.456,-4.4937,-4.5155,-4.5488,-4.5619,-4.5822,-4.5925,-4.5925,-4.588,-4.588,-4.588,-4.588,-4.588,-4.588,-4.588,-4.588,-4.588,-4.5835,-4.5745,-4.57,-4.5759,-4.5518,-4.4986,-4.4801,-4.483,-4.4583,-4.3305,-4.3349,-4.3888,-4.4227,-4.4407,-4.49,-4.5529,-4.6097,-4.6157,-4.6531,-4.7098,-4.713,-4.716,-4.7337,-4.7309,-4.7309,-4.7309,-4.7309,-4.7309,-4.7309,-4.7309,-4.7309,-4.7309,-4.7309,-4.7309,-4.7309,-4.7309,-4.7251,-4.7149,-4.6899,-4.6606,-4.6416,-4.5638,-4.501,-4.4631,-4.4225,-4.3528,-4.2963,-4.2847,-4.2658,-4.2382,-4.2281,-4.2295,-4.2281,-4.2266,-4.2179,-4.2136,-4.2107,-4.2092,-4.2092,-4.2092,-4.1947,-4.1686,-4.1613,-4.1613,-4.1599,-4.157,-4.1497,-4.1526,-4.1642,-4.1729,-4.1773,-4.1642,-4.1657,-4.1845,-4.193,-4.1945,-4.2099,-4.2216,-4.2133,-4.2092,-4.2133,-4.2092,-4.2092,-4.215,-4.215,-4.2252,-4.2528,-4.2673,-4.244,-4.2324,-4.2339,-4.2658,-4.2948,-4.3253,-4.3645,-4.3964,-4.4226,-4.4676,-4.5155,-4.5547,-4.5692,-4.5793,-4.5837,-4.588,-4.597,-4.6015,-4.5925,-4.588,-4.588,-4.588,-4.588,-4.588,-4.588,-4.588,-4.588,-4.5835,-4.5745,-4.57,-4.57,-4.5413,-4.5092,-4.5,-4.4922,-4.469,-4.3484,-4.3868,-4.4182,-4.4721,-4.5334,-4.5693,-4.6217,-4.6785,-4.6845,-4.7237,-4.7661,-4.7538,-4.7581,-4.7737,-4.7424,-4.7309,-4.7352,-4.7309,-4.7309,-4.7309,-4.7309,-4.7309,-4.7309,-4.7309,-4.7309,-4.7309,-4.7309,-4.7309,-4.7309,-4.7164,-4.7019,-4.6813,-4.6313,-4.5859,-4.5376,-4.4865,-4.4239,-4.3688,-4.3485,-4.3369,-4.3079,-4.305,-4.3065,-4.3007,-4.2731,-4.2571,-4.2498,-4.2194,-4.2107,-4.2092,-4.2092,-4.2092,-4.2107,-4.2107,-4.2092,-4.2092,-4.2092,-4.2092,-4.2092,-4.2092,-4.2049,-4.2063,-4.2092,-4.2092,-4.2092,-4.2104,-4.2366,-4.2622,-4.2729,-4.2729,-4.2754,-4.2351,-4.2133,-4.215,-4.2339,-4.2528,-4.2702,-4.3166,-4.3223,-4.3149,-4.3337,-4.3453,-4.3384,-4.3645,-4.3877,-4.424,-4.4734,-4.5083,-4.5418,-4.574,-4.609,-4.6165,-4.6299,-4.658,-4.6491,-4.6417,-4.6254,-4.6135,-4.588,-4.588,-4.588,-4.588,-4.588,-4.588,-4.588,-4.588,-4.588,-4.5835,-4.5745,-4.57,-4.5518,-4.5321,-4.5198,-4.5014,-4.483,-4.3838,-4.4332,-4.456,-4.5417,-4.6485,-4.671,-4.7196,-4.7704,-4.7834,-4.8225,-4.8682,-4.8214,-4.824,-4.8517,-4.8256,-4.7849,-4.7779,-4.7737,-4.7624,-4.7581,-4.7396,-4.7309,-4.7309,-4.7309,-4.7309,-4.7309,-4.7309,-4.7309,-4.7309,-4.7266,-4.7164,-4.7004,-4.696,-4.649,-4.5756,-4.5537,-4.4967,-4.4443,-4.4168,-4.4153,-4.4037,-4.4008,-4.4008,-4.3993,-4.3471,-4.3195,-4.3152,-4.2861,-4.2658,-4.2615,-4.2571,-4.2484,-4.2324,-4.2266,-4.2208,-4.2121,-4.2092,-4.2092,-4.2092,-4.2092,-4.2092,-4.2092,-4.2092,-4.216,-4.2474,-4.2688,-4.2955,-4.3403,-4.3324,-4.3364,-4.3364,-4.2648,-4.2412,-4.2631,-4.2884,-4.3121,-4.3411,-4.3903,-4.4524,-4.4554,-4.4657,-4.4572,-4.4485,-4.4312,-4.4545,-4.5402,-4.5887,-4.5917,-4.6211,-4.6212,-4.6462,-4.658,-4.6828,-4.7319,-4.7319,-4.7075,-4.6828,-4.6535,-4.6121,-4.588,-4.588,-4.588,-4.588,-4.588,-4.588,-4.588,-4.588,-4.588,-4.5835,-4.5745,-4.5654,-4.5564,-4.5367,-4.523,-4.5046,-4.4242,-4.4407,-4.5589,-4.6618,-4.7461,-4.8024,-4.8738,-4.9367,-4.9383,-4.9543,-4.9662,-4.9503,-4.9463,-4.9503,-4.9487,-4.9423,-4.9237,-4.8764,-4.8464,-4.8381,-4.7779,-4.7467,-4.7352,-4.7309,-4.7309,-4.7309,-4.7309,-4.7309,-4.7309,-4.7309,-4.7309,-4.7207,-4.7019,-4.6741,-4.6373,-4.6094,-4.5638,-4.4952,-4.4777,-4.456,-4.4197,-4.4124,-4.4139,-4.4081,-4.3964,-4.3863,-4.3834,-4.3645,-4.3587,-4.3631,-4.3689,-4.3456,-4.3021,-4.289,-4.2571,-4.2281,-4.2092,-4.2092,-4.2107,-4.2092,-4.2092,-4.2092,-4.2175,-4.25,-4.3076,-4.3741,-4.4128,-4.4243,-4.3858,-4.3702,-4.3873,-4.3,-4.2957,-4.3243,-4.3512,-4.3669,-4.3976,-4.5357,-4.5883,-4.6202,-4.6346,-4.5821,-4.549,-4.5273,-4.5288,-4.6209,-4.6927,-4.6957,-4.6986,-4.7016,-4.7334,-4.7576,-4.7789,-4.8236,-4.832,-4.8027,-4.7405,-4.7031,-4.6535,-4.6046,-4.588,-4.588,-4.588,-4.588,-4.588,-4.588,-4.588,-4.588,-4.588,-4.588,-4.579,-4.5654,-4.5504,-4.5413,-4.5276,-4.487,-4.4986,-4.6414,-4.7476,-4.8224,-4.8951,-4.9463,-4.9726,-4.9805,-5.0096,-5.0345,-4.9978,-4.9805,-4.9884,-4.9805,-4.9765,-4.9726,-4.9463,-4.9303,-4.9116,-4.849,-4.8061,-4.7892,-4.7538,-4.7309,-4.7352,-4.7309,-4.7309,-4.7309,-4.7309,-4.7309,-4.7266,-4.7164,-4.7019,-4.6756,-4.655,-4.6152,-4.5726,-4.5505,-4.5329,-4.5126,-4.5053,-4.5053,-4.501,-4.469,-4.4531,-4.4443,-4.4124,-4.4023,-4.4008,-4.4008,-4.3892,-4.3631,-4.3544,-4.3413,-4.3268,-4.3195,-4.2861,-4.2237,-4.2136,-4.2107,-4.2242,-4.2514,-4.314,-4.3897,-4.4684,-4.5184,-4.5184,-4.4871,-4.4737,-4.4534,-4.3763,-4.3456,-4.362,-4.4415,-4.4874,-4.5433,-4.6632,-4.7559,-4.7847,-4.7976,-4.749,-4.7105,-4.712,-4.7036,-4.7359,-4.7882,-4.7897,-4.7912,-4.7927,-4.832,-4.8831,-4.9035,-4.9278,-4.9278,-4.9075,-4.8126,-4.7576,-4.7075,-4.6535,-4.6001,-4.588,-4.6046,-4.6015,-4.5925,-4.5925,-4.5925,-4.588,-4.588,-4.588,-4.588,-4.579,-4.5685,-4.5549,-4.5367,-4.5289,-4.5447,-4.714,-4.8275,-4.8953,-4.9797,-5.0252,-5.0483,-5.0522,-5.0859,-5.1102,-5.0821,-5.0538,-5.0461,-5.0576,-5.0653,-5.0499,-5.0252,-5.0135,-4.986,-4.9383,-4.8953,-4.8641,-4.813,-4.7709,-4.7581,-4.7381,-4.7309,-4.7309,-4.7309,-4.7309,-4.7309,-4.7266,-4.7121,-4.6931,-4.6668,-4.6358,-4.6032,-4.5883,-4.5793,-4.5779,-4.5793,-4.5808,-4.5692,-4.5445,-4.514,-4.5068,-4.4792,-4.4545,-4.456,-4.4603,-4.4531,-4.4255,-4.4197,-4.4052,-4.3892,-4.3805,-4.35,-4.289,-4.2557,-4.2281,-4.2436,-4.3115,-4.3935,-4.4737,-4.5515,-4.6001,-4.6001,-4.5624,-4.5499,-4.5363,-4.4962,-4.4906,-4.5232,-4.5823,-4.6331,-4.6921,-4.8004,-4.8726,-4.892,-4.9113,-4.9385,-4.9122,-4.9144,-4.9054,-4.8851,-4.8841,-4.8841,-4.8841,-4.8841,-4.9101,-4.9574,-4.9986,-5.012,-5.0104,-4.9813,-4.8913,-4.821,-4.7661,-4.7118,-4.6624,-4.6373,-4.6462,-4.6343,-4.6225,-4.6001,-4.6046,-4.5956,-4.588,-4.588,-4.588,-4.588,-4.5835,-4.5685,-4.5504,-4.5289,-4.5477,-4.7614,-4.8957,-4.9742,-5.0631,-5.1471,-5.1964,-5.2106,-5.2089,-5.2125,-5.2142,-5.198,-5.2053,-5.1928,-5.1964,-5.2089,-5.138,-5.1102,-5.0745,-5.0213,-4.9781,-4.9463,-4.8994,-4.8449,-4.8297,-4.7864,-4.7467,-4.7309,-4.7309,-4.7309,-4.7309,-4.7309,-4.7106,-4.6916,-4.6712,-4.6417,-4.6105,-4.5925,-4.588,-4.588,-4.588,-4.588,-4.588,-4.5837,-4.5808,-4.5808,-4.5605,-4.5503,-4.5518,-4.5474,-4.53,-4.4922,-4.485,-4.4676,-4.4414,-4.4327,-4.4095,-4.3718,-4.3195,-4.2729,-4.2775,-4.3538,-4.4863,-4.5708,-4.6394,-4.6751,-4.6875,-4.663,-4.6629,-4.6665,-4.6648,-4.6461,-4.6779,-4.7201,-4.7651,-4.826,-4.9068,-4.9726,-4.9931,-5.0104,-5.026,-5.0377,-5.0221,-5.0049,-4.9837,-4.9773,-4.9773,-4.9773,-4.9773,-4.9773,-5.012,-5.0656,-5.0902,-5.0886,-5.0393,-4.9614,-4.8913,-4.832,-4.7773,-4.7248,-4.7118,-4.7118,-4.7031,-4.6944,-4.6535,-4.6165,-4.6046,-4.597,-4.5925,-4.588,-4.588,-4.588,-4.5835,-4.5654,-4.5289,-4.5533,-4.8217,-4.9503,-4.9884,-5.1306,-5.2106,-5.2373,-5.2409,-5.2409,-5.2409,-5.2409,-5.2409,-5.2409,-5.2409,-5.2409,-5.2373,-5.2106,-5.1891,-5.1619,-5.1102,-5.0669,-5.0306,-4.9781,-4.9116,-4.8682,-4.8214,-4.7737,-4.7337,-4.7309,-4.7309,-4.7309,-4.7309,-4.7266,-4.7077,-4.6756,-4.6417,-4.615,-4.597,-4.588,-4.588,-4.588,-4.588,-4.588,-4.588,-4.588,-4.5866,-4.588,-4.588,-4.588,-4.588,-4.5692,-4.5518,-4.5459,-4.53,-4.5068,-4.5039,-4.4864,-4.4487,-4.4022,-4.3684,-4.4317,-4.5086,-4.6013,-4.6744,-4.7642,-4.8081,-4.8078,-4.7806,-4.7878,-4.7485,-4.7637,-4.7833,-4.8192,-4.8566,-4.899,-4.9441,-5.0151,-5.0432,-5.0525,-5.0733,-5.0962,-5.1054,-5.1092,-5.0924,-5.0771,-5.0733,-5.0695,-5.0563,-5.0563,-5.0486,-5.0486,-5.094,-5.1146,-5.1146,-5.0771,-5.0315,-4.9614,-4.8913,-4.8527,-4.8111,-4.8012,-4.7969,-4.7843,-4.7561,-4.7118,-4.6624,-4.621,-4.6015,-4.5925,-4.588,-4.588,-4.588,-4.5967,-4.6007,-4.5289,-4.5646,-4.8298,-4.9567,-5.0017,-5.1655,-5.2409,-5.2409,-5.2409,-5.2409,-5.2409,-5.2409,-5.2409,-5.2409,-5.2409,-5.2409,-5.2409,-5.2338,-5.2373,-5.2142,-5.1782,-5.1524,-5.1194,-5.0669,-4.9939,-4.9318,-4.8682,-4.8214,-4.7779,-4.7467,-4.7352,-4.7309,-4.7309,-4.7309,-4.7222,-4.6902,-4.6535,-4.6225,-4.609,-4.5925,-4.5925,-4.588,-4.588,-4.588,-4.588,-4.588,-4.588,-4.588,-4.588,-4.588,-4.588,-4.588,-4.5866,-4.588,-4.588,-4.588,-4.5822,-4.5619,-4.5199,-4.4545,-4.4536,-4.5352,-4.5934,-4.678,-4.7653,-4.8487,-4.8783,-4.8848,-4.8877,-4.884,-4.8365,-4.8811,-4.9165,-4.9469,-4.9801,-5.0181,-5.0313,-5.0717,-5.0924,-5.1054,-5.1221,-5.1221,-5.1221,-5.1221,-5.1146,-5.1016,-5.0978,-5.0978,-5.0978,-5.0978,-5.1016,-5.1016,-5.1146,-5.1183,-5.1183,-5.094,-5.0602,-4.9986,-4.9414,-4.9374,-4.9116,-4.8979,-4.8882,-4.8815,-4.8403,-4.7689,-4.7046,-4.6491,-4.615,-4.5925,-4.6026,-4.6272,-4.6403,-4.6534,-4.6633,-4.5289,-4.5563,-4.7757,-4.9157,-4.9962,-5.1655,-5.2373,-5.2373,-5.2409,-5.2409,-5.2409,-5.2409,-5.2409,-5.2409,-5.2409,-5.2409,-5.2409,-5.2409,-5.2409,-5.2338,-5.225,-5.2266,-5.1997,-5.1471,-5.0859,-5.0592,-4.9638,-4.8723,-4.8407,-4.7666,-4.7396,-4.7309,-4.7309,-4.7309,-4.7266,-4.7019,-4.6668,-4.6314,-4.621,-4.6046,-4.5925,-4.588,-4.588,-4.588,-4.588,-4.588,-4.588,-4.588,-4.588,-4.588,-4.588,-4.588,-4.588,-4.588,-4.588,-4.588,-4.588,-4.5896,-4.584,-4.4705,-4.5084,-4.6066,-4.6529,-4.7159,-4.7788,-4.8541,-4.9285,-4.9544,-4.935,-4.9528,-4.9713,-5.0052,-5.029,-5.051,-5.0789,-5.0924,-5.0962,-5.1016,-5.1146,-5.1221,-5.1221,-5.1221,-5.1221,-5.1221,-5.1221,-5.1183,-5.1183,-5.1221,-5.1221,-5.1221,-5.1221,-5.1221,-5.1221,-5.1221,-5.1221,-5.1221,-5.0902,-5.0276,-4.9986,-4.9986,-4.9986,-4.9892,-4.9813,-4.9789,-4.9409,-4.8835,-4.7729,-4.6653,-4.68,-4.6958,-4.6756,-4.6867,-4.6983,-4.7085,-4.7126,-4.5289,-4.5518,-4.8242,-4.9527,-4.9962,-5.1011,-5.1871,-5.2338,-5.2409,-5.2409,-5.2409,-5.2409,-5.2409,-5.2409,-5.2409,-5.2409,-5.2409,-5.2409,-5.2409,-5.2409,-5.2409,-5.2409,-5.2266,-5.2069,-5.1635,-5.0951,-4.9915,-4.9075,-4.8558,-4.7822,-4.7424,-4.7309,-4.7309,-4.7309,-4.7222,-4.7019,-4.6741,-4.6491,-4.6314,-4.6135,-4.5925,-4.5925,-4.588,-4.588,-4.588,-4.588,-4.588,-4.588,-4.588,-4.588,-4.588,-4.588,-4.588,-4.588,-4.588,-4.588,-4.5925,-4.6225,-4.6521,-4.6295,-4.6076,-4.6529,-4.7219,-4.7883,-4.8304,-4.9675,-5.0215,-5.0374,-5.026,-5.0487,-5.0778,-5.0811,-5.0946,-5.0962,-5.1129,-5.1129,-5.1146,-5.1146,-5.1221,-5.1221,-5.1221,-5.1221,-5.1221,-5.1221,-5.1221,-5.1221,-5.1221,-5.1221,-5.1221,-5.1221,-5.1221,-5.1221,-5.1221,-5.1221,-5.1221,-5.1221,-5.1221,-5.0771,-5.0695,-5.0826,-5.0771,-5.0714,-5.0794,-5.0813,-5.0422,-4.9975,-4.9082,-4.8377,-4.8268,-4.8207,-4.8003,-4.7631,-4.7535,-4.7564,-4.7579,-4.5289,-4.559,-4.7907,-4.9303,-4.9939,-5.1065,-5.1908,-5.2373,-5.2409,-5.2409,-5.2409,-5.2409,-5.2409,-5.2409,-5.2409,-5.2409,-5.2409,-5.2409,-5.2409,-5.2409,-5.2409,-5.2409,-5.2409,-5.2373,-5.2069,-5.1397,-5.0669,-4.9876,-4.906,-4.8172,-4.7666,-4.7381,-4.7309,-4.7309,-4.7251,-4.7106,-4.6931,-4.6712,-4.6491,-4.6284,-4.606,-4.597,-4.588,-4.588,-4.588,-4.588,-4.588,-4.588,-4.588,-4.588,-4.588,-4.588,-4.588,-4.588,-4.588,-4.588,-4.597,-4.6388,-4.6886,-4.7088,-4.6867,-4.7098,-4.8221,-4.8882,-4.9181,-5.0272,-5.0849,-5.1124,-5.1221,-5.1205,-5.1188,-5.1221,-5.1221,-5.1221,-5.1221,-5.1221,-5.1221,-5.1221,-5.1221,-5.1221,-5.1221,-5.1221,-5.1221,-5.1221,-5.1221,-5.1221,-5.1221,-5.1221,-5.1221,-5.1221,-5.1221,-5.1221,-5.1221,-5.1221,-5.1221,-5.1221,-5.1221,-5.1221,-5.1286,-5.1313,-5.1534,-5.1488,-5.1674,-5.1787,-5.1415,-5.1071,-5.07,-5.0266,-4.9922,-4.9629,-4.9349,-4.8901,-4.8286,-4.8174,-4.8294,-4.5289,-4.5499,-4.6783,-4.8366,-4.9939,-5.1582,-5.2373,-5.2409,-5.2409,-5.2409,-5.2409,-5.2409,-5.2409,-5.2409,-5.2409,-5.2409,-5.2409,-5.2409,-5.2409,-5.2409,-5.2409,-5.2409,-5.2409,-5.2373,-5.2266,-5.2017,-5.138,-5.0384,-4.9726,-4.8532,-4.7779,-4.7467,-4.7309,-4.7309,-4.7251,-4.7251,-4.7077,-4.6844,-4.6624,-4.6403,-4.618,-4.6001,-4.5925,-4.588,-4.588,-4.588,-4.588,-4.588,-4.588,-4.588,-4.588,-4.588,-4.588,-4.588,-4.588,-4.597,-4.6046,-4.658,-4.7248,-4.7505,-4.7916,-4.832,-4.9318,-4.9773,-5.0065,-5.0563,-5.1054,-5.1221,-5.1221,-5.1221,-5.1221,-5.1221,-5.1221,-5.1221,-5.1221,-5.1221,-5.1221,-5.1221,-5.1221,-5.1221,-5.1221,-5.1221,-5.1221,-5.1221,-5.1221,-5.1221,-5.1221,-5.1221,-5.1221,-5.1221,-5.1221,-5.1221,-5.1221,-5.1221,-5.1221,-5.1237,-5.141,-5.1475,-5.1507,-5.1588,-5.1879,-5.2268,-5.2398,-5.2446,-5.2349,-5.2204,-5.2307,-5.1954,-5.1423,-5.1091,-5.0773,-4.9719,-4.9022,-4.9107,-4.9253,-4.5289,-4.5507,-4.7414,-4.8831,-4.9962,-5.1655,-5.2409,-5.2409,-5.2409,-5.2409,-5.2409,-5.2409,-5.2409,-5.2409,-5.2409,-5.2409,-5.2409,-5.2409,-5.2409,-5.2409,-5.2409,-5.2409,-5.2409,-5.2409,-5.2409,-5.2142,-5.1545,-5.0707,-4.9623,-4.8532,-4.7694,-4.7337,-4.7352,-4.7309,-4.7309,-4.7309,-4.7121,-4.6931,-4.6712,-4.6535,-4.6269,-4.6046,-4.597,-4.5925,-4.588,-4.588,-4.588,-4.588,-4.588,-4.588,-4.588,-4.588,-4.588,-4.5925,-4.606,-4.6741,-4.6901,-4.7204,-4.8027,-4.8749,-4.9197,-4.9534,-5.0276,-5.0276,-5.0409,-5.064,-5.1183,-5.1221,-5.1221,-5.1221,-5.1221,-5.1221,-5.1221,-5.1221,-5.1221,-5.1221,-5.1221,-5.1221,-5.1221,-5.1221,-5.1221,-5.1221,-5.1221,-5.1221,-5.1221,-5.1221,-5.1221,-5.1221,-5.1221,-5.1221,-5.1221,-5.1221,-5.1221,-5.1221,-5.1253,-5.1269,-5.1539,-5.1782,-5.1863,-5.2139,-5.2705,-5.3045,-5.3103,-5.3244,-5.3327,-5.3824,-5.4306,-5.3719,-5.2899,-5.2471,-5.206,-5.0822,-4.9867,-4.979,-4.9732,-4.5289,-4.5552,-4.7289,-4.8708,-4.9939,-5.129,-5.2069,-5.2338,-5.2409,-5.2409,-5.2409,-5.2409,-5.2409,-5.2409,-5.2409,-5.2409,-5.2409,-5.2409,-5.2409,-5.2409,-5.2409,-5.2409,-5.2409,-5.2409,-5.2409,-5.2178,-5.1782,-5.1065,-4.9742,-4.8324,-4.7381,-4.7807,-4.7581,-4.7352,-4.7309,-4.7309,-4.7222,-4.7033,-4.6844,-4.6653,-4.6432,-4.618,-4.6046,-4.6015,-4.597,-4.588,-4.588,-4.588,-4.588,-4.588,-4.588,-4.588,-4.6001,-4.621,-4.6506,-4.7189,-4.7603,-4.8153,-4.8938,-4.9454,-5.0002,-5.0409,-5.0848,-5.081,-5.081,-5.094,-5.1146,-5.1221,-5.1221,-5.1221,-5.1221,-5.1221,-5.1221,-5.1221,-5.1221,-5.1221,-5.1221,-5.1221,-5.1221,-5.1221,-5.1221,-5.1221,-5.1221,-5.1221,-5.1221,-5.1221,-5.1221,-5.1221,-5.1221,-5.1221,-5.1221,-5.1221,-5.1221,-5.1221,-5.1318,-5.1523,-5.1879,-5.2252,-5.2511,-5.2867,-5.3459,-5.3823,-5.392,-5.4195,-5.4455,-5.4802,-5.5011,-5.487,-5.4279,-5.3762,-5.3077,-5.2002,-5.08,-4.995,-4.9863,-4.5244,-4.5436,-4.6826,-4.8407,-4.9821,-5.0783,-5.1619,-5.2338,-5.2409,-5.2409,-5.2409,-5.2409,-5.2409,-5.2409,-5.2409,-5.2409,-5.2409,-5.2409,-5.2409,-5.2409,-5.2409,-5.2409,-5.2409,-5.2409,-5.2409,-5.2409,-5.2142,-5.1455,-4.9939,-4.8723,-4.8214,-4.8558,-4.7892,-4.7495,-4.7309,-4.7309,-4.7266,-4.7207,-4.7062,-4.6873,-4.6741,-4.6476,-4.621,-4.6121,-4.6001,-4.588,-4.588,-4.588,-4.588,-4.588,-4.588,-4.588,-4.6121,-4.6417,-4.6828,-4.749,-4.8012,-4.8938,-4.9654,-5.0159,-5.0486,-5.0848,-5.1221,-5.1129,-5.1092,-5.1054,-5.1183,-5.1221,-5.1221,-5.1221,-5.1221,-5.1221,-5.1221,-5.1221,-5.1221,-5.1221,-5.1221,-5.1221,-5.1221,-5.1221,-5.1221,-5.1221,-5.1221,-5.1221,-5.1221,-5.1221,-5.1221,-5.1221,-5.1432,-5.1432,-5.148,-5.148,-5.1513,-5.1604,-5.1912,-5.2155,-5.2365,-5.2689,-5.3094,-5.3644,-5.4292,-5.4551,-5.4697,-5.4859,-5.4988,-5.5166,-5.5279,-5.5106,-5.4883,-5.4433,-5.3762,-5.3004,-5.1926,-5.0701,-4.9946,-4.484,-4.5492,-4.7441,-4.8872,-4.986,-5.0761,-5.1582,-5.2373,-5.2409,-5.2409,-5.2409,-5.2409,-5.2409,-5.2409,-5.2409,-5.2409,-5.2409,-5.2409,-5.2409,-5.2409,-5.2409,-5.2409,-5.2409,-5.2409,-5.2409,-5.2409,-5.2214,-5.1782,-5.0745,-4.9702,-4.8831,-4.8641,-4.813,-4.7822,-4.7309,-4.7309,-4.7309,-4.7294,-4.7207,-4.7062,-4.6873,-4.6521,-4.621,-4.6135,-4.606,-4.5925,-4.588,-4.588,-4.588,-4.588,-4.588,-4.588,-4.5925,-4.6135,-4.6915,-4.7927,-4.8429,-4.9399,-5.0315,-5.0733,-5.094,-5.1054,-5.1221,-5.1221,-5.1221,-5.1221,-5.1221,-5.1221,-5.1221,-5.1221,-5.1221,-5.1221,-5.1221,-5.1221,-5.1221,-5.1221,-5.1221,-5.1221,-5.1221,-5.1221,-5.1221,-5.1221,-5.1221,-5.1221,-5.1221,-5.1221,-5.1221,-5.135,-5.1782,-5.1977,-5.2155,-5.2155,-5.2025,-5.2171,-5.2479,-5.2835,-5.3078,-5.3466,-5.3904,-5.4486,-5.5037,-5.5053,-5.5053,-5.5215,-5.5361,-5.5409,-5.5409,-5.5352,-5.5106,-5.4826,-5.4433,-5.3719,-5.2738,-5.1528,-5.0621,-4.4691,-4.5507,-4.7247,-4.8708,-4.9781,-5.0345,-5.1231,-5.225,-5.2409,-5.2409,-5.2409,-5.2409,-5.2409,-5.2409,-5.2409,-5.2409,-5.2409,-5.2409,-5.2409,-5.2409,-5.2409,-5.2409,-5.2409,-5.2409,-5.2409,-5.2373,-5.1944,-5.1524,-5.138,-4.9955,-4.8928,-4.8913,-4.8599,-4.7864,-4.7309,-4.7309,-4.7309,-4.7309,-4.7309,-4.7207,-4.7019,-4.6668,-4.6403,-4.6328,-4.6105,-4.597,-4.588,-4.588,-4.588,-4.588,-4.588,-4.588,-4.6046,-4.6373,-4.7189,-4.8179,-4.8963,-4.9718,-5.0755,-5.1221,-5.1221,-5.1221,-5.1221,-5.1221,-5.1221,-5.1221,-5.1221,-5.1221,-5.1221,-5.1221,-5.1221,-5.1221,-5.1221,-5.1221,-5.1221,-5.1221,-5.1221,-5.1221,-5.1221,-5.1221,-5.1221,-5.1221,-5.1221,-5.1221,-5.1237,-5.1313,-5.1297,-5.1685,-5.2139,-5.2657,-5.2819,-5.2964,-5.29,-5.2802,-5.2964,-5.3402,-5.3839,-5.426,-5.4632,-5.494,-5.5231,-5.5312,-5.5393,-5.5409,-5.5409,-5.5409,-5.5409,-5.5409,-5.5409,-5.5189,-5.4826,-5.4391,-5.3356,-5.2335,-5.1404,-4.4601,-4.5439,-4.6741,-4.8214,-4.9543,-4.9647,-5.0538,-5.1855,-5.2178,-5.2214,-5.2214,-5.2302,-5.2373,-5.2409,-5.2409,-5.2409,-5.2409,-5.2409,-5.2409,-5.2409,-5.2409,-5.2409,-5.2409,-5.2409,-5.2409,-5.2214,-5.1871,-5.2033,-5.2142,-5.0554,-4.9559,-4.9463,-4.8558,-4.7424,-4.7352,-4.7309,-4.7309,-4.7309,-4.7309,-4.7309,-4.7092,-4.6873,-4.6639,-4.6417,-4.6194,-4.5925,-4.588,-4.588,-4.588,-4.588,-4.5925,-4.609,-4.6343,-4.6741,-4.7731,-4.8651,-4.9414,-5.0198,-5.0978,-5.1221,-5.1221,-5.1221,-5.1221,-5.1221,-5.1221,-5.1221,-5.1221,-5.1221,-5.1221,-5.1221,-5.1221,-5.1221,-5.1221,-5.1221,-5.1221,-5.1221,-5.1221,-5.1221,-5.1221,-5.1221,-5.1221,-5.1221,-5.1253,-5.1253,-5.1378,-5.1475,-5.1782,-5.2187,-5.2641,-5.324,-5.3644,-5.3871,-5.4001,-5.3871,-5.3758,-5.3984,-5.4503,-5.4697,-5.5005,-5.5231,-5.5409,-5.5409,-5.5409,-5.5409,-5.5409,-5.5409,-5.5409,-5.5409,-5.5409,-5.5409,-5.5172,-5.4742,-5.3864,-5.2872,-5.2078,-4.4227,-4.5409,-4.6741,-4.7892,-4.8749,-4.8846,-4.9383,-5.0329,-5.1102,-5.1343,-5.1582,-5.2142,-5.2409,-5.2409,-5.2409,-5.2409,-5.2409,-5.2409,-5.2409,-5.2409,-5.2409,-5.2409,-5.2409,-5.2409,-5.2409,-5.2266,-5.2142,-5.2302,-5.2178,-5.1118,-5.0229,-4.9726,-4.8953,-4.8019,-4.7381,-4.7381,-4.7467,-4.7467,-4.7352,-4.7309,-4.7164,-4.6946,-4.6683,-4.6417,-4.615,-4.597,-4.588,-4.588,-4.588,-4.588,-4.597,-4.6254,-4.6668,-4.7118,-4.7985,-4.9075,-4.9789,-5.0331,-5.0902,-5.1146,-5.1221,-5.1221,-5.1221,-5.1221,-5.1221,-5.1221,-5.1221,-5.1221,-5.1221,-5.1221,-5.1221,-5.1221,-5.1221,-5.1221,-5.1221,-5.1221,-5.1221,-5.1221,-5.1221,-5.1221,-5.1221,-5.1286,-5.1367,-5.1539,-5.1944,-5.2171,-5.2673,-5.3078,-5.3547,-5.4017,-5.4422,-5.4632,-5.4859,-5.5069,-5.5021,-5.4794,-5.5086,-5.5215,-5.528,-5.5361,-5.5409,-5.5409,-5.5409,-5.5409,-5.5409,-5.5409,-5.5409,-5.5409,-5.5409,-5.5409,-5.5409,-5.5008,-5.4205,-5.3284,-5.2395]},{"header":{"parameterUnit":"m.s-1","parameterCategory":1,"la1":31.0,"la2":29.5877,"lo1":-88.7671,"lo2":-86.6584,"dy":0.0162,"dx":0.0185,"nx":115,"ny":88,"refTime":"2023-04-22T12:00:00:Z","depth":0,"parameterNumber":3,"parameterNumberName":"V-component_of_WINDS"},"data":[0.0,0.0,0.0,0.0,0.0,0.0,0.0,0.0,0.0,0.0,0.0,0.0,0.0,0.0,0.0,0.0,0.0,0.0,0.0,0.0,0.0,0.0,0.0,0.0,0.0,0.0,0.0,0.0,0.0,0.0,0.0,0.0,0.0,0.0,0.0,0.0,0.0,0.0,0.0,0.0,0.0,0.0,0.0,0.0,0.0,0.0,0.0,0.0,0.0,0.0,0.0,0.0,0.0,0.0,0.0,0.0,0.0,0.0,0.0,0.0,0.0,0.0,0.0,0.0,0.0,0.0,0.0,0.0,0.0,0.0,0.0,0.0,0.0,0.0,0.0,0.0,0.0,0.0,0.0,0.0,0.0,0.0,0.0,0.0,0.0,0.0,0.0,0.0,0.0,0.0,0.0,0.0,0.0,0.0,0.0,0.0,0.0,0.0,0.0,0.0,0.0,0.0,0.0,0.0,0.0,0.0,0.0,0.0,0.0,0.0,0.0,0.0,0.0,0.0,0.0,0.0,0.0,0.0,0.0,0.0,0.0,0.0,0.0,0.0,0.0,0.0,0.0,0.0,0.0,0.0,0.0,0.0,0.0,0.0,0.0,0.0,0.0,0.0,0.0,0.0,0.0,0.0,0.0,0.0,0.0,0.0,0.0,0.0,0.0,0.0,0.0,0.0,0.0,0.0,0.0,0.0,0.0,0.0,0.0,0.0,0.0,0.0,0.0,0.0,0.0,0.0,0.0,0.0,0.0,0.0,0.0,0.0,0.0,0.0,0.0,0.0,0.0,0.0,0.0,0.0,0.0,0.0,0.0,0.0,0.0,0.0,0.0,0.0,0.0,0.0,0.0,0.0,0.0,0.0,0.0,0.0,0.0,0.0,0.0,0.0,0.0,0.0,0.0,0.0,0.0,0.0,0.0,0.0,0.0,0.0,0.0,0.0,0.0,0.0,0.0,0.0,0.0,0.0,0.0,0.0,0.0,0.0,0.0,0.0,0.0,0.0,0.0,0.0,0.0,0.0,0.0,0.0,0.0,0.0,0.0,0.0,0.0,0.0,0.0,0.0,0.0,0.0,0.0,0.0,0.0,0.0,0.0,0.0,0.0,0.0,0.0,0.0,0.0,0.0,0.0,0.0,0.0,0.0,0.0,0.0,0.0,0.0,0.0,0.0,0.0,0.0,0.0,0.0,0.0,0.0,0.0,0.0,0.0,0.0,0.0,0.0,0.0,0.0,0.0,0.0,0.0,0.0,0.0,0.0,0.0,0.0,0.0,0.0,0.0,0.0,0.0,0.0,0.0,0.0,0.0,0.0,0.0,0.0,0.0,0.0,0.0,0.0,0.0,0.0,0.0,0.0,0.0,0.0,0.0,0.0,0.0,0.0,0.0,0.0,0.0,0.0,0.0,0.0,0.0,0.0,0.0,0.0,0.0,0.0,0.0,0.0,0.0,0.0,0.0,0.0,0.0,0.0,0.0,0.0,0.0,0.0,0.0,0.0,0.0,0.0,0.0,0.0,0.0,0.0,0.0,0.0,0.0,0.0,0.0,0.0,0.0,0.0,0.0,0.0,0.0,0.0,0.0,0.0,0.0,0.0,0.0,0.0,0.0,0.0,0.0,0.0,0.0,0.0,0.0,0.0,0.0,0.0,0.0,0.0,0.0,0.0,0.0,0.0,0.0,0.0,0.0,0.0,0.0,0.0,0.0,0.0,0.0,0.0,0.0,0.0,0.0,0.0,0.0,0.0,0.0,0.0,0.0,0.0,0.0,0.0,0.0,0.0,0.0,0.0,0.0,0.0,0.0,0.0,0.0,0.0,0.0,0.0,0.0,0.0,0.0,0.0,0.0,0.0,0.0,0.0,0.0,0.0,0.0,0.0,0.0,0.0,0.0,0.0,0.0,0.0,0.0,0.0,0.0,0.0,0.0,0.0,0.0,0.0,0.0,0.0,0.0,0.0,0.0,0.0,0.0,0.0,0.0,0.0,0.0,0.0,0.0,0.0,0.0,0.0,0.0,0.0,0.0,0.0,0.0,0.0,0.0,0.0,0.0,0.0,0.0,0.0,0.0,0.0,0.0,0.0,0.0,0.0,0.0,0.0,0.0,0.0,0.0,0.0,0.0,0.0,0.0,0.0,0.0,0.0,0.0,0.0,0.0,0.0,0.0,0.0,0.0,0.0,0.0,0.0,0.0,0.0,0.0,0.0,0.0,0.0,0.0,0.0,0.0,0.0,0.0,0.0,0.0,0.0,0.0,0.0,0.0,0.0,0.0,0.0,0.0,0.0,0.0,0.0,0.0,0.0,0.0,0.0,0.0,0.0,0.0,0.0,0.0,0.0,0.0,0.0,0.0,0.0,0.0,0.0,0.0,0.0,0.0,0.0,0.0,0.0,0.0,0.0,0.0,0.0,0.0,0.0,0.0,0.0,0.0,0.0,0.0,0.0,0.0,0.0,0.0,0.0,0.0,0.0,0.0,0.0,0.0,0.0,0.0,0.0,0.0,0.0,0.0,0.0,0.0,0.0,0.0,0.0,0.0,0.0,0.0,0.0,0.0,0.0,0.0,0.0,0.0,0.0,0.0,0.0,0.0,0.0,0.0,0.0,0.0,0.0,0.0,0.0,0.0,0.0,0.0,0.0,0.0,0.0,0.0,0.0,0.0,0.0,0.0,0.0,0.0,0.0,0.0,0.0,0.0,0.0,0.0,0.0,0.0,0.0,0.0,0.0,0.0,0.0,0.0,0.0,0.0,0.0,0.0,0.0,0.0,0.0,0.0,0.0,0.0,0.0,0.0,0.0,0.0,0.0,0.0,0.0,0.0,0.0,0.0,0.0,0.0,0.0,0.0,0.0,0.0,0.0,0.0,0.0,0.0,0.0,0.0,0.0,0.0,0.0,0.0,0.0,0.0,0.0,0.0,0.0,0.0,0.0,0.0,0.0,0.0,0.0,0.0,0.0,0.0,0.0,0.0,0.0,0.0,0.0,0.0,0.0,0.0,0.0,0.0,0.0,0.0,0.0,0.0,0.0,0.0,0.0,0.0,0.0,0.0,0.0,0.0,0.0,0.0,0.0,0.0,0.0,0.0,0.0,0.0,0.0,0.0,0.0,0.0,0.0,0.0,0.0,0.0,0.0,0.0,0.0,0.0,0.0,0.0,0.0,0.0,0.0,0.0,0.0,0.0,0.0,0.0,0.0,0.0,0.0,0.0,0.0,0.0,0.0,0.0,0.0,0.0,0.0,0.0,0.0,0.0,0.0,0.0,0.0,0.0,0.0,0.0,0.0,0.0,0.0,0.0,0.0,0.0,0.0,0.0,0.0,0.0,0.0,0.0,0.0,0.0,0.0,0.0,0.0,0.0,0.0,0.0,0.0,0.0,0.0,0.0,0.0,0.0,0.0,0.0,0.0,0.0,0.0,0.0,0.0,0.0,0.0,0.0,0.0,0.0,0.0,0.0,0.0,0.0,0.0,0.0,0.0,0.0,0.0,0.0,0.0,0.0,0.0,0.0,0.0,0.0,0.0,0.0,0.0,0.0,0.0,0.0,0.0,0.0,0.0,0.0,0.0,0.0,0.0,0.0,0.0,0.0,0.0,0.0,0.0,0.0,0.0,0.0,0.0,0.0,0.0,0.0,0.0,0.0,0.0,0.0,0.0,0.0,0.0,0.0,0.0,0.0,0.0,0.0,0.0,0.0,0.0,0.0,0.0,0.0,0.0,0.0,0.0,0.0,0.0,0.0,0.0,0.0,0.0,0.0,0.0,0.0,0.0,0.0,0.0,0.0,0.0,0.0,0.0,0.0,0.0,0.0,0.0,0.0,0.0,0.0,0.0,0.0,0.0,0.0,0.0,0.0,0.0,0.0,0.0,0.0,0.0,0.0,0.0,0.0,0.0,0.0,0.0,0.0,0.0,0.0,0.0,0.0,0.0,0.0,0.0,0.0,0.0,0.0,0.0,0.0,0.0,0.0,0.0,0.0,0.0,0.0,0.0,0.0,0.0,0.0,0.0,0.0,0.0,0.0,0.0,0.0,0.0,0.0,0.0,0.0,0.0,0.0,0.0,0.0,0.0,0.0,0.0,0.0,0.0,0.0,0.0,0.0,0.0,0.0,0.0,0.0,0.0,0.0,0.0,0.0,0.0,0.0,0.0,0.0,0.0,0.0,0.0,0.0,0.0,0.0,0.0,0.0,0.0,0.0,0.0,0.0,0.0,0.0,0.0,0.0,0.0,0.0,0.0,0.0,0.0,0.0,0.0,0.0,0.0,0.0,0.0,3.5704,0.0,0.0,0.0,0.0,0.0,0.0,0.0,0.0,0.0,0.0,0.0,0.0,0.0,0.0,0.0,0.0,0.0,0.0,0.0,0.0,0.0,0.0,0.0,0.0,0.0,0.0,0.0,0.0,0.0,0.0,0.0,0.0,0.0,0.0,0.0,0.0,0.0,0.0,0.0,0.0,0.0,0.0,0.0,0.0,0.0,0.0,0.0,0.0,0.0,0.0,0.0,0.0,0.0,0.0,0.0,0.0,0.0,0.0,0.0,0.0,0.0,0.0,0.0,0.0,0.0,0.0,0.0,0.0,0.0,0.0,0.0,0.0,0.0,0.0,0.0,0.0,0.0,0.0,0.0,0.0,0.0,0.0,0.0,0.0,0.0,0.0,0.0,0.0,0.0,0.0,0.0,0.0,0.0,0.0,0.0,0.0,0.0,0.0,0.0,0.0,0.0,0.0,0.0,0.0,0.0,0.0,0.0,0.0,0.0,0.0,3.5704,3.5704,3.5704,3.5704,3.5704,0.0,0.0,0.0,0.0,0.0,0.0,0.0,0.0,0.0,0.0,0.0,0.0,0.0,0.0,0.0,0.0,0.0,0.0,0.0,0.0,0.0,0.0,0.0,0.0,0.0,0.0,0.0,0.0,0.0,0.0,0.0,0.0,0.0,0.0,0.0,0.0,0.0,0.0,0.0,0.0,0.0,0.0,0.0,0.0,0.0,0.0,0.0,0.0,0.0,0.0,0.0,0.0,0.0,0.0,0.0,0.0,0.0,0.0,0.0,0.0,0.0,0.0,0.0,0.0,0.0,0.0,0.0,0.0,0.0,0.0,0.0,0.0,0.0,0.0,0.0,0.0,0.0,0.0,0.0,0.0,0.0,0.0,0.0,0.0,0.0,0.0,0.0,0.0,0.0,0.0,0.0,0.0,0.0,0.0,0.0,0.0,0.0,0.0,0.0,0.0,0.0,0.0,0.0,0.0,0.0,0.0,0.0,0.0,0.0,0.0,0.0,0.0,3.5701,3.5701,3.5702,0.0,0.0,0.0,0.0,0.0,0.0,0.0,0.0,0.0,0.0,0.0,0.0,0.0,0.0,0.0,0.0,0.0,0.0,0.0,0.0,0.0,0.0,0.0,0.0,0.0,0.0,0.0,0.0,0.0,0.0,0.0,0.0,0.0,0.0,0.0,0.0,0.0,0.0,0.0,0.0,0.0,0.0,0.0,0.0,0.0,0.0,0.0,0.0,0.0,0.0,0.0,0.0,0.0,0.0,0.0,0.0,0.0,0.0,0.0,0.0,0.0,0.0,0.0,0.0,0.0,0.0,0.0,0.0,0.0,0.0,0.0,0.0,0.0,0.0,0.0,0.0,0.0,0.0,0.0,0.0,0.0,0.0,0.0,0.0,0.0,0.0,0.0,0.0,0.0,0.0,0.0,0.0,0.0,0.0,0.0,0.0,0.0,0.0,0.0,0.0,0.0,0.0,0.0,0.0,0.0,0.0,0.0,0.0,0.0,0.0,3.5713,3.57,3.5698,0.0,3.5715,0.0,0.0,0.0,0.0,0.0,0.0,0.0,0.0,0.0,0.0,0.0,0.0,0.0,0.0,0.0,0.0,0.0,0.0,0.0,0.0,0.0,0.0,0.0,0.0,0.0,0.0,0.0,0.0,0.0,0.0,0.0,0.0,0.0,0.0,0.0,0.0,0.0,0.0,0.0,0.0,0.0,0.0,0.0,0.0,0.0,0.0,0.0,0.0,0.0,0.0,0.0,0.0,0.0,0.0,0.0,0.0,0.0,0.0,0.0,0.0,0.0,0.0,0.0,0.0,0.0,0.0,0.0,0.0,0.0,0.0,0.0,0.0,0.0,0.0,0.0,0.0,0.0,0.0,0.0,0.0,0.0,0.0,0.0,0.0,0.0,0.0,0.0,0.0,0.0,0.0,0.0,0.0,0.0,0.0,0.0,0.0,0.0,0.0,0.0,0.0,0.0,0.0,0.0,0.0,0.0,0.0,0.0,0.0,0.0,0.0,3.5706,3.5713,3.5711,3.5711,0.0,0.0,0.0,0.0,0.0,0.0,0.0,0.0,0.0,0.0,0.0,0.0,0.0,0.0,0.0,0.0,0.0,0.0,0.0,0.0,0.0,0.0,0.0,0.0,0.0,0.0,0.0,0.0,0.0,0.0,0.0,0.0,0.0,0.0,0.0,0.0,0.0,0.0,0.0,0.0,0.0,0.0,0.0,0.0,0.0,0.0,0.0,0.0,0.0,0.0,0.0,0.0,0.0,0.0,0.0,0.0,0.0,0.0,0.0,0.0,0.0,0.0,0.0,0.0,0.0,0.0,0.0,0.0,0.0,0.0,0.0,0.0,0.0,0.0,0.0,0.0,0.0,0.0,0.0,0.0,0.0,0.0,0.0,0.0,0.0,0.0,0.0,0.0,0.0,0.0,0.0,0.0,0.0,0.0,0.0,0.0,0.0,0.0,0.0,0.0,0.0,0.0,0.0,0.0,0.0,0.0,0.0,0.0,0.0,0.0,3.5704,3.5704,3.5709,3.5716,3.5713,3.5713,0.0,0.0,0.0,0.0,0.0,0.0,0.0,0.0,0.0,0.0,0.0,0.0,0.0,0.0,0.0,0.0,0.0,0.0,0.0,0.0,0.0,0.0,0.0,0.0,0.0,0.0,0.0,0.0,0.0,0.0,0.0,0.0,0.0,0.0,0.0,0.0,0.0,0.0,0.0,0.0,0.0,0.0,0.0,0.0,0.0,0.0,0.0,0.0,0.0,0.0,0.0,0.0,0.0,0.0,0.0,0.0,0.0,0.0,0.0,0.0,0.0,0.0,0.0,0.0,0.0,0.0,0.0,0.0,0.0,0.0,0.0,0.0,0.0,0.0,0.0,0.0,0.0,0.0,0.0,0.0,0.0,0.0,0.0,0.0,0.0,0.0,0.0,0.0,0.0,0.0,0.0,0.0,0.0,0.0,0.0,0.0,0.0,0.0,0.0,0.0,0.0,0.0,0.0,0.0,0.0,0.0,0.0,0.0,3.5704,3.5704,3.5704,3.5709,3.5703,3.5709,0.0,0.0,0.0,0.0,0.0,0.0,0.0,0.0,0.0,0.0,0.0,0.0,0.0,0.0,0.0,0.0,0.0,0.0,0.0,0.0,0.0,0.0,0.0,0.0,0.0,0.0,0.0,0.0,0.0,0.0,0.0,0.0,0.0,0.0,0.0,0.0,0.0,0.0,0.0,0.0,0.0,0.0,0.0,0.0,0.0,0.0,0.0,0.0,0.0,0.0,0.0,0.0,0.0,0.0,0.0,0.0,0.0,0.0,0.0,0.0,0.0,0.0,0.0,0.0,0.0,0.0,0.0,0.0,0.0,0.0,0.0,0.0,0.0,0.0,0.0,0.0,0.0,0.0,0.0,0.0,0.0,0.0,0.0,0.0,0.0,0.0,0.0,0.0,0.0,0.0,0.0,0.0,0.0,0.0,0.0,0.0,0.0,0.0,0.0,0.0,0.0,0.0,0.0,0.0,0.0,0.0,0.0,0.0,0.0,3.5704,3.5704,3.5704,3.5709,3.5707,3.5708,0.0,0.0,0.0,0.0,0.0,0.0,0.0,0.0,0.0,0.0,0.0,0.0,0.0,0.0,0.0,0.0,0.0,0.0,0.0,0.0,0.0,0.0,0.0,0.0,0.0,0.0,0.0,0.0,0.0,0.0,0.0,0.0,0.0,0.0,0.0,0.0,0.0,0.0,0.0,0.0,0.0,0.0,0.0,0.0,0.0,0.0,0.0,0.0,0.0,0.0,0.0,0.0,0.0,0.0,0.0,0.0,0.0,0.0,0.0,0.0,0.0,0.0,0.0,0.0,0.0,0.0,0.0,0.0,0.0,0.0,0.0,0.0,0.0,0.0,0.0,0.0,0.0,0.0,0.0,0.0,0.0,0.0,0.0,0.0,0.0,0.0,0.0,0.0,0.0,0.0,0.0,0.0,0.0,0.0,0.0,0.0,0.0,0.0,0.0,0.0,0.0,0.0,0.0,0.0,0.0,0.0,0.0,0.0,0.0,3.5673,0.0,3.5704,0.0,3.5679,3.5673,0.0,0.0,0.0,0.0,0.0,0.0,0.0,0.0,0.0,0.0,0.0,0.0,0.0,0.0,0.0,0.0,0.0,0.0,0.0,0.0,0.0,0.0,0.0,0.0,0.0,0.0,0.0,0.0,0.0,0.0,0.0,0.0,0.0,0.0,0.0,0.0,0.0,0.0,0.0,0.0,0.0,0.0,0.0,0.0,0.0,0.0,0.0,0.0,0.0,0.0,0.0,0.0,0.0,0.0,0.0,0.0,0.0,0.0,0.0,0.0,0.0,0.0,0.0,0.0,0.0,0.0,0.0,0.0,0.0,0.0,0.0,0.0,0.0,0.0,0.0,0.0,0.0,0.0,0.0,0.0,0.0,0.0,0.0,0.0,0.0,0.0,0.0,0.0,0.0,0.0,0.0,0.0,0.0,0.0,0.0,0.0,0.0,0.0,0.0,0.0,0.0,0.0,0.0,0.0,0.0,0.0,0.0,0.0,3.559,3.5606,3.5668,3.5704,3.5704,3.5637,3.562,0.0,0.0,0.0,0.0,0.0,0.0,0.0,0.0,0.0,0.0,0.0,0.0,0.0,0.0,0.0,0.0,0.0,0.0,0.0,0.0,0.0,0.0,0.0,0.0,0.0,0.0,0.0,0.0,0.0,0.0,0.0,0.0,0.0,0.0,0.0,0.0,0.0,0.0,0.0,0.0,0.0,0.0,0.0,0.0,0.0,0.0,0.0,0.0,0.0,0.0,0.0,0.0,0.0,0.0,0.0,0.0,0.0,0.0,0.0,0.0,0.0,0.0,0.0,0.0,0.0,0.0,0.0,0.0,0.0,0.0,0.0,0.0,0.0,0.0,0.0,0.0,0.0,0.0,0.0,0.0,0.0,0.0,0.0,0.0,0.0,0.0,0.0,0.0,0.0,0.0,0.0,0.0,0.0,0.0,0.0,0.0,0.0,0.0,0.0,0.0,0.0,0.0,0.0,0.0,0.0,0.0,0.0,0.0,0.0,3.561,3.5622,3.5639,3.5637,3.5612,3.5612,0.0,0.0,0.0,0.0,0.0,0.0,0.0,0.0,0.0,0.0,0.0,0.0,0.0,0.0,0.0,0.0,0.0,0.0,0.0,0.0,0.0,0.0,0.0,0.0,0.0,0.0,0.0,0.0,0.0,0.0,0.0,0.0,0.0,0.0,0.0,0.0,0.0,0.0,0.0,0.0,0.0,0.0,0.0,0.0,0.0,0.0,0.0,0.0,0.0,0.0,0.0,0.0,0.0,0.0,0.0,0.0,0.0,0.0,0.0,0.0,0.0,0.0,0.0,0.0,0.0,0.0,0.0,0.0,0.0,0.0,0.0,0.0,0.0,0.0,0.0,0.0,0.0,0.0,0.0,0.0,0.0,0.0,0.0,0.0,0.0,0.0,0.0,0.0,0.0,0.0,0.0,0.0,0.0,0.0,0.0,0.0,0.0,0.0,0.0,0.0,0.0,0.0,0.0,0.0,0.0,0.0,0.0,0.0,0.0,3.5554,3.5585,3.5604,3.5608,3.5596,3.5577,3.562,0.0,0.0,0.0,0.0,0.0,0.0,0.0,0.0,0.0,0.0,0.0,0.0,0.0,0.0,0.0,0.0,0.0,0.0,0.0,0.0,0.0,0.0,0.0,0.0,0.0,0.0,0.0,0.0,0.0,0.0,0.0,0.0,0.0,0.0,0.0,0.0,0.0,0.0,0.0,0.0,0.0,0.0,0.0,0.0,0.0,0.0,0.0,0.0,0.0,0.0,0.0,0.0,0.0,0.0,0.0,0.0,0.0,0.0,0.0,0.0,0.0,0.0,0.0,0.0,0.0,0.0,0.0,0.0,0.0,0.0,0.0,0.0,0.0,0.0,0.0,0.0,0.0,0.0,0.0,0.0,0.0,0.0,0.0,0.0,0.0,0.0,0.0,0.0,0.0,0.0,0.0,0.0,0.0,0.0,0.0,0.0,0.0,0.0,0.0,0.0,0.0,0.0,0.0,0.0,0.0,0.0,0.0,0.0,3.55,3.5554,3.5591,3.5598,3.5528,3.549,0.0,0.0,0.0,0.0,0.0,0.0,0.0,0.0,0.0,0.0,0.0,0.0,0.0,0.0,0.0,0.0,0.0,0.0,0.0,0.0,0.0,0.0,0.0,0.0,0.0,0.0,0.0,0.0,0.0,0.0,0.0,0.0,0.0,0.0,0.0,0.0,0.0,0.0,0.0,0.0,0.0,0.0,0.0,0.0,0.0,0.0,0.0,0.0,0.0,0.0,0.0,0.0,0.0,0.0,0.0,0.0,0.0,0.0,0.0,0.0,0.0,0.0,0.0,0.0,0.0,0.0,0.0,0.0,0.0,0.0,0.0,0.0,0.0,0.0,0.0,0.0,0.0,0.0,0.0,0.0,0.0,0.0,0.0,0.0,0.0,0.0,0.0,0.0,0.0,0.0,0.0,0.0,0.0,0.0,0.0,0.0,0.0,0.0,0.0,0.0,0.0,0.0,0.0,0.0,0.0,0.0,0.0,0.0,0.0,3.55,3.552,3.5528,3.5522,3.549,3.5522,0.0,0.0,0.0,0.0,0.0,0.0,0.0,0.0,0.0,0.0,0.0,0.0,0.0,0.0,0.0,0.0,0.0,0.0,0.0,0.0,0.0,0.0,0.0,0.0,0.0,0.0,0.0,0.0,0.0,0.0,0.0,0.0,0.0,0.0,0.0,0.0,0.0,0.0,0.0,0.0,0.0,0.0,0.0,0.0,0.0,0.0,0.0,0.0,0.0,0.0,0.0,0.0,0.0,0.0,0.0,0.0,0.0,0.0,0.0,0.0,0.0,0.0,0.0,0.0,0.0,0.0,0.0,0.0,0.0,0.0,0.0,0.0,0.0,0.0,0.0,0.0,0.0,0.0,0.0,0.0,0.0,0.0,0.0,0.0,0.0,0.0,0.0,0.0,0.0,0.0,0.0,0.0,0.0,0.0,0.0,0.0,0.0,0.0,0.0,0.0,0.0,0.0,0.0,0.0,0.0,0.0,0.0,0.0,3.55,3.55,3.55,3.5494,3.5495,3.5502,3.5528,0.0,0.0,0.0,0.0,0.0,0.0,0.0,0.0,0.0,0.0,0.0,0.0,0.0,0.0,0.0,0.0,0.0,0.0,0.0,0.0,0.0,0.0,0.0,0.0,0.0,0.0,0.0,0.0,0.0,0.0,0.0,0.0,0.0,0.0,0.0,0.0,0.0,0.0,0.0,0.0,0.0,0.0,0.0,0.0,0.0,0.0,0.0,0.0,0.0,0.0,0.0,0.0,0.0,0.0,0.0,0.0,0.0,0.0,0.0,0.0,0.0,0.0,0.0,0.0,0.0,0.0,0.0,0.0,0.0,0.0,0.0,0.0,0.0,0.0,0.0,0.0,0.0,0.0,0.0,0.0,0.0,0.0,0.0,0.0,0.0,0.0,0.0,0.0,0.0,0.0,0.0,0.0,0.0,0.0,0.0,0.0,0.0,0.0,0.0,0.0,0.0,0.0,0.0,0.0,0.0,0.0,0.0,0.0,3.5424,3.5424,3.5439,3.5472,3.5453,3.5493,3.55,0.0,0.0,0.0,0.0,0.0,0.0,0.0,0.0,0.0,0.0,0.0,0.0,0.0,0.0,0.0,0.0,0.0,0.0,0.0,0.0,0.0,0.0,0.0,0.0,0.0,0.0,0.0,0.0,0.0,0.0,0.0,0.0,0.0,0.0,0.0,0.0,0.0,0.0,0.0,0.0,0.0,0.0,0.0,0.0,0.0,0.0,0.0,0.0,0.0,0.0,0.0,0.0,0.0,0.0,0.0,0.0,0.0,0.0,0.0,0.0,0.0,0.0,0.0,0.0,0.0,0.0,0.0,0.0,0.0,0.0,0.0,0.0,0.0,0.0,0.0,0.0,0.0,0.0,0.0,0.0,0.0,0.0,0.0,0.0,0.0,0.0,0.0,0.0,0.0,0.0,0.0,0.0,0.0,0.0,0.0,0.0,0.0,0.0,0.0,0.0,0.0,0.0,0.0,0.0,0.0,0.0,0.0,0.0,3.4936,3.4889,3.5079,3.519,3.519,3.5383,3.55,0.0,0.0,0.0,0.0,0.0,0.0,0.0,0.0,0.0,0.0,0.0,0.0,0.0,0.0,0.0,0.0,0.0,0.0,0.0,0.0,0.0,0.0,0.0,0.0,0.0,0.0,0.0,0.0,0.0,0.0,0.0,0.0,0.0,0.0,0.0,0.0,0.0,0.0,0.0,0.0,0.0,0.0,0.0,0.0,0.0,0.0,0.0,0.0,3.5618,0.0,0.0,0.0,0.0,0.0,0.0,0.0,0.0,0.0,0.0,0.0,0.0,0.0,0.0,0.0,0.0,0.0,0.0,0.0,0.0,0.0,0.0,0.0,0.0,0.0,0.0,0.0,0.0,0.0,0.0,0.0,0.0,0.0,0.0,0.0,0.0,0.0,0.0,0.0,0.0,0.0,0.0,0.0,0.0,0.0,0.0,0.0,0.0,0.0,0.0,0.0,0.0,0.0,0.0,0.0,0.0,0.0,0.0,0.0,3.4724,3.4694,3.4832,3.4917,3.4907,3.5163,3.5369,0.0,0.0,0.0,0.0,0.0,0.0,0.0,0.0,0.0,0.0,0.0,0.0,0.0,0.0,0.0,0.0,0.0,0.0,0.0,0.0,0.0,0.0,0.0,0.0,0.0,0.0,0.0,0.0,0.0,0.0,0.0,0.0,0.0,0.0,0.0,0.0,0.0,0.0,0.0,0.0,0.0,0.0,0.0,0.0,0.0,0.0,0.0,0.0,0.0,0.0,0.0,0.0,0.0,0.0,0.0,0.0,0.0,0.0,0.0,0.0,0.0,0.0,0.0,0.0,0.0,0.0,0.0,0.0,0.0,0.0,0.0,0.0,0.0,0.0,0.0,0.0,0.0,0.0,0.0,0.0,0.0,0.0,0.0,0.0,0.0,0.0,0.0,0.0,0.0,0.0,0.0,0.0,0.0,0.0,0.0,0.0,0.0,0.0,0.0,0.0,0.0,0.0,0.0,0.0,0.0,0.0,0.0,3.458,3.4561,3.4569,3.4612,3.4614,3.4614,3.4889,3.5174,3.5432,0.0,0.0,0.0,0.0,0.0,0.0,0.0,0.0,0.0,0.0,0.0,0.0,0.0,0.0,0.0,0.0,0.0,0.0,0.0,0.0,0.0,0.0,0.0,0.0,0.0,0.0,0.0,0.0,0.0,0.0,0.0,0.0,0.0,0.0,0.0,0.0,0.0,0.0,3.55,3.55,0.0,0.0,0.0,0.0,0.0,0.0,0.0,0.0,3.5541,0.0,0.0,0.0,0.0,0.0,0.0,0.0,0.0,0.0,0.0,0.0,0.0,0.0,0.0,0.0,0.0,0.0,0.0,0.0,0.0,0.0,0.0,0.0,0.0,0.0,0.0,0.0,0.0,0.0,0.0,0.0,0.0,0.0,0.0,0.0,0.0,0.0,0.0,0.0,0.0,0.0,0.0,0.0,0.0,0.0,0.0,0.0,0.0,0.0,0.0,0.0,0.0,0.0,0.0,0.0,0.0,3.4049,3.403,3.4023,3.3972,3.4177,3.4269,3.43,3.4574,3.4879,3.5147,0.0,0.0,0.0,0.0,0.0,0.0,0.0,0.0,0.0,0.0,0.0,0.0,0.0,0.0,0.0,0.0,0.0,0.0,0.0,0.0,0.0,0.0,0.0,0.0,0.0,0.0,0.0,0.0,0.0,0.0,0.0,0.0,0.0,0.0,0.0,0.0,0.0,0.0,0.0,3.55,3.55,0.0,0.0,0.0,0.0,0.0,0.0,0.0,0.0,3.5319,0.0,0.0,0.0,0.0,0.0,0.0,0.0,0.0,0.0,0.0,0.0,0.0,0.0,0.0,0.0,0.0,0.0,0.0,0.0,0.0,0.0,0.0,0.0,0.0,0.0,0.0,0.0,0.0,0.0,0.0,0.0,0.0,0.0,0.0,0.0,0.0,0.0,0.0,0.0,0.0,0.0,0.0,0.0,0.0,0.0,0.0,0.0,0.0,0.0,0.0,0.0,0.0,0.0,0.0,0.0,3.3842,3.3842,3.3847,3.3807,3.391,3.3999,3.3999,3.4277,3.4553,0.0,0.0,0.0,0.0,0.0,0.0,0.0,0.0,0.0,0.0,0.0,0.0,0.0,0.0,0.0,0.0,0.0,0.0,0.0,0.0,0.0,0.0,0.0,0.0,0.0,0.0,0.0,0.0,0.0,0.0,0.0,0.0,0.0,0.0,0.0,0.0,0.0,0.0,0.0,0.0,3.5297,3.5246,3.5157,0.0,0.0,0.0,0.0,0.0,0.0,3.5079,3.5088,0.0,0.0,0.0,0.0,0.0,0.0,0.0,0.0,0.0,0.0,0.0,0.0,0.0,0.0,0.0,0.0,0.0,0.0,0.0,0.0,0.0,0.0,0.0,0.0,0.0,0.0,0.0,0.0,0.0,0.0,0.0,0.0,0.0,0.0,0.0,0.0,0.0,0.0,0.0,0.0,0.0,0.0,0.0,0.0,0.0,0.0,0.0,0.0,0.0,0.0,0.0,0.0,0.0,0.0,0.0,3.3807,3.3807,3.3807,3.3807,3.3807,3.3807,3.382,3.4012,3.4242,0.0,0.0,0.0,0.0,0.0,0.0,0.0,0.0,0.0,0.0,0.0,0.0,0.0,0.0,0.0,0.0,0.0,0.0,0.0,0.0,0.0,0.0,0.0,0.0,0.0,0.0,0.0,0.0,0.0,0.0,0.0,0.0,0.0,0.0,0.0,0.0,0.0,0.0,0.0,0.0,0.0,3.5025,3.487,3.4935,0.0,0.0,0.0,0.0,3.5058,3.5057,0.0,0.0,0.0,0.0,0.0,0.0,0.0,0.0,0.0,0.0,0.0,0.0,0.0,0.0,0.0,0.0,0.0,0.0,0.0,0.0,0.0,0.0,0.0,0.0,0.0,0.0,0.0,0.0,0.0,0.0,0.0,0.0,0.0,0.0,0.0,0.0,0.0,0.0,0.0,0.0,0.0,0.0,0.0,0.0,0.0,0.0,0.0,0.0,0.0,0.0,0.0,0.0,0.0,0.0,0.0,0.0,3.3807,3.3807,3.3807,3.3807,3.3807,3.3807,3.3807,3.3829,3.3974,0.0,0.0,0.0,0.0,0.0,0.0,0.0,0.0,0.0,0.0,0.0,0.0,0.0,0.0,0.0,0.0,0.0,0.0,0.0,0.0,0.0,0.0,0.0,0.0,0.0,0.0,0.0,0.0,0.0,0.0,0.0,0.0,0.0,0.0,0.0,0.0,0.0,0.0,0.0,0.0,0.0,3.5079,3.4999,3.486,3.4753,0.0,0.0,3.4705,3.5496,3.5608,0.0,0.0,0.0,0.0,0.0,0.0,0.0,0.0,0.0,0.0,0.0,0.0,0.0,0.0,0.0,0.0,0.0,0.0,0.0,0.0,0.0,0.0,0.0,0.0,0.0,0.0,0.0,0.0,0.0,0.0,0.0,0.0,0.0,0.0,0.0,0.0,0.0,0.0,0.0,0.0,0.0,0.0,0.0,0.0,0.0,0.0,0.0,0.0,0.0,0.0,0.0,0.0,0.0,0.0,0.0,3.39,3.3951,3.4534,3.4877,3.4892,3.5117,3.5202,3.522,3.522,3.5113,0.0,0.0,0.0,0.0,0.0,0.0,0.0,0.0,0.0,0.0,0.0,0.0,0.0,0.0,0.0,0.0,0.0,0.0,0.0,0.0,0.0,0.0,0.0,0.0,0.0,0.0,0.0,0.0,0.0,0.0,0.0,0.0,0.0,0.0,0.0,0.0,0.0,0.0,0.0,0.0,0.0,0.0,3.439,3.4409,0.0,0.0,0.0,3.531,3.6043,0.0,0.0,0.0,0.0,0.0,0.0,0.0,0.0,0.0,0.0,0.0,0.0,0.0,0.0,0.0,0.0,0.0,0.0,0.0,0.0,0.0,0.0,0.0,0.0,0.0,0.0,0.0,0.0,0.0,0.0,0.0,0.0,0.0,0.0,0.0,0.0,0.0,0.0,0.0,0.0,0.0,0.0,0.0,0.0,0.0,0.0,0.0,0.0,0.0,0.0,0.0,0.0,0.0,0.0,0.0,0.0,0.0,3.4296,3.5115,3.5551,3.5551,3.5841,3.6042,3.6135,3.615,0.0,0.0,0.0,0.0,0.0,0.0,0.0,0.0,0.0,0.0,0.0,0.0,0.0,0.0,0.0,0.0,0.0,0.0,0.0,0.0,0.0,0.0,0.0,0.0,0.0,0.0,0.0,3.4663,0.0,0.0,0.0,0.0,0.0,0.0,0.0,0.0,0.0,0.0,0.0,0.0,0.0,0.0,3.4525,3.457,3.4679,3.4927,0.0,0.0,3.601,3.6676,3.6782,3.6851,0.0,0.0,0.0,0.0,0.0,0.0,0.0,0.0,0.0,0.0,0.0,0.0,0.0,0.0,0.0,0.0,0.0,0.0,0.0,0.0,0.0,0.0,0.0,0.0,0.0,0.0,0.0,0.0,0.0,0.0,0.0,0.0,0.0,0.0,0.0,0.0,0.0,0.0,0.0,0.0,0.0,0.0,0.0,0.0,0.0,0.0,0.0,0.0,0.0,0.0,0.0,0.0,0.0,0.0,0.0,3.5028,3.5098,3.5151,3.5151,3.515,3.5353,3.5747,3.5745,3.5918,0.0,0.0,0.0,0.0,0.0,0.0,0.0,0.0,0.0,0.0,0.0,0.0,0.0,0.0,0.0,0.0,0.0,0.0,0.0,0.0,0.0,0.0,0.0,0.0,0.0,0.0,0.0,0.0,0.0,0.0,0.0,0.0,0.0,0.0,0.0,0.0,0.0,0.0,0.0,0.0,0.0,3.5653,3.6332,3.6279,3.6166,0.0,0.0,3.6558,3.7393,3.7518,3.779,3.86,0.0,0.0,0.0,0.0,0.0,0.0,0.0,0.0,0.0,0.0,0.0,0.0,0.0,0.0,0.0,0.0,0.0,0.0,0.0,0.0,0.0,0.0,0.0,0.0,0.0,0.0,0.0,0.0,0.0,0.0,0.0,0.0,0.0,0.0,0.0,0.0,0.0,0.0,0.0,0.0,0.0,0.0,0.0,0.0,0.0,0.0,0.0,0.0,0.0,0.0,0.0,0.0,0.0,3.4972,3.4972,3.5661,3.6023,3.6043,3.6306,3.6524,3.6683,3.6771,3.6659,0.0,0.0,0.0,0.0,0.0,0.0,0.0,0.0,0.0,0.0,0.0,0.0,0.0,0.0,0.0,0.0,0.0,0.0,0.0,0.0,0.0,0.0,0.0,0.0,0.0,0.0,0.0,0.0,3.4111,3.4111,3.4111,0.0,0.0,0.0,0.0,0.0,0.0,0.0,0.0,0.0,0.0,3.6094,3.6381,3.6356,0.0,0.0,3.7033,3.7327,3.8132,3.8275,3.8382,3.8725,3.878,0.0,0.0,0.0,0.0,0.0,0.0,0.0,0.0,0.0,0.0,0.0,0.0,0.0,0.0,0.0,0.0,0.0,0.0,0.0,0.0,0.0,0.0,0.0,0.0,0.0,0.0,0.0,0.0,0.0,0.0,0.0,0.0,0.0,0.0,0.0,0.0,0.0,0.0,0.0,0.0,0.0,0.0,0.0,0.0,0.0,0.0,0.0,0.0,0.0,0.0,0.0,0.0,3.5245,3.5245,3.6008,3.6412,3.6412,3.6744,3.6981,3.7097,3.719,3.7036,0.0,0.0,0.0,0.0,0.0,0.0,0.0,0.0,0.0,0.0,0.0,0.0,0.0,0.0,0.0,0.0,0.0,0.0,0.0,0.0,0.0,0.0,0.0,0.0,0.0,0.0,0.0,0.0,3.3932,3.4004,3.4004,0.0,0.0,0.0,0.0,0.0,0.0,0.0,0.0,0.0,0.0,3.645,3.656,3.6674,3.6985,3.7549,3.7751,3.8016,3.8439,3.8533,3.8483,3.8368,0.0,0.0,0.0,0.0,0.0,0.0,0.0,0.0,0.0,0.0,0.0,0.0,0.0,0.0,0.0,0.0,0.0,0.0,0.0,0.0,0.0,0.0,0.0,0.0,0.0,0.0,0.0,0.0,0.0,0.0,0.0,0.0,0.0,0.0,0.0,0.0,0.0,0.0,0.0,0.0,0.0,0.0,0.0,0.0,0.0,0.0,0.0,0.0,0.0,0.0,0.0,0.0,0.0,3.5941,3.598,3.598,3.5997,3.6002,3.6023,3.6237,3.66,3.662,3.6825,3.7214,0.0,0.0,0.0,0.0,0.0,0.0,0.0,0.0,0.0,0.0,0.0,0.0,0.0,0.0,0.0,0.0,0.0,0.0,0.0,0.0,0.0,0.0,0.0,0.0,0.0,0.0,3.3922,3.4208,3.4488,0.0,0.0,0.0,0.0,0.0,0.0,0.0,0.0,0.0,0.0,3.6431,3.6804,3.7109,3.756,3.782,3.7874,3.8296,3.8528,3.8152,3.8119,3.7965,0.0,0.0,0.0,0.0,0.0,0.0,0.0,0.0,0.0,0.0,0.0,0.0,0.0,0.0,0.0,0.0,0.0,0.0,0.0,0.0,0.0,0.0,0.0,0.0,0.0,0.0,0.0,3.5068,3.5085,0.0,0.0,0.0,0.0,0.0,0.0,0.0,0.0,0.0,0.0,0.0,3.4011,3.4011,0.0,0.0,0.0,0.0,0.0,0.0,0.0,0.0,0.0,0.0,0.0,0.0,3.5385,3.5694,3.5368,3.5368,3.5734,3.5839,3.5932,3.6067,3.6174,3.6392,3.6805,0.0,0.0,0.0,0.0,0.0,0.0,0.0,0.0,0.0,0.0,0.0,0.0,0.0,0.0,0.0,0.0,0.0,0.0,0.0,0.0,0.0,0.0,0.0,0.0,0.0,3.5648,0.0,0.0,0.0,0.0,0.0,0.0,0.0,0.0,0.0,0.0,0.0,3.6006,3.597,3.6576,3.7057,3.7193,3.734,3.7433,0.0,0.0,0.0,0.0,0.0,0.0,0.0,0.0,0.0,0.0,0.0,0.0,0.0,0.0,3.9993,3.9938,4.0465,4.0919,4.1033,0.0,0.0,0.0,0.0,0.0,0.0,0.0,0.0,0.0,0.0,0.0,0.0,0.0,0.0,0.0,0.0,3.4529,0.0,0.0,0.0,0.0,0.0,0.0,0.0,0.0,3.4984,3.4704,3.4197,3.4171,3.4171,0.0,3.4171,3.4316,0.0,0.0,0.0,0.0,0.0,0.0,0.0,0.0,3.4697,3.4998,3.4697,3.4697,3.5045,3.5333,3.5447,3.547,3.5756,3.6062,3.6308,3.6542,3.6786,0.0,0.0,0.0,0.0,0.0,0.0,0.0,0.0,0.0,0.0,0.0,0.0,0.0,0.0,0.0,0.0,0.0,0.0,0.0,0.0,0.0,0.0,0.0,3.582,0.0,0.0,0.0,0.0,0.0,0.0,0.0,0.0,0.0,3.551,3.5989,3.6244,3.5898,3.6453,3.6862,3.6666,0.0,0.0,0.0,0.0,0.0,0.0,0.0,3.8566,3.8424,3.8866,3.9329,3.9627,3.9852,4.0118,4.0339,0.0,0.0,4.0281,4.0748,4.1209,4.1279,4.1415,4.1654,4.2157,4.1893,4.1678,0.0,0.0,0.0,0.0,0.0,0.0,0.0,0.0,3.4083,3.4083,0.0,3.4099,0.0,0.0,0.0,0.0,0.0,0.0,0.0,0.0,3.5284,3.4992,3.4503,3.4488,3.4489,3.4489,3.4503,3.4377,3.4187,3.4066,0.0,0.0,0.0,0.0,0.0,0.0,3.3986,3.4084,3.4043,3.4018,3.4133,3.4586,3.4868,3.4932,3.5525,3.5875,3.5868,3.6339,3.6594,3.658,3.7001,0.0,0.0,0.0,0.0,0.0,0.0,0.0,0.0,0.0,0.0,0.0,0.0,0.0,0.0,0.0,0.0,0.0,0.0,0.0,0.0,3.5186,0.0,0.0,0.0,0.0,0.0,0.0,0.0,0.0,0.0,0.0,3.5448,3.6389,3.6823,3.5915,0.0,0.0,0.0,0.0,3.6721,3.7409,3.7953,3.8383,3.8699,3.8773,3.8676,3.83,0.0,0.0,3.9313,4.0031,4.0483,4.0493,4.0483,4.0583,4.0813,4.1145,4.1415,4.1459,4.1768,4.2115,4.2136,4.2092,4.2148,3.5374,0.0,0.0,0.0,0.0,3.5756,3.5427,3.4934,3.4934,3.4907,3.4918,3.4934,0.0,0.0,0.0,0.0,0.0,0.0,3.5687,3.4948,3.5046,3.4789,3.4297,3.4297,3.4297,3.4268,3.4297,3.4175,3.3988,3.4107,3.4101,3.4002,0.0,0.0,0.0,0.0,3.3838,3.4639,3.435,3.4579,3.5505,3.5646,3.5946,3.6357,3.6554,3.6604,3.6514,3.6711,3.6571,3.6075,3.6262,0.0,0.0,0.0,0.0,0.0,0.0,0.0,0.0,0.0,0.0,0.0,0.0,0.0,0.0,0.0,0.0,0.0,0.0,0.0,3.6701,3.6097,3.5902,0.0,0.0,0.0,0.0,0.0,0.0,0.0,0.0,0.0,3.556,3.5831,3.5963,0.0,0.0,3.6639,3.6497,3.7012,3.7552,3.7757,0.0,0.0,0.0,3.8675,3.9033,3.8932,3.943,3.9929,4.0151,4.0356,4.051,4.051,4.051,4.0534,4.0607,4.0782,4.0965,4.1047,4.1186,4.1277,4.1295,4.1678,4.2056,3.5761,3.6074,3.6103,3.5916,3.5671,3.5742,3.5411,3.4878,3.4878,3.482,3.4732,3.4747,3.5089,3.567,3.5938,0.0,0.0,0.0,3.5761,3.529,3.5348,3.5244,3.4942,3.4912,3.4912,3.4912,3.4912,3.4699,3.4349,3.4455,3.4376,3.4094,0.0,0.0,3.4186,3.3877,3.4066,3.4745,3.4474,3.471,3.5439,3.566,3.6082,3.6619,3.6636,3.6618,3.653,3.6554,3.6499,3.6286,3.6375,3.6536,0.0,0.0,0.0,0.0,0.0,0.0,0.0,0.0,0.0,0.0,0.0,3.7323,0.0,0.0,0.0,0.0,3.702,3.6803,3.6583,3.6178,0.0,0.0,0.0,0.0,0.0,0.0,0.0,3.6068,3.5942,3.5927,3.6125,3.5928,3.5859,3.6044,3.6738,3.7229,3.7229,0.0,3.7894,3.7951,3.7977,3.8078,3.838,3.8833,3.9303,3.9527,4.0212,4.0763,4.078,4.1001,4.1206,4.1206,4.1223,4.1231,4.1298,4.1348,4.1363,4.1212,4.1415,4.1604,4.1621,4.1965,4.2291,3.5973,3.5993,3.6068,3.5709,3.5117,3.5291,3.4992,3.4361,3.4361,3.4226,3.4061,3.4061,3.4455,3.5124,3.5716,0.0,3.5973,3.5973,3.599,3.5957,3.5973,3.5973,3.5973,3.5958,3.5973,3.5958,3.5973,3.567,3.5047,3.5063,3.4805,3.4331,3.4525,3.4583,3.4491,3.4445,3.4491,3.4552,3.4582,3.4597,3.4659,3.5136,3.5641,3.6206,3.6201,3.6212,3.6174,3.6201,3.6424,3.6909,3.7003,3.7285,3.7811,0.0,0.0,0.0,0.0,0.0,0.0,0.0,0.0,0.0,0.0,0.0,0.0,0.0,0.0,0.0,3.6603,0.0,3.5667,3.5684,0.0,0.0,0.0,3.5831,3.5831,3.5701,3.5925,3.6656,0.0,0.0,0.0,0.0,3.6326,3.6791,3.7415,3.7829,3.7846,3.7889,3.796,3.8112,3.81,3.8391,3.9009,3.9257,3.9518,3.9999,4.0702,4.1028,4.1096,4.156,4.2041,4.1981,4.2092,4.2102,4.2269,4.2252,4.2317,4.1759,4.2211,4.2672,4.2621,4.2706,4.2834,3.5861,3.5668,3.5921,3.5922,3.5753,3.583,3.5737,3.5597,3.555,3.555,3.5488,3.5472,3.561,3.5777,3.5929,3.5894,3.5799,3.5926,3.5861,3.5619,3.5703,3.5784,3.5752,3.5784,3.5752,3.5752,3.5799,3.5627,3.5394,3.5477,3.5481,3.5347,3.555,3.5171,3.4314,3.4252,3.4513,3.5033,3.5199,3.5521,3.603,3.6152,3.6483,3.7086,3.7086,3.7045,3.6949,3.6944,3.674,3.6354,3.6316,3.6395,3.6551,3.7003,0.0,0.0,0.0,0.0,0.0,0.0,0.0,0.0,0.0,3.702,3.7103,0.0,3.592,0.0,3.5554,3.5355,3.5789,3.5449,0.0,0.0,3.6018,3.6018,3.6034,3.5992,3.6032,3.6238,3.614,3.6127,3.6289,3.667,3.6988,3.7094,3.7251,3.7349,3.7392,3.7866,3.8226,3.8236,3.8274,3.8518,3.9146,3.9718,4.0053,4.0217,4.0422,4.0508,4.0536,4.0667,4.0782,4.0782,4.0782,4.0782,4.0901,4.1659,4.232,4.225,4.2459,4.2697,4.2697,4.3184,4.3611,3.5683,3.5504,3.5701,3.5765,3.5765,3.5957,3.5973,3.5863,3.5863,3.5846,3.578,3.5765,3.578,3.5765,3.5765,3.5733,3.5621,3.5733,3.5683,3.5504,3.5587,3.5589,3.5621,3.5636,3.5621,3.5606,3.5636,3.5572,3.5504,3.5587,3.5638,3.572,3.575,3.5483,3.4896,3.4942,3.5263,3.5784,3.5891,3.6107,3.6476,3.6492,3.6662,3.6983,3.6983,3.696,3.6906,3.6875,3.68,3.669,3.6686,3.6825,3.7085,3.7383,3.7453,0.0,0.0,0.0,0.0,0.0,0.0,0.0,0.0,0.0,0.0,0.0,3.5859,0.0,3.5597,3.5536,3.5946,3.5688,3.5667,3.6071,3.6093,3.6093,3.6093,3.6093,3.6222,3.6556,3.636,3.6306,3.6626,3.681,3.6891,3.6891,3.7144,3.7427,3.7701,3.8311,3.8649,3.8405,3.8603,3.891,3.931,3.9889,4.0326,4.0342,4.0585,4.0795,4.0795,4.1053,4.1294,4.1278,4.1294,4.1278,4.131,4.1843,4.2425,4.2466,4.2526,4.2836,4.341,4.365,4.3782,3.5489,3.5489,3.5489,3.5489,3.5537,3.5797,3.5831,3.5655,3.5671,3.5621,3.5489,3.5489,3.5489,3.5489,3.5489,3.5489,3.5489,3.5489,3.5489,3.5489,3.5489,3.5489,3.5489,3.5489,3.5489,3.5489,3.5489,3.5424,3.5359,3.5344,3.5362,3.5382,3.5264,3.5297,3.5415,3.5559,3.5894,3.6429,3.646,3.646,3.646,3.6476,3.6492,3.6492,3.6492,3.6492,3.6492,3.6492,3.6754,3.7238,3.7282,3.7519,3.8039,3.8137,3.8153,0.0,3.821,0.0,0.0,0.0,0.0,0.0,0.0,0.0,0.0,3.6168,3.6093,3.6093,3.6023,3.6045,3.6099,3.6061,3.6038,3.6135,3.6151,3.6151,3.6151,3.6151,3.6419,3.703,3.6629,3.6607,3.7126,3.6878,3.6646,3.6754,3.7264,3.781,3.8259,3.8755,3.8932,3.8494,3.8905,3.9157,3.9251,3.9672,4.0025,4.0089,4.0427,4.1032,4.0875,4.1402,4.1931,4.1964,4.1853,4.1964,4.2189,4.2236,4.2331,4.2299,4.2407,4.2855,4.3785,4.371,4.3617,3.5489,3.5489,3.5489,3.5489,3.5504,3.5569,3.5554,3.5522,3.5522,3.5522,3.5489,3.5489,3.5489,3.5489,3.5489,3.5489,3.5489,3.5489,3.5489,3.5489,3.5489,3.5489,3.5489,3.5489,3.5489,3.5489,3.5489,3.5166,3.4528,3.4528,3.4225,3.3665,3.3659,3.3713,3.3905,0.0,0.0,0.0,3.6211,3.6242,3.6242,3.6414,3.6492,3.6492,3.6492,0.0,3.6492,3.6492,3.6554,3.6677,3.6662,0.0,0.0,0.0,0.0,0.0,0.0,0.0,0.0,0.0,0.0,0.0,3.7085,3.7242,3.7014,3.6443,3.6093,3.6093,3.5687,3.5665,3.622,3.5851,3.5836,3.6349,3.6412,3.6412,3.6412,3.6442,3.6489,3.6628,3.6522,3.6507,3.6708,3.7016,3.7307,3.7338,3.7892,3.8328,3.8462,3.862,3.8585,3.8518,3.869,3.8704,3.8656,3.8865,3.9088,3.8866,3.8897,3.9148,3.9259,3.929,3.9553,4.0053,4.008,4.0331,4.0829,4.1309,4.1673,4.1673,4.2126,4.2567,4.2831,4.2816,4.2738,3.5489,0.0,3.5489,3.5489,0.0,3.5489,3.5489,3.5489,3.5489,3.5489,3.5489,3.5489,3.5489,3.5489,3.5489,3.5489,3.5489,3.5489,3.5489,3.5489,3.5489,3.5489,3.5489,3.5489,3.5684,3.5983,3.5998,3.5737,3.5256,3.5221,3.4837,3.404,3.4054,3.4076,3.4198,3.409,3.4277,3.4776,3.527,3.5608,3.5657,3.6116,3.6414,3.6492,0.0,0.0,0.0,0.0,0.0,0.0,0.0,0.0,0.0,0.0,0.0,3.6523,3.7072,3.7133,3.6585,3.7072,3.7133,3.6538,3.6785,3.6933,3.6866,3.6519,3.6285,3.6301,3.6039,3.6018,3.6345,3.6151,3.6122,3.6445,3.6492,3.6492,3.6492,3.6492,3.6492,3.6538,3.6784,3.6984,3.6999,3.7584,3.7984,3.8031,3.8569,3.9016,3.897,3.8708,3.8616,3.8939,3.8982,3.9139,3.9431,3.9474,3.9444,3.9474,3.9474,3.9474,3.9474,3.9474,3.9613,3.992,3.9982,4.012,4.0416,4.0768,4.099,4.107,4.1574,4.2029,4.2047,4.2025,4.2109,3.5636,3.5636,3.5768,3.5848,3.5848,3.5833,3.5848,3.5833,0.0,0.0,0.0,3.5489,3.5489,3.5489,3.5489,3.5489,3.5504,3.5624,3.5684,3.5684,3.5804,3.5848,3.5833,3.5848,3.6118,3.6641,3.6507,3.6301,3.5978,3.5849,3.5362,3.457,3.4533,3.4509,3.4495,3.4495,3.4122,3.3465,3.4407,3.4999,3.5118,3.5729,3.6213,3.6546,3.6408,3.6426,3.663,3.6522,3.6445,3.6492,3.6492,3.6492,3.6492,3.6492,3.6492,3.6492,3.6492,3.6492,3.6492,3.6492,3.6492,3.6492,3.6492,3.6492,3.6492,3.6492,3.6492,3.6492,3.6492,3.6492,3.6492,3.6492,3.6492,3.6492,3.6492,3.6538,3.6661,3.6661,3.6753,3.6876,3.7369,3.7677,3.7707,3.8262,3.8692,3.8769,3.9228,3.9582,3.9474,3.92,3.917,3.9567,3.9536,3.9644,4.009,4.0028,4.0151,3.9905,3.9997,4.0136,4.0136,4.0136,4.0182,4.0182,4.0382,4.0536,4.0659,4.0893,4.0843,4.0858,4.1355,4.1771,4.1745,4.1731,4.1933,3.6087,3.6172,3.6862,3.715,3.7135,3.7135,3.7135,3.7045,3.5983,3.5504,3.5489,3.5489,3.5489,3.5489,3.5489,3.5489,3.5534,3.6103,3.6342,0.0,3.6881,3.715,3.715,3.715,3.7195,3.7201,3.6564,3.592,3.5229,3.4537,3.3738,3.3119,3.3027,3.304,3.2975,3.3027,3.2948,3.2867,3.4344,3.5151,3.5187,3.5454,3.5952,3.6616,3.6122,3.6256,3.7052,3.6532,3.632,3.6492,3.6492,3.6492,3.6492,3.6507,3.6492,3.6492,3.6492,3.6492,3.6492,3.6492,3.6492,3.6492,3.6492,3.6492,3.6492,3.6492,3.6492,3.6492,3.6492,3.6492,3.6492,3.6507,3.6538,3.6522,3.6507,3.6707,3.7277,3.7369,3.7522,3.7996,3.8292,3.8337,3.835,3.8888,3.9269,3.9428,3.9726,4.0101,3.9668,3.992,4.0213,4.0243,3.9844,3.9616,3.9739,3.917,3.9093,3.8785,3.897,3.9154,3.9231,3.9231,3.94,3.9628,4.0305,4.0782,4.134,4.194,4.2125,4.2171,4.234,4.2463,4.2463,4.2484,4.253,3.5508,3.553,3.5906,3.6314,3.6766,3.6752,3.6752,3.6637,3.5633,3.5712,3.6503,3.6537,3.6537,3.6537,3.6537,3.6537,3.6552,3.6851,3.6985,3.6967,3.6842,3.699,3.7302,3.6491,3.6488,3.7195,3.6424,3.5817,3.5399,3.5012,3.4433,3.3654,3.3626,3.3613,3.3613,3.3613,3.3626,3.3641,3.4165,3.4509,3.4608,3.5091,3.5567,3.6035,3.5732,3.5834,3.6419,3.6123,3.6077,3.6276,3.6725,3.694,3.694,3.6992,3.703,3.703,3.6315,3.6085,3.6492,3.6116,3.5737,3.532,3.5302,3.5302,3.5287,3.6038,3.6492,3.6492,3.6492,3.6492,3.6507,3.6815,3.703,3.7046,3.7338,3.7707,3.7969,3.8046,3.7991,3.7901,3.8182,3.8395,3.8395,3.8985,3.9379,3.9425,3.9698,3.9698,3.946,4.0002,4.0351,4.0031,3.969,3.9739,3.992,3.9797,3.9598,3.9582,3.9567,3.9785,4.0062,4.0185,4.0447,4.1032,4.1463,4.1704,4.2125,4.2371,4.2571,4.2648,4.294,4.3079,4.314,4.3387,4.3541,3.5085,3.5099,3.5236,3.5684,3.6265,3.6214,3.6214,3.6214,3.5498,3.5929,3.7013,3.6919,3.6821,3.6821,3.6856,3.6807,3.6886,3.7208,3.7267,3.7057,3.6764,3.6858,3.7143,3.5921,3.5976,3.6954,3.6254,3.5786,3.5695,3.5507,3.5073,3.4439,3.4397,3.4397,3.4397,3.4397,3.4397,3.4387,3.4113,3.4026,3.418,3.4719,3.5175,3.5513,3.5386,3.5501,3.5853,3.5775,3.5762,3.6028,3.6617,3.6981,3.702,3.7146,3.7172,3.7094,3.6166,3.5816,3.6302,3.5881,3.5337,3.4733,3.4714,3.4714,3.483,3.5735,3.6354,3.6233,3.6169,3.6246,3.641,3.6821,3.7172,3.7203,3.7613,3.7879,3.8113,3.8193,3.805,3.7585,3.7946,3.8258,3.8347,3.8689,3.8992,3.9007,3.9052,3.9015,3.9088,3.9621,3.9677,3.9447,3.9451,3.9905,4.0413,4.0459,4.0505,4.0659,4.0705,4.1016,4.1494,4.1771,4.1955,4.2371,4.2663,4.2756,4.2817,4.3017,4.3125,4.3233,4.3541,4.384,4.3855,4.4178,4.4387,3.5599,3.5732,3.6085,3.6479,3.6462,3.6253,3.6292,3.6476,3.6203,3.6164,3.6192,3.5494,3.5192,3.5113,3.5192,3.5257,3.5373,3.6583,3.6843,3.6329,3.744,3.7633,3.6963,3.6722,3.6792,3.6821,3.6091,3.5641,3.5588,3.4909,3.4468,3.4397,3.4397,3.4397,3.4397,3.4397,3.4397,3.4397,3.4376,3.4365,3.4352,3.4434,3.4859,3.5639,3.5082,3.5223,3.6033,3.5586,3.5435,3.5798,3.5913,3.6043,3.6222,3.627,3.6227,3.6262,3.6119,3.6069,3.6125,3.6069,3.594,3.5927,3.5798,3.5783,3.5798,3.599,3.5863,3.5481,3.5355,3.5643,3.6038,3.6254,3.6403,3.6474,3.652,3.6553,3.7207,3.7215,3.7419,3.7994,3.7994,3.8125,3.8067,3.8154,3.8213,3.8227,3.8213,3.8227,3.8213,3.8436,3.8605,3.8635,3.9373,4.0259,4.0482,4.0505,4.0793,4.132,4.1509,4.1817,4.2279,4.2509,4.2586,4.294,4.3171,4.3501,4.3639,4.3963,4.4279,4.411,4.4264,4.4471,4.4502,4.4548,4.4517,3.4758,3.4744,3.4841,3.5183,3.5628,3.5521,3.5561,3.5615,3.4966,3.4733,3.468,3.4352,3.4724,3.5686,3.5854,3.5906,3.5959,3.6708,3.6821,3.649,3.6693,3.6805,3.6816,3.5829,3.5642,3.6082,3.5345,3.4909,3.4868,3.4564,3.4397,3.4397,3.4397,3.4397,3.4397,3.4397,3.4397,3.4397,3.4397,3.4397,3.4397,3.4397,3.4551,3.4855,3.4643,3.4767,3.5249,3.5112,3.5108,3.5382,3.5819,3.6202,3.6391,3.6462,3.6577,3.6657,3.6288,3.5718,3.4836,3.5192,3.528,3.4836,3.4813,3.4813,3.4813,3.4813,3.4813,3.5022,3.541,3.5875,3.6079,3.6454,3.6707,3.6751,3.7041,3.7359,3.7628,3.7672,3.7667,3.7496,3.7396,3.741,3.741,3.741,3.741,3.741,3.741,3.7372,3.741,3.7762,3.8237,3.8632,3.9261,3.9808,4.0275,4.0434,4.0948,4.1812,4.2186,4.2432,4.2971,4.3171,4.3279,4.3648,4.391,4.4132,4.4194,4.4348,4.461,4.461,4.461,4.461,4.461,4.461,4.461,3.3992,3.3949,3.3725,3.3995,3.454,3.4511,3.4511,3.447,3.3839,3.3513,3.3569,3.3513,3.4178,3.5278,3.5682,3.5815,3.5855,3.6213,3.6253,3.6015,3.5669,3.5816,3.5989,3.4978,3.4716,3.5155,3.4716,3.4397,3.4397,3.4397,3.4397,3.4397,3.4397,3.4397,3.4397,3.4397,3.4397,3.4397,3.4397,3.4397,3.4397,3.4397,3.4397,3.4397,3.4397,3.4494,3.4673,3.4673,3.4784,3.5031,3.5575,3.599,3.6175,3.6308,3.6438,3.6571,3.6164,3.5475,3.4473,3.4909,3.4947,3.4382,3.4356,3.4395,3.4317,3.4356,3.4585,3.5015,3.5641,3.5952,3.6054,3.6418,3.6698,3.6741,3.7192,3.7472,3.7381,3.742,3.7151,3.6663,3.6584,3.6545,3.6545,3.6545,3.6584,3.6598,3.6598,3.6656,3.6833,3.7321,3.7855,3.8492,3.8581,3.9092,3.9991,4.0255,4.092,4.1708,4.2152,4.2657,4.3402,4.3615,4.3901,4.4156,4.4502,4.4579,4.4471,4.4548,4.461,4.461,4.4625,4.4641,4.461,4.4718,4.4849,3.3713,3.367,3.3484,3.3441,3.3484,3.3326,3.3326,3.3556,3.324,3.3154,3.3154,3.3167,3.3197,3.3398,3.3839,3.3882,3.3995,3.4746,3.4746,3.4191,3.4869,3.4924,3.4272,3.4314,3.4439,3.4564,3.4481,3.4397,3.4397,3.4397,3.4397,3.4397,3.4397,3.4397,3.4397,3.4397,3.4397,3.4397,3.4397,3.4397,3.4397,3.4397,3.4397,3.4397,3.4397,3.4397,3.4439,3.4439,3.4522,3.4797,3.488,3.5003,3.5154,3.5237,3.5359,3.5507,3.5494,3.5507,3.552,3.5573,3.5507,3.5332,3.5332,3.5507,3.5224,3.5345,3.5466,3.5642,3.5694,3.5732,3.5772,3.5878,3.5894,3.5868,3.5856,3.5937,3.5897,3.6044,3.5831,3.5831,3.5871,3.5911,3.5831,3.5764,3.5858,3.5885,3.5831,3.6062,3.6648,3.6757,3.7112,3.755,3.7853,3.8117,3.9541,3.9963,4.0278,4.1179,4.2118,4.2485,4.3262,4.3897,4.422,4.445,4.4389,4.4404,4.4518,4.461,4.461,4.4641,4.4695,4.471,4.4856,4.5218,4.5449,3.3428,3.3313,3.324,3.3197,3.3197,3.3111,3.3167,3.3197,3.3111,3.3124,3.3124,3.3124,3.3124,3.3124,3.324,3.3398,3.3556,3.3953,3.3982,3.3755,3.4108,3.4204,3.4147,3.416,3.4285,3.4397,3.4397,3.4397,3.4397,3.4397,3.4397,3.4397,3.4397,3.4397,3.4397,3.4397,3.4397,3.4397,3.4397,3.4397,3.4397,3.4397,3.4397,3.4397,3.4397,3.4397,3.4397,3.4397,3.4439,3.4548,3.4535,3.466,3.488,3.5044,3.5127,3.5195,3.5208,3.5236,3.5331,3.5318,3.5358,3.5399,3.548,3.5562,3.5602,3.5669,3.571,3.571,3.571,3.571,3.571,3.571,3.571,3.571,3.571,3.571,3.571,3.571,3.571,3.571,3.571,3.571,3.575,3.5723,3.5873,3.6198,3.628,3.6551,3.7012,3.7202,3.7363,3.7921,3.8111,3.8406,3.9262,3.9688,4.0114,4.1175,4.1997,4.2078,4.26,4.275,4.2976,4.3121,4.3334,4.3817,4.3871,4.4557,4.458,4.4856,4.491,4.5203,4.5257,4.5788,4.6095,3.324,3.3124,3.3124,3.3124,3.3124,3.3124,3.3124,3.3124,3.3124,3.3124,3.3124,3.3124,3.3124,3.3124,3.3124,3.3154,3.3326,3.3428,3.3513,3.3526,3.3598,3.3725,3.3937,3.4076,3.4202,3.4356,3.4397,3.4397,3.4397,3.4397,3.4397,3.4397,3.4397,3.4397,3.4397,3.4397,3.4397,3.4397,3.4397,3.4397,3.4397,3.4397,3.4397,3.4397,3.4397,3.4397,3.4397,3.4397,3.4397,3.4397,3.4397,3.4494,3.4673,3.4784,3.4908,3.5003,3.5003,3.5044,3.5072,3.5072,3.5113,3.5208,3.5318,3.544,3.5521,3.5629,3.571,3.571,3.571,3.571,3.571,3.571,3.571,3.571,3.571,3.571,3.571,3.571,3.571,3.571,3.571,3.5791,3.5954,3.6008,3.6307,3.6822,3.6904,3.7148,3.7607,3.7797,3.793,3.8428,3.855,3.8668,3.8976,3.9168,3.9434,4.0378,4.1139,4.1365,4.1519,4.1589,4.1742,4.1838,4.2225,4.2813,4.3519,4.4308,4.4795,4.5118,4.5526,4.5911,4.6126,4.6465,4.6757,3.3124,3.3124,3.3124,3.3124,3.3124,3.3124,3.3124,3.3124,3.3124,3.3124,3.3124,3.3124,3.3124,3.3124,3.3124,3.3124,3.3124,3.3154,3.3154,3.3167,3.3313,3.3526,3.3725,3.3949,3.416,3.4356,3.4397,3.4397,3.4397,3.4397,3.4397,3.4397,3.4397,3.4397,3.4397,3.4397,3.4397,3.4397,3.4397,3.4397,3.4397,3.4397,3.4397,3.4397,3.4397,3.4397,3.4397,3.4397,3.4397,3.4397,3.4397,3.4397,3.4439,3.4439,3.4535,3.4756,3.4797,3.4893,3.5044,3.5031,3.4949,3.4962,3.5168,3.5277,3.5236,3.548,3.5629,3.5629,3.5629,3.5669,3.5669,3.5629,3.5669,3.571,3.571,3.571,3.571,3.5737,3.5737,3.5751,3.5832,3.6035,3.6429,3.6522,3.678,3.7267,3.7456,3.7617,3.8158,3.8306,3.8506,3.8724,3.8774,3.8769,3.8684,3.8634,3.8922,3.9278,3.9897,4.0301,4.0403,4.0489,4.083,4.1029,4.1767,4.2389,4.4005,4.4769,4.5458,4.5855,4.6263,4.6533,4.6803,4.708,4.7434,3.3124,3.3124,3.3124,3.3124,3.3124,3.3124,3.3124,3.3124,3.3124,3.3124,3.3124,3.3124,3.3124,3.3124,3.3124,3.3136,3.3124,3.3124,3.3124,3.3149,3.3179,3.3313,3.3484,3.3598,3.3823,3.4118,3.4202,3.4272,3.4356,3.441,3.4397,3.4397,3.441,3.4397,3.445,3.4397,3.4397,3.4397,3.4397,3.4397,3.4397,3.4397,3.4397,3.4397,3.4397,3.4397,3.4397,3.4397,3.4397,3.4397,3.4397,3.4397,3.4397,3.4397,3.4452,3.4535,3.4535,3.4535,3.4618,3.466,3.4701,3.4797,3.4934,3.5044,3.5072,3.5195,3.5277,3.5277,3.5277,3.5318,3.544,3.5358,3.5439,3.5683,3.571,3.571,3.5818,3.6062,3.6293,3.6333,3.6576,3.6872,3.7049,3.7005,3.7077,3.7714,3.7762,3.7903,3.8358,3.8523,3.8528,3.8697,3.8679,3.8674,3.8631,3.8666,3.8829,3.9037,3.9415,3.9646,3.9636,3.9834,4.0093,4.0509,4.1225,4.2337,4.3963,4.4975,4.5509,4.632,4.6661,4.6981,4.7286,4.7619,4.7932,3.3382,3.3407,3.3596,3.3684,3.3696,3.3696,3.3696,3.3696,3.3696,3.3684,3.3696,3.3696,3.3696,3.3684,3.3684,3.3696,3.3684,3.3696,3.3796,3.3822,3.3257,3.321,3.3386,3.3471,3.3641,3.3907,3.4047,3.416,3.4285,3.4578,3.4724,3.475,3.492,3.5051,3.5038,3.5038,3.5025,3.4999,3.4842,3.4737,3.4685,3.4502,3.4397,3.4397,3.4397,3.4397,3.4397,3.4397,3.4397,3.4397,3.4397,3.4397,3.4397,3.4397,3.4397,3.4397,3.4397,3.4397,3.4397,3.4439,3.4452,3.4632,3.4756,3.4852,3.4962,3.5044,3.5072,3.5072,3.5113,3.5248,3.5476,3.5488,3.5609,3.6086,3.5911,3.5884,3.6114,3.6451,3.6653,3.6676,3.6876,3.7198,3.7356,3.7394,3.7447,3.8073,3.8145,3.8078,3.8509,3.8589,3.857,3.8512,3.844,3.8514,3.8635,3.8668,3.8734,3.8951,3.9188,3.9259,3.9224,3.9591,3.9916,4.0221,4.0786,4.1775,4.3237,4.4182,4.4859,4.5848,4.6721,4.6989,4.7201,4.7993,4.8352,3.3935,3.401,3.4487,3.4593,3.4593,3.458,3.4555,3.4618,3.4605,3.46,3.4593,3.4517,3.4663,3.4726,3.4675,3.4713,3.4813,3.4826,3.5027,3.4944,3.4236,3.3701,3.3756,3.3827,3.3905,3.3969,3.4169,3.427,3.4484,3.5044,3.5338,3.5378,3.573,3.6057,3.594,3.6057,3.5966,3.5861,3.5547,3.5338,3.5312,3.4868,3.458,3.4593,3.462,3.4646,3.4672,3.4593,3.4476,3.441,3.4397,3.4397,3.4397,3.4397,3.4397,3.4397,3.4397,3.4397,3.4397,3.4397,3.4397,3.4452,3.4618,3.4756,3.4797,3.4867,3.5015,3.5136,3.5136,3.5377,3.5774,3.5865,3.616,3.6585,3.6324,3.6287,3.6684,3.6804,3.6957,3.6927,3.6881,3.7093,3.7723,3.7732,3.794,3.8291,3.8419,3.8413,3.8427,3.8434,3.8448,3.841,3.8378,3.8622,3.8878,3.9023,3.9089,3.9214,3.9434,3.9494,3.9388,3.9679,4.0039,4.03,4.0662,4.155,4.2473,4.3588,4.4463,4.5243,4.5933,4.6491,4.7116,4.7746,4.8282,3.4512,3.4512,3.4663,3.468,3.468,3.468,3.4693,3.468,3.4705,3.4768,3.4718,3.468,3.4994,3.5257,3.532,3.5529,3.5855,3.5931,3.5994,3.606,3.5818,3.5265,3.4909,3.4596,3.4553,3.473,3.4937,3.5182,3.537,3.5744,3.594,3.59,3.6096,3.6162,3.6109,3.6175,3.6109,3.6109,3.6005,3.5887,3.5874,3.5717,3.5665,3.5652,3.5613,3.5613,3.56,3.526,3.4829,3.4437,3.4397,3.4397,3.4397,3.4397,3.4397,3.4397,3.4397,3.4397,3.4397,3.4397,3.4397,3.4397,3.4494,3.4535,3.4494,3.4577,3.4829,3.5076,3.5247,3.5555,3.6115,3.6217,3.6407,3.6801,3.673,3.6625,3.6867,3.7217,3.7453,3.7479,3.7652,3.7917,3.8063,3.8034,3.7951,3.8173,3.8194,3.8129,3.8161,3.8267,3.8287,3.8569,3.8673,3.8927,3.9189,3.9298,3.9477,3.9616,3.9843,4.0136,4.0057,4.0136,4.0539,4.089,4.1095,4.1804,4.2644,4.3556,4.42,4.4414,4.5058,4.5571,4.6403,4.7116,4.7661,3.5019,3.5044,3.5316,3.5403,3.5416,3.5403,3.5403,3.5416,3.5416,3.5554,3.5717,3.5755,3.6069,3.6511,3.6549,3.6747,3.7023,3.7061,3.7199,3.7437,3.7437,3.6847,3.6044,3.5516,3.5521,3.5658,3.5829,3.6115,3.6328,3.6586,3.672,3.6894,3.6854,3.6854,3.692,3.6854,3.6854,3.6828,3.6645,3.6488,3.6475,3.6214,3.6096,3.6096,3.6109,3.6109,3.6044,3.5783,3.5273,3.462,3.4397,3.4397,3.4397,3.4397,3.4397,3.4397,3.4397,3.4397,3.4397,3.4397,3.4397,3.4397,3.4397,3.4554,3.4724,3.4789,3.5012,3.5534,3.5613,3.6013,3.6529,3.6786,3.7011,3.7318,3.7287,3.7268,3.7268,3.7566,3.777,3.783,3.797,3.8135,3.8298,3.807,3.8024,3.8011,3.7979,3.7946,3.7959,3.8083,3.8344,3.871,3.9089,3.9403,3.9703,3.9899,4.0122,4.0213,4.0314,4.0621,4.0683,4.0621,4.0864,4.1208,4.1561,4.1918,4.2466,4.2778,4.2695,4.3054,4.3834,4.4521,4.5195,4.6182,4.6784,3.5596,3.5633,3.6157,3.6417,3.6367,3.6405,3.6355,3.6468,3.6443,3.6697,3.7086,3.7236,3.7425,3.809,3.7889,3.809,3.8178,3.8191,3.8467,3.8705,3.8718,3.814,3.7073,3.6707,3.6593,3.6628,3.6783,3.7019,3.7241,3.7534,3.7779,3.7925,3.7945,3.7952,3.7835,3.7848,3.7874,3.7678,3.7299,3.7103,3.7037,3.6724,3.6554,3.6515,3.6515,3.641,3.6319,3.6149,3.573,3.4633,3.458,3.4685,3.4659,3.462,3.4633,3.4698,3.475,3.4724,3.4633,3.4737,3.4659,3.4711,3.4685,3.4776,3.5247,3.5378,3.56,3.6162,3.6201,3.6502,3.7011,3.7547,3.773,3.7782,3.7808,3.7874,3.79,3.79,3.79,3.79,3.79,3.79,3.79,3.79,3.79,3.7972,3.7991,3.8174,3.8318,3.8579,3.8841,3.9141,3.952,3.9926,4.0226,4.0514,4.0762,4.0958,4.0945,4.1073,4.1159,4.1149,4.1217,4.1361,4.1498,4.1498,4.1597,4.1634,4.1597,4.1967,4.2923,4.3232,4.3598,4.4826,4.566,3.6182,3.6241,3.6367,3.6417,3.6417,3.6417,3.6669,3.6998,3.701,3.7312,3.7739,3.7839,3.8165,3.8693,3.8705,3.8906,3.9207,3.9233,3.9433,3.9471,3.9521,3.9383,3.8718,3.8078,3.7663,3.7712,3.7907,3.8054,3.8199,3.8512,3.8873,3.8869,3.8629,3.854,3.8462,3.8122,3.79,3.7874,3.7743,3.7665,3.7652,3.7521,3.7403,3.7403,3.7429,3.722,3.6894,3.6802,3.6462,3.594,3.5744,3.573,3.5639,3.5652,3.5626,3.5613,3.5652,3.5691,3.5704,3.5639,3.5717,3.5626,3.5587,3.5783,3.5874,3.5926,3.6214,3.6671,3.6828,3.7077,3.7547,3.7795,3.7887,3.79,3.79,3.79,3.79,3.79,3.79,3.79,3.79,3.79,3.79,3.79,3.7913,3.7965,3.8187,3.8475,3.8776,3.9063,3.9364,3.9664,4.0043,4.0422,4.0671,4.0893,4.1023,4.1219,4.1272,4.1311,4.1361,4.1411,4.1311,4.1311,4.1311,4.1311,4.1311,4.1461,4.1647,4.1832,4.2065,4.2563,4.3163,4.4017,4.4452,3.6417,3.6417,3.6417,3.6556,3.6757,3.6759,3.7109,3.75,3.7575,3.7877,3.8316,3.8404,3.873,3.9233,3.927,3.9446,3.9634,3.9697,3.9685,3.9685,3.9685,3.9685,3.9647,3.917,3.8793,3.8793,3.8907,3.9045,3.9194,3.919,3.9269,3.9501,3.9151,3.8804,3.8689,3.8423,3.8161,3.7939,3.79,3.79,3.79,3.79,3.79,3.79,3.7887,3.7717,3.7456,3.7416,3.726,3.7037,3.692,3.6645,3.6201,3.6109,3.6109,3.6109,3.6109,3.6109,3.6096,3.6109,3.607,3.6136,3.6109,3.6292,3.6423,3.6515,3.6815,3.726,3.7456,3.7586,3.7861,3.79,3.79,3.79,3.79,3.79,3.79,3.79,3.79,3.79,3.79,3.79,3.79,3.7978,3.8174,3.8318,3.8462,3.8749,3.9272,3.9586,3.9926,4.0239,4.0605,4.0919,4.1128,4.1232,4.1193,4.1285,4.1298,4.1311,4.1311,4.1311,4.1311,4.1311,4.1311,4.1311,4.1311,4.1498,4.1547,4.1647,4.1881,4.2297,4.2736,4.3266,4.3457,3.6417,3.6417,3.6505,3.6807,3.7161,3.7274,3.7626,3.809,3.814,3.8454,3.8969,3.9045,3.9233,3.9597,3.9659,3.9685,3.9697,3.9697,3.9697,3.9697,3.9697,3.9697,3.9647,3.9584,3.9534,3.9685,3.9623,3.9713,3.974,3.9639,3.9636,3.9883,3.9602,3.9271,3.8973,3.8807,3.8606,3.8187,3.8122,3.7991,3.7913,3.79,3.79,3.79,3.79,3.7887,3.7808,3.7821,3.7835,3.79,3.79,3.7351,3.6711,3.6384,3.6371,3.6423,3.6528,3.658,3.6606,3.6515,3.6488,3.6384,3.6423,3.6632,3.7011,3.7155,3.7364,3.7625,3.7835,3.7835,3.79,3.79,3.79,3.79,3.79,3.79,3.7913,3.7952,3.8057,3.79,3.7913,3.7939,3.807,3.8187,3.8449,3.871,3.8854,3.9115,3.9651,4.0122,4.0461,4.0657,4.0958,4.1076,4.1259,4.1261,4.1261,4.1311,4.1311,4.1311,4.1311,4.1311,4.1311,4.1311,4.1311,4.1311,4.1361,4.1461,4.1511,4.1474,4.171,4.2226,4.2422,4.2449,4.2679,3.6417,3.6455,3.6908,3.7111,3.7262,3.7676,3.8203,3.868,3.873,3.9044,3.9432,3.9546,3.9572,3.9633,3.9697,3.9697,3.9697,3.9697,3.9697,3.9697,3.9697,3.9697,3.9697,3.9697,3.9697,3.9697,3.9697,3.9736,3.9826,3.9879,3.9893,3.9994,3.9936,3.9734,3.966,3.9559,3.9107,3.8684,3.8579,3.841,3.8161,3.807,3.8083,3.807,3.8057,3.7978,3.7939,3.7913,3.79,3.79,3.79,3.7769,3.7534,3.7469,3.7469,3.7456,3.7429,3.7364,3.739,3.7495,3.7573,3.7612,3.7495,3.7508,3.7678,3.7671,3.7684,3.7658,3.7762,3.7854,3.79,3.7854,3.79,3.79,3.7952,3.7952,3.8044,3.8292,3.8423,3.8214,3.8109,3.8122,3.841,3.8671,3.8945,3.9298,3.9586,3.9821,4.0226,4.0657,4.101,4.1141,4.1232,4.1272,4.1311,4.1211,4.1161,4.1261,4.1311,4.1311,4.1311,4.1311,4.1311,4.1311,4.1311,4.1311,4.1361,4.1461,4.1511,4.1511,4.1796,4.2141,4.2239,4.2351,4.2595,3.6568,3.681,3.7073,3.7525,3.804,3.8341,3.8781,3.9258,3.9308,3.9113,3.9028,3.9362,3.931,3.9089,3.953,3.9697,3.9645,3.9697,3.9697,3.9697,3.9697,3.9697,3.9697,3.9697,3.9697,3.9697,3.9697,3.9697,3.9697,3.9839,3.9981,4.0071,4.0083,4.004,3.9969,3.9868,3.9572,3.9251,3.9155,3.905,3.8789,3.8762,3.8776,3.8723,3.8475,3.8331,3.8266,3.7991,3.7913,3.79,3.79,3.79,3.7913,3.7913,3.79,3.79,3.79,3.79,3.79,3.79,3.7861,3.7874,3.79,3.79,3.79,3.7828,3.7564,3.7214,3.7062,3.7062,3.7002,3.7551,3.7854,3.7952,3.8122,3.8292,3.8449,3.8867,3.8833,3.8681,3.8765,3.8869,3.9063,3.9298,3.9507,3.9834,4.019,4.0415,4.0627,4.0824,4.1047,4.0933,4.0782,4.0402,4.0503,4.0618,4.0833,4.0997,4.1311,4.1311,4.1311,4.1311,4.1311,4.1311,4.1311,4.1311,4.1311,4.1361,4.1461,4.1511,4.171,4.1895,4.2056,4.2253,4.2449,3.6784,3.7199,3.7473,3.7941,3.849,3.8677,3.8733,3.8976,3.8908,3.836,3.7779,3.8437,3.8372,3.7991,3.8384,3.8921,3.9037,3.9089,3.9258,3.931,3.9594,3.9697,3.9697,3.9697,3.9697,3.9697,3.9697,3.9697,3.9697,3.9749,3.9839,3.9968,4.0019,4.0147,4.0127,4.0199,3.9959,3.9842,3.9769,3.9756,3.9651,3.9625,3.9625,3.9612,3.9141,3.8893,3.8854,3.8593,3.841,3.837,3.8331,3.8253,3.8109,3.8057,3.8004,3.7926,3.79,3.79,3.79,3.79,3.79,3.79,3.79,3.7795,3.7413,3.7108,3.6769,3.6178,3.6273,3.6225,3.6225,3.7155,3.7688,3.7883,3.8275,3.8742,3.8916,3.9099,3.9133,3.9159,3.9336,3.9434,3.9443,3.9724,3.9845,3.9642,3.9977,4.0092,4.026,4.0437,4.0567,4.0402,4.0083,3.9442,3.9442,3.9763,4.0083,4.0453,4.0984,4.1311,4.1311,4.1311,4.1311,4.1311,4.1311,4.1311,4.1311,4.1311,4.1361,4.1461,4.156,4.166,4.1845,4.1993,4.219,3.7123,3.7262,3.8253,3.8174,3.75,3.7859,3.7482,3.678,3.6792,3.6576,3.6414,3.663,3.6684,3.663,3.6619,3.6738,3.7019,3.7672,3.812,3.8226,3.9037,3.9478,3.9645,3.9697,3.9697,3.9697,3.9697,3.9697,3.9697,3.9697,3.9697,3.9788,3.9981,4.0185,4.0312,4.0512,4.0644,4.0386,4.0318,4.0122,3.9795,3.973,3.9743,3.969,3.9586,3.9494,3.9468,3.9298,3.9246,3.9285,3.9337,3.9128,3.8736,3.8619,3.8331,3.807,3.79,3.79,3.7913,3.79,3.79,3.79,3.7808,3.7353,3.6628,3.5738,3.5259,3.5114,3.5595,3.5786,3.5607,3.6807,3.7424,3.7839,3.8243,3.8891,3.9251,3.8738,3.8843,3.8768,3.8717,3.9308,3.9631,3.9967,4.0156,3.9904,3.9726,3.9752,3.9777,3.9802,3.9454,3.9131,3.8871,3.8283,3.8178,3.8546,3.9339,3.9815,4.0453,4.1097,4.1311,4.1311,4.1311,4.1311,4.1311,4.1311,4.1311,4.1311,4.1311,4.1311,4.1411,4.156,4.1696,4.1796,4.1944,3.7651,3.7664,3.7837,3.7764,3.7508,3.7139,3.6684,3.6294,3.6185,3.5815,3.5498,3.5979,3.6185,3.6077,3.6185,3.624,3.6294,3.6684,3.69,3.718,3.8056,3.8659,3.8868,3.9362,3.9697,3.9645,3.9697,3.9697,3.9697,3.9697,3.9697,3.9749,3.9839,3.9981,4.0287,4.0555,4.0653,4.0722,4.0793,4.0814,4.0631,4.0566,4.0566,4.0527,4.0239,4.0095,4.0017,3.973,3.9638,3.9625,3.9625,3.952,3.9285,3.9207,3.9089,3.8958,3.8893,3.8593,3.8031,3.7939,3.7913,3.7703,3.7366,3.6521,3.5547,3.452,3.3895,3.3895,3.4276,3.4483,3.5029,3.6478,3.7444,3.8002,3.8186,3.8581,3.889,3.8526,3.8255,3.8145,3.8077,3.8371,3.8658,3.8671,3.8773,3.878,3.8601,3.8613,3.8626,3.8638,3.8178,3.7554,3.7287,3.6965,3.6965,3.7233,3.8453,3.9131,3.9763,4.0453,4.1147,4.1311,4.1097,4.1161,4.1261,4.1261,4.1261,4.1311,4.1311,4.1311,4.1311,4.1411,4.1498,4.1647,4.1845,3.8002,3.7966,3.7497,3.7379,3.7394,3.6263,3.5597,3.5267,3.5212,3.4792,3.4469,3.4847,3.5223,3.5333,3.5168,3.5057,3.5278,3.5597,3.5761,3.6143,3.6792,3.7394,3.7832,3.8542,3.9154,3.931,3.9581,3.9697,3.9697,3.9697,3.9697,3.9697,3.9749,3.989,4.0083,4.0389,4.0655,4.0995,4.1132,4.1232,4.1219,4.1232,4.1246,4.1141,4.0919,4.0644,4.0579,4.0331,4.0109,4.0122,4.0161,4.0095,3.9847,3.9795,3.9664,3.952,3.9442,3.9168,3.8619,3.8318,3.807,3.7544,3.6581,3.5499,3.4483,3.3449,3.2812,3.2812,3.33,3.3668,3.4339,3.5685,3.6689,3.7369,3.7942,3.8277,3.8421,3.7758,3.7305,3.7115,3.6925,3.6626,3.6848,3.6949,3.7133,3.74,3.7477,3.7477,3.7477,3.7477,3.7168,3.6599,3.6068,3.5916,3.5904,3.6274,3.7447,3.8348,3.9028,3.9712,4.0351,4.0668,4.0567,4.0732,4.0896,4.1147,4.1097,4.1198,4.1311,4.1311,4.1311,4.1311,4.1361,4.1498,4.1696,3.8002,3.7991,3.7874,3.7228,3.6306,3.5124,3.3987,3.3264,3.3115,3.3105,3.3048,3.3058,3.3275,3.3161,3.3321,3.3264,3.3105,3.4089,3.4469,3.4958,3.5651,3.6251,3.6684,3.734,3.8108,3.8332,3.8933,3.9478,3.9697,3.9697,3.9697,3.9697,3.9697,3.9878,4.007,4.0338,4.0707,4.106,4.1261,4.1311,4.1311,4.1311,4.1311,4.1311,4.1272,4.1246,4.1246,4.1063,4.0971,4.0984,4.0945,4.0788,4.0448,4.0383,4.0226,3.9991,3.9913,3.9703,3.9364,3.8893,3.8389,3.7513,3.6291,3.4894,3.3977,3.2561,3.1907,3.2141,3.2802,3.3107,3.3594,3.4282,3.5893,3.663,3.7294,3.7481,3.7367,3.6724,3.6294,3.6111,3.5904,3.5685,3.5521,3.574,3.5947,3.6208,3.6329,3.6329,3.6329,3.6329,3.6329,3.5916,3.5224,3.4902,3.4891,3.5532,3.6545,3.7447,3.8178,3.8859,3.9558,3.9712,3.9712,3.9815,3.9917,4.0453,4.0933,4.1097,4.1211,4.1261,4.1311,4.1311,4.1311,4.1361,4.156,3.8002,3.7954,3.7166,3.663,3.6077,3.4201,3.3115,3.2727,3.2669,3.2669,3.2669,3.2669,3.2669,3.2669,3.2669,3.2669,3.2727,3.3115,3.3378,3.3762,3.4469,3.5068,3.5553,3.6251,3.718,3.7779,3.8437,3.9089,3.9633,3.9697,3.9697,3.9697,3.9697,3.9749,3.9942,4.0287,4.0707,4.101,4.1211,4.1311,4.1311,4.1311,4.1311,4.1311,4.1311,4.1311,4.1298,4.1311,4.1311,4.1311,4.1311,4.1141,4.0984,4.0932,4.0788,4.0579,4.0553,4.0396,4.0056,3.9551,3.8904,3.7851,3.6591,3.5227,3.4118,3.3127,3.2661,3.2735,3.2856,3.306,3.4027,3.4849,3.58,3.6233,3.6514,3.6666,3.6418,3.5772,3.5477,3.5378,3.5113,3.478,3.468,3.4624,3.4836,3.5058,3.5113,3.5168,3.5323,3.5323,3.5433,3.5433,3.4847,3.4579,3.4579,3.5058,3.5642,3.6545,3.7447,3.7914,3.8441,3.8533,3.8586,3.8742,3.9119,3.9712,4.0351,4.0883,4.1161,4.1261,4.1311,4.1311,4.1311,4.1389,4.1607,3.8002,3.7879,3.7061,3.6511,3.5925,3.3706,3.2669,3.2669,3.2669,3.2669,3.2669,3.2669,3.2669,3.2669,3.2669,3.2669,3.2669,3.2784,3.2727,3.3058,3.3547,3.3942,3.4368,3.5068,3.6034,3.6911,3.7779,3.8437,3.9037,3.9478,3.9645,3.9697,3.9697,3.9697,3.98,4.0147,4.0542,4.0896,4.1047,4.1261,4.1261,4.1311,4.1311,4.1311,4.1311,4.1311,4.1311,4.1311,4.1311,4.1311,4.1311,4.1311,4.1298,4.1311,4.1311,4.1311,4.1259,4.1076,4.0608,3.9933,3.8971,3.7469,3.6784,3.5734,3.4861,3.3793,3.2982,3.3026,3.3123,3.3489,3.434,3.4656,3.5069,3.5449,3.5523,3.5629,3.5476,3.5102,3.4836,3.468,3.4468,3.4468,3.4468,3.4468,3.4579,3.4736,3.4791,3.4791,3.4791,3.4791,3.4736,3.4736,3.4579,3.4524,3.4524,3.4847,3.5268,3.6068,3.6815,3.6869,3.718,3.7329,3.7423,3.7542,3.8072,3.8963,3.9827,4.0593,4.101,4.1261,4.1442,4.1664,4.1781,4.1899,4.2081,3.8002,3.7979,3.7818,3.7126,3.5968,3.3706,3.2727,3.2727,3.2669,3.2669,3.2669,3.2669,3.2669,3.2669,3.2669,3.2669,3.2669,3.2669,3.2669,3.2784,3.2887,3.2898,3.3285,3.3987,3.4792,3.5179,3.648,3.7725,3.8161,3.9206,3.9594,3.9697,3.9697,3.9697,3.9749,3.9981,4.0389,4.0795,4.0883,4.1097,4.1261,4.1311,4.1311,4.1311,4.1311,4.1311,4.1311,4.1311,4.1311,4.1311,4.1311,4.1311,4.1311,4.1311,4.1311,4.1311,4.1311,4.1235,4.1093,4.0164,3.8847,3.7554,3.726,3.6268,3.504,3.3989,3.3321,3.3496,3.3365,3.3485,3.3769,3.3999,3.4483,3.4714,3.4825,3.4836,3.478,3.4736,3.4579,3.4468,3.4468,3.4468,3.4468,3.4468,3.4468,3.4524,3.4524,3.4468,3.4468,3.4468,3.4468,3.4468,3.4468,3.4468,3.4468,3.4468,3.4902,3.5697,3.6068,3.6068,3.6068,3.6165,3.6274,3.634,3.7148,3.8154,3.9345,4.0466,4.0862,4.1363,4.1915,4.22,4.2304,4.2396,4.2525,3.8002,3.7941,3.7101,3.6565,3.5968,3.4569,3.3445,3.2784,3.2669,3.2669,3.2669,3.2669,3.2669,3.2669,3.2669,3.2669,3.2669,3.2669,3.2669,3.2669,3.2669,3.2669,3.2898,3.3172,3.3773,3.4692,3.61,3.7233,3.7938,3.8985,3.953,3.9697,3.9697,3.9697,3.98,3.9981,4.0275,4.0593,4.0795,4.0997,4.1261,4.1261,4.1311,4.1311,4.1311,4.1311,4.1311,4.1311,4.1311,4.1311,4.1311,4.1311,4.1311,4.1311,4.1311,4.1311,4.1261,4.0896,4.044,3.9715,3.9789,3.8956,3.7898,3.6992,3.6731,3.5025,3.4351,3.3977,3.3901,3.4054,3.425,3.4272,3.4526,3.4536,3.4568,3.4568,3.4579,3.4579,3.4468,3.4468,3.4468,3.4468,3.4468,3.4468,3.4468,3.4468,3.4468,3.4468,3.4468,3.4468,3.4468,3.4468,3.4468,3.4468,3.4468,3.4468,3.4468,3.5058,3.5168,3.5013,3.5058,3.5346,3.5402,3.558,3.6466,3.7403,3.8693,3.9879,4.0772,4.1446,4.2098,4.2606,4.2801,4.2827,4.284,3.8002,3.7917,3.7597,3.69,3.6034,3.4525,3.3388,3.2727,3.2669,3.2669,3.2669,3.2669,3.2669,3.2669,3.2669,3.2669,3.2669,3.2669,3.2669,3.2669,3.2669,3.2669,3.2669,3.2727,3.3172,3.4099,3.5068,3.6154,3.7222,3.8489,3.9206,3.9581,3.9697,3.9697,3.9736,3.9878,4.0083,4.0338,4.0593,4.0858,4.111,4.1211,4.1311,4.1311,4.1311,4.1311,4.1311,4.1311,4.1311,4.1311,4.1311,4.1311,4.1311,4.1311,4.1311,4.1311,4.1211,4.0681,3.9956,3.9687,3.9676,3.9432,3.8271,3.7423,3.7061,3.5364,3.4703,3.4402,3.4468,3.4457,3.4446,3.4468,3.4468,3.4468,3.4468,3.4468,3.4468,3.4468,3.4468,3.4468,3.4468,3.4468,3.4468,3.4468,3.4468,3.4468,3.4468,3.4468,3.4468,3.4468,3.4468,3.4468,3.4468,3.4468,3.4468,3.4468,3.4468,3.4468,3.4511,3.4611,3.4842,3.5222,3.5019,3.5095,3.6421,3.7532,3.8292,3.9272,4.0426,4.1459,4.2334,4.2791,4.3192,4.3376,4.3388,3.8002,3.8178,3.9169,3.8214,3.6034,3.3818,3.2727,3.2669,3.2669,3.2669,3.2669,3.2669,3.2669,3.2669,3.2669,3.2669,3.2669,3.2669,3.2669,3.2669,3.2669,3.2669,3.2669,3.2727,3.2898,3.3218,3.4089,3.5443,3.6294,3.8003,3.9037,3.9478,3.9697,3.9697,3.9736,3.9736,3.9942,4.0185,4.044,4.0694,4.0946,4.1147,4.1261,4.1311,4.1311,4.1311,4.1311,4.1311,4.1311,4.1311,4.1311,4.1311,4.1311,4.1311,4.1311,4.1211,4.1097,4.0402,3.9558,3.9248,3.8715,3.8178,3.6911,3.6329,3.5959,3.5323,3.468,3.4468,3.4468,3.4468,3.4468,3.4468,3.4468,3.4468,3.4468,3.4468,3.4468,3.4468,3.4468,3.4468,3.4468,3.4468,3.4468,3.4468,3.4468,3.4468,3.4468,3.4468,3.4468,3.4468,3.4468,3.4468,3.4468,3.4468,3.4468,3.4479,3.4676,3.472,3.4742,3.4797,3.4993,3.5255,3.5343,3.5793,3.6825,3.7668,3.8091,3.9061,4.0266,4.128,4.1947,4.322,4.3658,4.4119,4.425,3.8002,3.8016,3.831,3.7554,3.5968,3.3706,3.2669,3.2669,3.2669,3.2669,3.2669,3.2669,3.2669,3.2669,3.2669,3.2669,3.2669,3.2669,3.2669,3.2669,3.2669,3.2669,3.2669,3.2669,3.2669,3.3058,3.3875,3.5013,3.6468,3.8003,3.9141,3.9633,3.9645,3.9697,3.9697,3.9697,3.989,4.0083,4.0338,4.0542,4.0846,4.1097,4.1211,4.1261,4.1311,4.1311,4.1311,4.1311,4.1311,4.1311,4.1311,4.1311,4.1311,4.1261,4.111,4.0185,3.9968,3.9609,3.8546,3.766,3.7073,3.6654,3.5697,3.5697,3.5543,3.5212,3.4524,3.4468,3.4468,3.4468,3.4468,3.4468,3.4468,3.4468,3.4468,3.4468,3.4468,3.4468,3.4468,3.4468,3.4468,3.4468,3.4468,3.4468,3.4468,3.4468,3.4468,3.4468,3.4468,3.4468,3.4468,3.4468,3.4468,3.4468,3.4489,3.45,3.4764,3.4928,3.4982,3.5168,3.555,3.578,3.5903,3.6252,3.6994,3.7339,3.7673,3.8672,3.9591,4.0445,4.1225,4.2834,4.4118,4.444,4.4681,3.8002,3.8054,3.8465,3.7713,3.6034,3.419,3.3172,3.2784,3.2669,3.2669,3.2669,3.2669,3.2669,3.2669,3.2669,3.2669,3.2669,3.2669,3.2669,3.2669,3.2669,3.2669,3.2669,3.2669,3.2669,3.3001,3.3547,3.4525,3.6306,3.8267,3.9581,3.8973,3.931,3.9645,3.9697,3.9697,3.98,3.9993,4.0185,4.0377,4.063,4.0946,4.1097,4.1161,4.1211,4.1311,4.1311,4.1311,4.1311,4.1311,4.1311,4.1311,4.1147,4.0883,4.0516,3.9597,3.9067,3.8388,3.7382,3.6762,3.6079,3.5543,3.4947,3.5002,3.5002,3.4847,3.4579,3.4468,3.4468,3.4468,3.4468,3.4468,3.4468,3.4468,3.4468,3.4468,3.4468,3.4468,3.4468,3.4468,3.4468,3.4468,3.4468,3.4468,3.4468,3.4468,3.4468,3.4468,3.4468,3.4468,3.4468,3.4468,3.4468,3.4468,3.4533,3.4753,3.4993,3.5244,3.5419,3.5659,3.6144,3.6304,3.6369,3.6555,3.6903,3.7226,3.7544,3.7887,3.8628,3.951,4.0361,4.1643,4.3101,4.4289,4.4505,3.7965,3.8041,3.9118,3.8161,3.6197,3.4902,3.3762,3.2784,3.2669,3.2669,3.2669,3.2669,3.2669,3.2669,3.2669,3.2669,3.2669,3.2669,3.2669,3.2669,3.2669,3.2669,3.2669,3.2669,3.2669,3.2669,3.3058,3.3976,3.6034,3.7725,3.8437,3.7938,3.8868,3.9413,3.9697,3.9697,3.9749,3.9788,3.9929,4.0121,4.0275,4.058,4.0883,4.0984,4.1147,4.1311,4.1311,4.1311,4.1311,4.1311,4.1311,4.1311,4.0984,4.0618,4.0083,3.9235,3.8533,3.7382,3.6491,3.5861,3.5433,3.4947,3.4468,3.4568,3.4624,3.468,3.4524,3.4468,3.4468,3.4468,3.4468,3.4468,3.4468,3.4468,3.4468,3.4468,3.4468,3.4468,3.4468,3.4468,3.4468,3.4468,3.4468,3.4468,3.4468,3.4468,3.4468,3.4468,3.4609,3.4609,3.4642,3.4642,3.4664,3.4807,3.5015,3.5179,3.5321,3.5539,3.5812,3.6184,3.662,3.6795,3.6894,3.7003,3.709,3.721,3.7462,3.7785,3.8074,3.8648,3.951,4.0488,4.1862,4.3398,4.4383,3.7626,3.8003,3.8246,3.7501,3.6143,3.4969,3.3818,3.2727,3.2669,3.2669,3.2669,3.2669,3.2669,3.2669,3.2669,3.2669,3.2669,3.2669,3.2669,3.2669,3.2669,3.2669,3.2669,3.2669,3.2669,3.2669,3.2944,3.3547,3.4958,3.636,3.7554,3.7832,3.8542,3.8985,3.9697,3.9697,3.9697,3.9685,3.9788,3.9929,4.0121,4.0529,4.0883,4.0997,4.111,4.1261,4.1311,4.1311,4.1311,4.1311,4.1311,4.1311,4.1261,4.0997,3.9981,3.8638,3.8007,3.6804,3.5642,3.5113,3.4847,3.468,3.4468,3.4468,3.4468,3.4468,3.4468,3.4468,3.4468,3.4468,3.4468,3.4468,3.4468,3.4468,3.4468,3.4468,3.4468,3.4468,3.4468,3.4468,3.4468,3.4468,3.4468,3.4468,3.4468,3.4468,3.4468,3.4555,3.4928,3.5059,3.5179,3.5179,3.5091,3.519,3.5397,3.5638,3.5801,3.6063,3.6358,3.6752,3.7123,3.7134,3.7134,3.7243,3.7341,3.7374,3.7374,3.7424,3.7785,3.8123,3.8648,3.9569,4.0834,4.2382,4.3522,3.75,3.8016,3.8516,3.7713,3.6251,3.5498,3.4312,3.2887,3.2669,3.2669,3.2669,3.2669,3.2669,3.2669,3.2669,3.2669,3.2669,3.2669,3.2669,3.2669,3.2669,3.2669,3.2669,3.2669,3.2669,3.2727,3.3332,3.3942,3.4089,3.6045,3.7459,3.7447,3.7885,3.8933,3.9697,3.9697,3.9697,3.9697,3.9697,3.9788,3.9981,4.0389,4.0694,4.0808,4.106,4.1211,4.1311,4.1311,4.1311,4.1311,4.1311,4.1311,4.1097,4.0668,3.9597,3.8323,3.7317,3.6371,3.5046,3.4468,3.4468,3.4468,3.4468,3.4468,3.4468,3.4468,3.4468,3.4468,3.4468,3.4468,3.4468,3.4468,3.4468,3.4468,3.4468,3.4468,3.4468,3.4468,3.4468,3.4468,3.4468,3.4468,3.4468,3.4468,3.4479,3.4611,3.46,3.4862,3.5168,3.5517,3.5627,3.5725,3.5681,3.5616,3.5725,3.602,3.6315,3.6599,3.685,3.7057,3.7254,3.7309,3.7363,3.7374,3.7374,3.7374,3.7374,3.7374,3.7374,3.7665,3.8123,3.8707,4.0024,4.135,4.2563,3.7425,3.8128,3.922,3.8437,3.6576,3.6402,3.5223,3.3434,3.3001,3.2944,3.2944,3.2841,3.2727,3.2669,3.2669,3.2669,3.2669,3.2669,3.2669,3.2669,3.2669,3.2669,3.2669,3.2669,3.2669,3.2944,3.3445,3.3229,3.3058,3.5234,3.6588,3.6684,3.7938,3.953,3.9645,3.9697,3.9697,3.9697,3.9697,3.9697,3.9955,4.0211,4.0453,4.0707,4.0959,4.1261,4.1311,4.1311,4.1311,4.1311,4.1261,4.1047,4.0732,4.0185,3.8911,3.7755,3.6815,3.5806,3.4791,3.4468,3.4468,3.4468,3.4468,3.4468,3.4468,3.4468,3.4468,3.4468,3.4468,3.4468,3.4468,3.4468,3.4468,3.4468,3.4468,3.4468,3.4468,3.4468,3.4468,3.4468,3.4468,3.4468,3.4489,3.4489,3.4655,3.472,3.4928,3.5201,3.5506,3.5911,3.6184,3.6337,3.6424,3.6337,3.626,3.6413,3.6762,3.6894,3.7101,3.7254,3.7374,3.7374,3.7374,3.7374,3.7374,3.7374,3.7374,3.7374,3.7374,3.7374,3.7654,3.8242,3.9404,4.0662,4.1704,3.7111,3.8103,3.922,3.8868,3.766,3.7566,3.6792,3.5487,3.4469,3.4145,3.3818,3.3058,3.2669,3.2669,3.2669,3.2669,3.2669,3.2669,3.2669,3.2669,3.2669,3.2669,3.2669,3.2669,3.2669,3.2898,3.3058,3.2841,3.3001,3.448,3.5663,3.6294,3.7394,3.8712,3.9581,3.9581,3.9478,3.9478,3.9645,3.9697,3.9839,4.0096,4.0402,4.0707,4.101,4.1211,4.1311,4.1311,4.1311,4.1311,4.1211,4.0833,4.03,3.9712,3.8598,3.7233,3.634,3.5653,3.4902,3.4579,3.4468,3.4468,3.4468,3.4468,3.4468,3.4468,3.4468,3.4468,3.4468,3.4468,3.4468,3.4468,3.4468,3.4468,3.4468,3.4468,3.4468,3.4468,3.4468,3.4468,3.4468,3.4511,3.4566,3.4764,3.5037,3.519,3.5528,3.5801,3.6118,3.6435,3.6708,3.685,3.7003,3.7145,3.7112,3.6959,3.7156,3.7243,3.7287,3.7341,3.7374,3.7374,3.7374,3.7374,3.7374,3.7374,3.7374,3.7374,3.7374,3.7374,3.7374,3.7894,3.8933,4.0152,4.1305]}]]